[[[{"header":{"parameterUnit":"kt","parameterCategory":2,"dx":1,"dy":1,"la1":29.587661999999998,"la2":31.0,"lo1":-88.76705300000003,"lo2":-86.6583820000003,"nx":115,"ny":88,"refTime":"2022-10-08T12:00:00:Z","depth":0,"parameterNumber":1,"parameterNumberName":"U-component_of_WINDS"},"data":[7.5053,7.5053,7.5053,7.5053,7.5124,7.5728,7.6151,7.6574,7.7658,7.8356,7.8774,7.9261,7.9538,7.9538,7.9538,7.9538,7.9538,7.9538,7.9538,7.9538,7.9538,7.9538,7.9983,8.1223,8.1936,8.4002,8.6576,8.9349,9.1883,9.4089,9.5656,9.6332,9.6395,9.6395,9.6395,9.6395,9.6395,9.6395,9.6395,9.6395,9.6395,9.6395,9.6395,9.6395,9.6395,9.6395,9.6395,9.6395,9.6395,9.6395,9.6395,9.6395,9.6395,9.6395,9.6395,9.6395,9.6395,9.6395,9.6395,9.6395,9.6395,9.6395,9.6395,9.6395,9.6249,9.6151,9.6005,9.5872,9.5809,9.5029,9.4833,9.4589,9.4052,9.3125,9.2528,9.2832,9.2539,9.2415,9.2388,9.2531,9.2789,9.4035,9.5705,9.8469,10.0632,10.1516,10.3215,10.4303,10.4518,10.4006,10.3642,10.3701,10.3817,10.2606,10.1792,10.1792,10.185,10.0524,9.971,9.9768,9.971,9.9652,9.9536,9.9536,9.9536,9.9536,9.9536,9.9536,9.9581,9.9672,9.9627,10.0935,10.3105,10.546,10.728,7.5053,7.5053,7.5053,7.5053,7.5053,7.5195,7.5901,7.6918,7.7268,7.8077,7.9191,7.9469,7.9538,7.9538,7.9538,7.9538,7.9538,7.9538,7.9538,7.9538,7.9538,7.9538,8.0259,8.1498,8.2209,8.3867,8.6576,8.9415,9.2573,9.3405,9.485,9.6144,9.6395,9.6395,9.6395,9.6395,9.6395,9.6395,9.6395,9.6395,9.6395,9.6395,9.6395,9.6395,9.6395,9.6395,9.6395,9.6395,9.6395,9.6395,9.6395,9.6395,9.6395,9.6395,9.6395,9.6395,9.6395,9.6395,9.6395,9.6395,9.6395,9.6395,9.6395,9.6346,9.6151,9.6005,9.5921,9.5969,9.62,9.6102,9.6102,9.5858,9.5224,9.454,9.4248,9.4211,9.3125,9.2246,9.2122,9.1958,9.2663,9.3526,9.5953,9.9178,10.0587,10.1069,10.2114,10.3294,10.4002,10.3642,10.341,10.341,10.341,10.2769,10.185,10.1966,10.2373,10.1268,10.0524,10.0233,9.9943,9.9652,9.9536,9.9536,9.9536,9.9536,9.9536,9.9827,9.9731,9.9809,10.1126,10.3342,10.5243,10.6404,10.7944,7.5053,7.5053,7.5053,7.5053,7.5124,7.5477,7.5972,7.6676,7.7518,7.8426,7.94,7.9538,7.9538,7.9538,7.9538,7.9538,7.9538,7.9538,7.9538,7.9538,7.9538,7.9538,7.9815,8.0466,8.1745,8.2823,8.5842,9.0159,9.4089,9.4582,9.4566,9.6081,9.6395,9.6395,9.6395,9.6395,9.6395,9.6395,9.6395,9.6395,9.6395,9.6395,9.6395,9.6395,9.6395,9.6395,9.6395,9.6395,9.6395,9.6395,9.6395,9.6395,9.6395,9.6395,9.6395,9.6395,9.6395,9.6395,9.6395,9.6395,9.6395,9.6395,9.6395,9.6395,9.6249,9.62,9.6053,9.6067,9.6298,9.62,9.62,9.5907,9.5321,9.4687,9.4296,9.3808,9.2821,9.2725,9.3282,9.3495,9.4483,9.5605,9.8139,10.1359,10.2618,10.3143,10.3484,10.4827,10.405,10.341,10.341,10.341,10.341,10.2886,10.2606,10.2839,10.2955,10.2315,10.1617,10.1152,10.064,10.0059,9.9536,9.9594,9.9594,9.971,10.0105,10.0512,10.0488,10.1313,10.3438,10.5693,10.6572,10.7668,10.8483,7.5053,7.5053,7.5053,7.5053,7.5124,7.5728,7.6081,7.6574,7.7658,7.8426,7.9191,7.94,7.9538,7.9538,7.9538,7.9538,7.9538,7.9538,7.9538,7.9538,7.9538,7.9538,7.9608,8.1166,8.1455,8.2543,8.5666,9.0698,9.3457,9.5236,9.6113,9.6757,9.6883,9.6688,9.6444,9.6395,9.6395,9.6395,9.6395,9.6395,9.6395,9.6395,9.6395,9.6395,9.6395,9.6395,9.6395,9.6395,9.6395,9.6395,9.6395,9.6395,9.6395,9.6395,9.6395,9.6395,9.6395,9.6395,9.6395,9.6395,9.6395,9.6395,9.6395,9.6395,9.6395,9.6395,9.6346,9.6298,9.6262,9.6005,9.5809,9.5419,9.498,9.4345,9.376,9.3027,9.2235,9.349,9.4941,9.5987,9.7158,9.9007,10.1317,10.3359,10.4778,10.5266,10.5215,10.5049,10.4166,10.4282,10.4399,10.4166,10.3991,10.3991,10.406,10.4118,10.4002,10.3479,10.249,10.1908,10.1443,10.0628,9.9768,9.971,10.0059,10.0745,10.1152,10.1674,10.2685,10.3682,10.5541,10.766,10.8718,10.9374,10.9445,7.5053,7.5053,7.5053,7.5053,7.5053,7.5124,7.5901,7.7058,7.7198,7.7688,7.8565,7.9191,7.9538,7.9538,7.9538,7.9538,7.9538,7.9538,7.9538,7.9538,7.9538,7.9659,8.0625,8.2656,8.2669,8.526,8.8168,9.0673,9.1955,9.4505,9.6999,9.7845,9.7908,9.7615,9.6981,9.6786,9.6444,9.6298,9.6102,9.6005,9.6102,9.6249,9.6395,9.6249,9.6298,9.62,9.6249,9.6395,9.6395,9.6395,9.6395,9.6395,9.6395,9.6395,9.6395,9.6395,9.6395,9.6395,9.6395,9.6395,9.6395,9.6395,9.6395,9.6249,9.5858,9.5712,9.5663,9.5565,9.5175,9.4931,9.4784,9.4443,9.3955,9.3369,9.2979,9.2491,9.2133,9.2877,9.459,9.6399,9.7801,10.039,10.2739,10.4528,10.5933,10.477,10.4584,10.4875,10.4816,10.5621,10.5514,10.5165,10.5165,10.5282,10.5049,10.4399,10.4573,10.4341,10.3351,10.2548,10.1559,10.0803,10.0001,10.057,10.1152,10.1734,10.263,10.4303,10.5381,10.5994,10.706,10.943,11.075,11.1299,11.1165,7.5053,7.5053,7.5053,7.5053,7.5053,7.5053,7.5619,7.6535,7.6988,7.7588,7.8356,7.9191,7.9538,7.9538,7.9538,7.9538,7.9538,7.9538,7.9538,7.9538,7.9538,7.982,8.0403,8.1718,8.3191,8.5104,8.7574,9.0839,9.2296,9.4979,9.7958,9.8982,9.9031,9.8738,9.8201,9.742,9.6737,9.6067,9.553,9.498,9.4589,9.4296,9.4394,9.4443,9.5237,9.4833,9.454,9.6005,9.5858,9.5517,9.6249,9.6346,9.6346,9.6346,9.6346,9.6249,9.6249,9.62,9.6151,9.6249,9.6346,9.6395,9.6395,9.5712,9.5126,9.4736,9.4687,9.4638,9.4199,9.3808,9.3613,9.3369,9.2832,9.2235,9.204,9.1954,9.2255,9.255,9.426,9.6302,9.8846,10.1514,10.3599,10.5423,10.6271,10.5747,10.5573,10.5573,10.5863,10.6445,10.6271,10.5863,10.6096,10.6212,10.4864,10.3933,10.4108,10.3991,10.341,10.2722,10.1559,10.0919,10.0745,10.1268,10.2141,10.2548,10.3002,10.5328,10.7213,10.7429,10.8104,11.0051,11.1466,11.2123,11.1578,7.5053,7.5053,7.5053,7.5053,7.5053,7.5053,7.5477,7.6222,7.6886,7.7618,7.8356,7.9191,7.9469,7.9538,7.9538,7.9538,7.9538,7.9538,7.9538,7.9538,7.9538,8.0142,8.0736,8.1442,8.2617,8.5026,8.796,9.0921,9.2769,9.6388,9.9099,9.9552,9.908,9.8689,9.8347,9.8201,9.7176,9.6298,9.5761,9.5029,9.4296,9.4052,9.3662,9.3613,9.4052,9.3955,9.3711,9.4687,9.4833,9.4443,9.5077,9.537,9.5468,9.5468,9.5468,9.5468,9.5517,9.5517,9.5468,9.5419,9.5321,9.5175,9.5273,9.4345,9.376,9.332,9.3369,9.3369,9.3125,9.2772,9.2577,9.2149,9.1504,9.1162,9.1065,9.1577,9.2789,9.3575,9.563,9.7923,10.093,10.3393,10.4921,10.6486,10.6871,10.7143,10.7085,10.662,10.662,10.6852,10.6794,10.6445,10.6445,10.6561,10.5388,10.4515,10.4282,10.3875,10.3653,10.3188,10.2373,10.185,10.1501,10.2024,10.3304,10.3769,10.3923,10.5472,10.7604,10.8075,10.8576,11.0459,11.1967,11.1977,11.169,7.5053,7.5053,7.5053,7.5053,7.5053,7.483,7.533,7.6183,7.6848,7.7548,7.8356,7.9122,7.9538,7.9538,7.9538,7.9538,7.9538,7.9538,7.9538,7.9538,7.9538,8.0263,8.0948,8.2019,8.4051,8.6756,8.9525,9.2084,9.3903,9.7392,9.9177,9.9357,9.8982,9.8055,9.7567,9.742,9.742,9.6542,9.5858,9.4736,9.3808,9.3906,9.3223,9.293,9.2881,9.293,9.293,9.332,9.3418,9.332,9.3369,9.3369,9.332,9.3271,9.3271,9.332,9.3467,9.3564,9.3662,9.376,9.3662,9.3271,9.3271,9.3223,9.2832,9.2539,9.2442,9.2295,9.1943,9.1748,9.1601,9.1016,9.0489,9.0509,9.0412,9.1613,9.3026,9.4838,9.6943,9.9222,10.218,10.4348,10.5715,10.652,10.6956,10.7219,10.7201,10.691,10.6969,10.7201,10.6969,10.662,10.6561,10.6736,10.6561,10.5863,10.5282,10.405,10.3828,10.3537,10.3526,10.3002,10.2897,10.3304,10.4467,10.5114,10.5156,10.6262,10.777,10.8552,10.8905,11.0359,11.1083,11.1309,11.1716,7.5053,7.5053,7.5053,7.5053,7.4901,7.3875,7.383,7.4783,7.6404,7.7268,7.7867,7.8983,7.9538,7.9538,7.9538,7.9538,7.9538,7.9538,7.9538,7.9538,7.9538,8.0524,8.1945,8.3492,8.5664,8.8088,9.0844,9.3361,9.4999,9.7848,9.9139,9.9455,9.9275,9.7957,9.6932,9.659,9.6786,9.6053,9.5419,9.4199,9.3223,9.2344,9.1758,9.1612,9.171,9.1856,9.1661,9.21,9.2832,9.2479,9.2735,9.3174,9.3174,9.3174,9.3174,9.3125,9.3125,9.3076,9.3027,9.3027,9.2198,9.1466,9.1065,9.1016,9.1075,9.126,9.1319,9.1113,9.0723,9.0636,9.0587,9.0479,9.0323,9.0791,9.1157,9.2556,9.3995,9.5781,9.7815,9.9437,10.1868,10.3991,10.5722,10.6271,10.6924,10.717,10.7367,10.7308,10.7259,10.7143,10.6969,10.6561,10.6329,10.6154,10.6038,10.6271,10.5631,10.4293,10.3875,10.3468,10.341,10.341,10.405,10.4526,10.4399,10.4484,10.5463,10.6131,10.6582,10.7391,10.8745,10.9667,11.0068,11.0653,11.1218,7.4217,7.4217,7.4147,7.4147,7.4033,7.3198,7.3198,7.3945,7.551,7.6777,7.7408,7.8844,7.9538,7.9538,7.9538,7.9538,7.9538,7.9538,7.9538,7.9538,7.9538,8.0966,8.2898,8.4767,8.6979,9.024,9.2794,9.5146,9.6483,9.8443,9.9471,9.9177,9.8738,9.8055,9.6883,9.6346,9.6151,9.5383,9.4589,9.3662,9.2783,9.1856,9.1173,9.0772,9.087,9.0772,9.0392,9.1173,9.1514,9.1211,9.1357,9.1807,9.1856,9.1856,9.1954,9.2002,9.2051,9.2138,9.2479,9.21,9.1368,9.0685,9.0138,9.0187,9.005,8.9992,8.9943,9.004,9.0138,9.0849,9.1059,9.1232,9.1875,9.222,9.3026,9.4389,9.5837,9.754,9.8953,10.0662,10.2421,10.472,10.5543,10.5972,10.6718,10.717,10.7259,10.7367,10.7367,10.7143,10.7027,10.6561,10.6212,10.5747,10.5737,10.6445,10.6154,10.4991,10.4293,10.3701,10.3468,10.341,10.3817,10.405,10.3817,10.3679,10.4385,10.5019,10.55,10.668,10.8496,10.9675,10.9618,10.9827,11.0282,7.259,7.2514,7.259,7.2514,7.2514,7.3204,7.3508,7.3653,7.4661,7.5856,7.7338,7.8704,7.94,7.9538,7.9538,7.9538,7.9538,7.9538,7.9844,8.0121,8.0576,8.2269,8.4328,8.6504,8.899,9.3701,9.5314,9.6617,9.8887,9.8966,9.8576,9.8201,9.7908,9.742,9.6542,9.6395,9.6395,9.6346,9.6151,9.5321,9.4345,9.3223,9.2198,9.1406,9.087,9.0538,9.0148,9.0538,9.0587,9.0333,9.0538,9.0538,9.0538,9.0431,9.0382,9.0392,9.0343,9.0685,9.1357,9.0528,9.0284,9.004,8.9992,8.9992,8.9992,9.0001,9.006,9.0943,9.0652,9.1472,9.2684,9.3713,9.4782,9.5511,9.6283,9.7436,9.8953,10.0566,10.1357,10.2606,10.4378,10.5614,10.5531,10.5772,10.6569,10.7063,10.721,10.7367,10.7367,10.7308,10.725,10.6852,10.6561,10.6096,10.5863,10.662,10.6445,10.5689,10.4816,10.4108,10.3701,10.3468,10.341,10.341,10.3376,10.3249,10.3619,10.3954,10.5455,10.682,10.8518,10.9207,10.8936,10.8804,10.8616,7.2514,7.2514,7.2514,7.1831,7.092,7.1641,7.2325,7.2932,7.3767,7.5216,7.7198,7.8217,7.8983,7.94,7.9538,7.9538,7.9746,7.9844,8.0879,8.1868,8.2839,8.476,8.732,8.9528,9.0941,9.3337,9.5132,9.6084,9.7615,9.742,9.7274,9.7127,9.6834,9.6834,9.6395,9.6395,9.6395,9.62,9.5872,9.5041,9.4895,9.376,9.2735,9.1796,9.1357,9.088,9.0294,9.0138,9.0089,9.005,8.9992,8.9992,8.9992,8.9992,8.9992,8.9992,9.005,9.0148,9.0392,9.0148,8.9992,8.9992,8.9992,8.9992,8.9992,9.0001,9.1059,9.1933,9.2456,9.3373,9.5674,9.5954,9.6726,9.7873,9.8738,9.9651,10.1251,10.2535,10.352,10.3961,10.454,10.5186,10.5328,10.5772,10.652,10.7014,10.6987,10.6852,10.6785,10.661,10.6727,10.6445,10.6271,10.6096,10.5922,10.5456,10.4991,10.4293,10.406,10.3701,10.3526,10.3526,10.341,10.291,10.2724,10.286,10.3122,10.3518,10.5046,10.6939,10.771,10.8411,10.8155,10.7776,10.7415,7.1527,7.1565,7.1527,7.0958,7.0056,7.1261,7.2021,7.2628,7.3729,7.537,7.7268,7.8286,7.9052,7.94,7.9538,7.9983,8.1086,8.1154,8.3027,8.4542,8.5684,8.7394,8.9473,9.1505,9.3047,9.4693,9.5649,9.6395,9.6395,9.6639,9.6444,9.6395,9.6493,9.6395,9.6395,9.6395,9.6395,9.62,9.5872,9.553,9.5286,9.4345,9.3467,9.2783,9.2588,9.1601,9.0723,9.0577,9.0343,9.0148,8.9992,8.9992,8.9992,8.9992,8.9992,8.9992,8.9992,9.0235,9.0528,9.0294,8.9992,8.9992,8.9992,8.9992,8.9992,9.1001,9.2227,9.3203,9.4164,9.5844,9.7819,9.8361,9.8739,9.9811,10.0768,10.1609,10.2725,10.3911,10.4745,10.4233,10.4478,10.4936,10.5385,10.5608,10.6198,10.679,10.6589,10.6329,10.5737,10.5388,10.5214,10.4991,10.4758,10.4584,10.4584,10.4108,10.3526,10.3293,10.306,10.2722,10.2432,10.2548,10.2292,10.2047,10.1797,10.2323,10.2804,10.3112,10.4613,10.695,10.7827,10.7773,10.7233,10.688,10.6215,7.0047,7.0047,7.0047,7.0085,7.0208,7.1831,7.2514,7.2818,7.4369,7.5683,7.6918,7.8456,7.9122,7.9567,8.0052,8.1457,8.3638,8.3909,8.5818,8.7373,8.843,8.9983,9.1764,9.3099,9.3946,9.5864,9.6256,9.6395,9.6395,9.6395,9.6395,9.6395,9.6395,9.6395,9.6395,9.6395,9.6395,9.6346,9.6298,9.6249,9.5956,9.5468,9.4784,9.4504,9.3711,9.2723,9.1748,9.1455,9.1065,9.0392,9.0148,8.9992,8.9992,8.9992,8.9992,8.9992,8.9992,9.0284,9.0626,9.0392,9.004,8.9992,8.9992,8.9992,9.0001,9.1997,9.3373,9.4,9.5511,9.7656,9.9703,10.0871,10.1505,10.2131,10.2551,10.312,10.3606,10.4796,10.4792,10.4504,10.454,10.4948,10.5347,10.4599,10.4856,10.5408,10.5302,10.5107,10.4515,10.4341,10.405,10.3769,10.3584,10.3293,10.3293,10.2781,10.2083,10.1734,10.1617,10.1443,10.1385,10.0803,10.0454,10.0392,10.0841,10.1854,10.2545,10.3753,10.5215,10.7159,10.7756,10.6947,10.6365,10.5711,10.4943,7.0047,7.0047,7.0047,7.0388,7.1072,7.2059,7.2818,7.3501,7.4527,7.5265,7.5933,7.7128,7.8456,7.9637,8.1731,8.3299,8.418,8.5952,8.843,9.0263,9.1366,9.2701,9.4216,9.5151,9.5593,9.6381,9.6395,9.6395,9.6395,9.6395,9.6395,9.6395,9.6395,9.6395,9.6395,9.6395,9.6395,9.6395,9.6395,9.6395,9.6346,9.6053,9.5565,9.498,9.4443,9.3857,9.2832,9.2138,9.165,9.0967,9.0479,9.0099,8.9992,8.9992,8.9992,8.9992,9.0138,9.0333,9.0382,9.0538,9.004,8.9992,8.9992,9.0245,9.0216,9.041,9.176,9.5954,9.7323,9.9599,10.1871,10.3021,10.3438,10.3643,10.3997,10.3997,10.4109,10.4228,10.4228,10.394,10.398,10.4563,10.4221,10.3478,10.3541,10.4084,10.4023,10.3769,10.3701,10.3642,10.3351,10.306,10.2606,10.1966,10.1734,10.121,10.0628,10.0221,10.0163,10.0105,10.0279,9.9827,9.9536,9.9581,9.9789,10.1143,10.3151,10.4557,10.5871,10.6151,10.6244,10.5724,10.5266,10.4441,10.3863,7.0047,6.998,7.0426,7.0654,7.092,7.24,7.3122,7.3426,7.4521,7.5195,7.5689,7.6465,7.8316,8.1278,8.4205,8.6109,8.7572,8.9021,9.1237,9.3469,9.4089,9.4835,9.6144,9.6395,9.6395,9.6395,9.6395,9.6395,9.6395,9.6395,9.6395,9.6395,9.6395,9.6395,9.6395,9.6395,9.6395,9.6395,9.6395,9.6395,9.6395,9.6346,9.6102,9.5628,9.5579,9.4944,9.4052,9.3174,9.2686,9.1455,9.1113,9.0538,9.0148,8.9992,9.005,9.005,9.0333,9.0626,9.0674,9.1222,9.1065,9.0918,9.1065,9.0939,9.0772,9.2397,9.5737,9.8305,10.0247,10.2016,10.3667,10.451,10.4397,10.4115,10.3997,10.3997,10.3997,10.3997,10.3602,10.3376,10.3251,10.3182,10.2995,10.2741,10.3073,10.3299,10.3082,10.2664,10.249,10.2373,10.2141,10.2024,10.1443,10.0803,10.0454,10.0221,9.9827,9.971,9.9698,9.964,9.9536,9.9478,9.9536,9.9581,10.0184,10.1717,10.3546,10.4444,10.4591,10.4658,10.4665,10.4369,10.4,10.3399,10.3896,7.0056,7.0018,7.0987,7.092,7.0768,7.2522,7.3198,7.3084,7.4413,7.5445,7.6099,7.644,7.8605,8.2156,8.5637,8.8779,9.1172,9.238,9.3835,9.553,9.5956,9.6081,9.6395,9.6395,9.6395,9.6395,9.6395,9.6395,9.6395,9.6395,9.6395,9.6395,9.6395,9.6395,9.6346,9.6102,9.6249,9.6151,9.6005,9.5858,9.5858,9.5809,9.5907,9.5956,9.5956,9.5676,9.5139,9.4602,9.3857,9.2235,9.1796,9.1065,9.0333,9.0089,9.005,9.0382,9.0918,9.1493,9.1552,9.1943,9.2089,9.1943,9.2393,9.2182,9.2736,9.5266,9.7723,10.0293,10.3473,10.4963,10.4201,10.4904,10.4787,10.4222,10.3489,10.3545,10.3263,10.253,10.2417,10.2191,10.16,10.1576,10.1485,10.1988,10.2387,10.2313,10.2083,10.1559,10.1152,10.0687,10.0338,10.057,10.0163,10.0105,9.9827,9.9768,9.9594,9.9594,9.9536,9.9536,9.9303,9.9129,9.9245,10.0095,10.1267,10.2554,10.3011,10.3226,10.3315,10.3488,10.3767,10.3439,10.2932,10.3498,10.4094,7.0616,7.0085,7.0987,7.1633,7.2021,7.259,7.3388,7.4483,7.4901,7.5499,7.6175,7.6498,7.8783,8.2117,8.4207,8.7063,9.214,9.466,9.5578,9.6395,9.6395,9.6395,9.6395,9.6395,9.6395,9.6395,9.6395,9.6395,9.6395,9.6395,9.6395,9.6395,9.6395,9.6395,9.6102,9.5468,9.5286,9.4944,9.4345,9.3808,9.376,9.3857,9.415,9.5041,9.5188,9.5419,9.5565,9.5029,9.4248,9.3613,9.2479,9.1455,9.1113,9.0489,9.0441,9.1113,9.1406,9.1552,9.1661,9.2062,9.2377,9.2974,9.3122,9.4044,9.5,9.5677,9.7385,9.9814,10.2061,10.2683,10.3628,10.4171,10.3771,10.2975,10.2523,10.2354,10.1683,10.1401,10.1288,10.054,10.0042,9.974,9.9571,9.9953,10.0652,10.0676,10.1268,10.0687,10.0803,10.0047,10.0338,10.0105,10.0047,10.0047,9.9827,9.9989,9.9478,9.9245,9.9071,9.8838,9.8722,9.8715,9.9475,10.0095,10.1261,10.167,10.1752,10.1908,10.2361,10.2747,10.2936,10.3025,10.3195,10.3596,10.4028,7.0654,7.073,7.1527,7.2135,7.259,7.335,7.3995,7.4413,7.4901,7.6061,7.7424,7.8459,8.1147,8.4981,8.6499,8.9515,9.3547,9.5956,9.627,9.6395,9.6395,9.6395,9.6395,9.6395,9.6395,9.6395,9.6395,9.6395,9.6395,9.6395,9.6395,9.6298,9.5809,9.5614,9.537,9.4638,9.4101,9.3906,9.3515,9.3174,9.3174,9.3174,9.3369,9.3857,9.4052,9.4296,9.4687,9.415,9.4052,9.376,9.2479,9.21,9.2051,9.1905,9.1612,9.1601,9.21,9.2704,9.3786,9.2343,9.2699,9.4264,9.3813,9.4051,9.4856,9.6378,9.7715,9.9584,10.0585,10.2312,10.2272,10.2812,10.2473,10.1627,10.1288,10.1006,10.0562,10.0392,9.9652,9.8628,9.8779,9.8792,9.828,9.8802,9.909,9.9539,10.0175,10.0512,10.0745,10.1152,10.1966,10.185,10.1792,10.1501,10.0919,10.0221,9.942,9.8722,9.827,9.7908,9.784,9.8167,9.8884,10.0017,10.0301,10.0746,10.102,10.1695,10.1772,10.194,10.2388,10.2794,10.3195,10.3596,10.3897,7.054,7.1148,7.2097,7.2514,7.2742,7.4071,7.4726,7.47,7.5702,7.7408,8.0116,8.1049,8.419,8.8349,9.0834,9.3176,9.5296,9.6256,9.6542,9.6786,9.6493,9.6688,9.6688,9.659,9.6395,9.6395,9.6395,9.6395,9.6395,9.62,9.5956,9.5907,9.5383,9.4993,9.4748,9.4004,9.3711,9.3808,9.3369,9.3174,9.3027,9.2881,9.2832,9.2832,9.2881,9.3223,9.3418,9.3515,9.3515,9.3564,9.2625,9.2637,9.2783,9.2735,9.2187,9.1845,9.2138,9.3041,9.4073,9.2759,9.3395,9.5015,9.4466,9.3504,9.5151,9.6858,9.8451,9.9913,10.1633,10.2378,10.0505,10.1345,10.1175,10.0442,10.0047,9.9877,9.9595,9.9257,9.8684,9.7794,9.8052,9.8296,9.9202,9.9899,10.0155,10.0548,10.0454,10.0163,9.9698,10.0221,10.1315,10.1897,10.2595,10.1897,10.1094,9.964,9.8638,9.7765,9.7772,9.7407,9.7649,9.7838,9.8439,9.974,10.0308,10.0675,10.1156,10.1656,10.1875,10.191,10.2121,10.2463,10.3294,10.4089,10.4291,7.073,7.035,7.1869,7.2514,7.2666,7.3571,7.5721,7.8128,7.8615,8.0601,8.3525,8.339,8.6269,9.0036,9.0773,9.2743,9.5452,9.6381,9.6981,9.742,9.6883,9.6932,9.7078,9.6639,9.6249,9.6395,9.62,9.62,9.5956,9.5628,9.5188,9.5139,9.4895,9.4797,9.4846,9.4651,9.4309,9.4052,9.3467,9.3125,9.293,9.2235,9.1894,9.1796,9.1796,9.2491,9.3564,9.4004,9.4748,9.5761,9.4882,9.4004,9.3223,9.2382,9.165,9.165,9.1986,9.2847,9.3291,9.2047,9.2126,9.4679,9.4045,9.514,9.7666,9.8652,9.9303,10.0364,10.0727,10.0562,10.0392,10.0329,9.9821,9.9144,9.8854,9.8289,9.7555,9.716,9.7586,9.7352,9.8251,9.9066,9.9985,10.0339,10.1001,10.1385,10.0396,9.9407,9.814,9.7895,9.823,9.8696,9.9511,9.9174,9.8709,9.7546,9.7244,9.6895,9.7521,9.7566,9.7937,9.8502,9.9363,10.0116,10.0747,10.1198,10.1766,10.1841,10.191,10.1979,10.2155,10.2531,10.3426,10.4517,10.4456,7.0654,7.0768,7.1527,7.3279,7.5311,7.5987,7.816,8.1072,8.1606,8.3494,8.6071,8.6804,8.8682,9.1763,9.2787,9.3604,9.5377,9.6602,9.7518,9.7713,9.7503,9.7176,9.7078,9.6151,9.5579,9.5419,9.5029,9.4687,9.4589,9.4199,9.4358,9.4797,9.4211,9.4358,9.4748,9.4211,9.4052,9.3906,9.3369,9.2832,9.2333,9.1748,9.1406,9.0821,9.0772,9.1124,9.2246,9.2344,9.293,9.3564,9.3808,9.3418,9.2382,9.2284,9.204,9.1997,9.2522,9.3822,9.4534,9.4137,9.4497,9.8524,9.6488,9.7437,9.8225,9.8853,9.894,9.8907,9.891,9.841,9.8354,9.8354,9.8185,9.7612,9.7555,9.7273,9.6934,9.7273,9.7764,9.8116,9.9038,9.9799,9.9938,9.9795,10.0271,10.1125,10.0191,9.9815,9.8427,9.8242,9.7816,9.726,9.7406,9.7245,9.6836,9.6485,9.6288,9.6643,9.7498,9.8056,9.848,9.9385,10.0264,10.0775,10.1304,10.1806,10.1841,10.1841,10.1875,10.2048,10.2289,10.2599,10.3199,10.406,10.4227,7.0236,7.1101,7.1819,7.3946,7.6672,7.8132,8.0296,8.2943,8.376,8.5782,8.8385,8.9723,9.1042,9.2679,9.4257,9.53,9.5075,9.6558,9.7601,9.7664,9.7601,9.6981,9.5663,9.4882,9.4504,9.4296,9.3515,9.3369,9.3467,9.3662,9.3711,9.4651,9.426,9.4016,9.4797,9.4394,9.3857,9.3808,9.3613,9.3223,9.2686,9.1991,9.1211,9.0577,9.0187,9.0197,9.0294,9.0284,9.0333,9.0626,9.1173,9.1222,9.1096,9.196,9.2472,9.2605,9.4181,9.6188,9.7336,9.6415,9.7127,9.9954,9.8243,9.753,9.8675,9.8998,9.8475,9.7781,9.7442,9.7902,9.7959,9.7386,9.7555,9.762,9.7273,9.6991,9.7781,9.8523,9.8733,9.887,9.9368,9.9856,10.0036,10.0072,10.0594,10.0549,10.0528,10.0266,10.008,9.9975,9.9331,9.8467,9.8424,9.7919,9.734,9.6725,9.6595,9.6766,9.7923,9.8814,9.9348,10.0097,10.0899,10.1445,10.1841,10.1841,10.1841,10.1841,10.1841,10.2117,10.2357,10.2599,10.297,10.3602,10.3997,6.9401,7.0397,7.3504,7.3738,7.3528,7.8021,8.1053,8.1945,8.482,8.7757,8.9962,9.1485,9.1947,9.3274,9.3835,9.4741,9.5229,9.6067,9.6479,9.6542,9.6444,9.5614,9.3955,9.3515,9.332,9.3223,9.3223,9.3418,9.3564,9.3271,9.3711,9.4407,9.47,9.4797,9.5041,9.5565,9.5956,9.5565,9.4784,9.4199,9.3564,9.2344,9.1406,9.0918,9.0333,9.0392,9.0918,9.0967,9.0109,8.7463,8.726,8.8318,8.9406,9.1025,9.2218,9.3334,9.5177,9.6724,9.7002,9.6699,9.7021,9.9013,9.839,9.7911,9.9617,10.016,9.999,9.9539,9.9934,9.9595,9.9482,9.8862,9.8805,9.9257,9.7733,9.8515,10.0491,10.0724,9.9855,9.9272,10.0598,10.1021,10.1257,10.186,10.3073,10.261,10.2055,10.1806,10.1643,10.1005,10.0208,9.963,9.9209,9.8601,9.7932,9.7162,9.7159,9.7262,9.8645,9.9458,10.0006,10.0766,10.1498,10.1841,10.1841,10.1841,10.1841,10.1841,10.1841,10.2048,10.2323,10.2565,10.2869,10.3469,10.3964,6.9458,7.1785,7.324,7.567,7.8819,8.1369,8.3749,8.5749,8.7456,8.8843,8.9738,9.0411,9.0677,9.1056,9.2108,9.2794,9.3216,9.4741,9.5468,9.5579,9.5481,9.454,9.332,9.2382,9.2187,9.2138,9.1552,9.171,9.2111,9.2187,9.2832,9.4101,9.4553,9.5126,9.5849,9.62,9.6165,9.5579,9.5139,9.4101,9.3076,9.1991,9.1309,9.0577,9.0284,9.0197,9.0431,9.004,8.957,8.8684,8.7518,8.8114,9.079,9.117,9.1598,9.3325,9.5585,9.7233,9.7874,9.9029,10.0068,10.1232,10.1433,10.1323,10.1264,10.1401,10.1006,10.0449,10.0336,10.0336,10.0167,9.9934,10.0216,10.078,9.9249,9.8797,10.078,10.016,9.9387,9.9713,10.0854,10.2222,10.2378,10.3429,10.4232,10.4382,10.377,10.334,10.3427,10.1749,10.0849,10.0608,10.0219,9.9946,9.945,9.8796,9.8566,9.8597,9.9529,9.9915,10.0588,10.1463,10.1841,10.1841,10.1841,10.1841,10.1841,10.1841,10.1875,10.2014,10.2289,10.2497,10.2836,10.3303,10.3668,7.0203,7.3499,7.4562,7.7595,8.1687,8.3878,8.5603,8.7285,8.8185,8.8619,8.8993,8.9366,8.985,8.9881,9.1413,9.1829,9.2392,9.3986,9.4797,9.4407,9.3967,9.3027,9.2246,9.1455,9.1162,9.1065,9.0538,9.0646,9.1772,9.2214,9.3565,9.5795,9.6659,9.679,9.716,9.7185,9.6568,9.5865,9.4896,9.3318,9.2472,9.1842,9.0723,8.9992,8.9992,8.9992,8.9953,8.8976,8.921,9.0916,8.901,8.9131,9.1244,9.1368,9.2069,9.4046,9.6251,9.8209,9.9283,10.0567,10.1877,10.2925,10.2277,10.2642,10.1846,10.1733,10.1232,10.0667,10.0336,10.0336,10.0336,10.028,10.0667,10.1345,10.0547,10.0039,10.0555,9.9814,9.9232,9.9894,10.15,10.274,10.3426,10.4364,10.5207,10.5954,10.5521,10.4875,10.6819,10.6329,10.5498,10.4222,10.2917,10.2108,10.1198,10.0538,10.0109,10.0274,10.0277,10.0779,10.1218,10.1841,10.1841,10.1841,10.1841,10.1841,10.1841,10.1841,10.1944,10.2014,10.2292,10.27,10.297,10.3204,10.3668,7.1784,7.5269,7.8629,7.9005,7.8406,8.3428,8.4889,8.368,8.627,8.7778,8.8152,8.932,9.0317,9.0991,9.222,9.2799,9.2938,9.3779,9.3857,9.2783,9.1563,9.0733,9.0587,9.0392,9.0235,9.0187,9.004,9.2164,9.5377,9.4124,9.6485,10.1646,10.0468,9.991,9.9726,9.8946,9.8379,9.7413,9.4173,9.3399,9.46,9.2109,9.0401,9.0468,9.0527,9.0643,9.0612,8.9792,9.0911,9.3969,9.1897,9.0261,8.9905,9.1734,9.3888,9.5372,9.8319,9.9599,10.0145,10.0568,10.0674,10.09,10.0956,10.0498,10.0667,10.0724,10.0505,10.0336,10.0336,10.0336,10.0336,10.0336,10.0336,10.0505,10.1225,10.1677,10.1959,10.0893,10.0721,10.1536,10.2267,10.3131,10.4688,10.5349,10.6902,10.8339,10.8383,10.9358,11.0894,11.0682,11.0648,10.97,10.8118,10.6718,10.4297,10.36,10.2469,10.2242,10.1653,10.1679,10.1736,10.1841,10.1841,10.1841,10.1841,10.1841,10.1841,10.1841,10.191,10.2082,10.2395,10.2903,10.3238,10.3536,10.38,7.1367,7.5692,7.793,7.9428,8.1158,8.3698,8.4579,8.4119,8.5874,8.6704,8.6844,8.7591,8.7871,8.8225,8.9657,9.0157,8.9944,9.1161,9.1563,9.1026,9.0245,8.9992,8.9992,8.9992,8.9992,8.9992,9.0001,9.2083,9.5824,9.5882,9.8251,10.2692,10.2889,10.2536,10.229,10.1335,10.0059,9.8866,9.7008,9.6064,9.5958,9.5044,9.4389,9.4389,9.4389,9.4389,9.4286,9.3423,9.3685,9.4833,9.4947,9.5046,9.5839,9.5621,9.6496,9.7998,9.8996,9.9539,10.0167,10.0167,10.0336,10.0449,10.1062,10.1119,10.0449,10.028,10.0336,10.0336,10.0223,10.0336,10.028,10.028,10.0336,10.028,10.1401,10.2185,10.2072,10.1119,10.1362,10.3446,10.4889,10.6705,10.8577,10.9918,11.1483,11.2198,11.2243,11.3123,11.3382,11.3268,11.2354,11.1582,11.095,10.9469,10.7565,10.6148,10.4925,10.3931,10.2901,10.242,10.1905,10.1841,10.1841,10.1841,10.1841,10.1841,10.1841,10.1841,10.1944,10.2052,10.2292,10.2802,10.3304,10.3635,10.3833,7.255,7.6662,7.8311,8.0465,8.2686,8.3679,8.4333,8.4601,8.5255,8.5816,8.6129,8.647,8.655,8.7006,8.8268,8.8916,8.8653,8.9502,8.9992,9.004,8.9992,8.9992,8.9992,8.9992,8.9992,9.006,9.0652,9.3497,9.7465,9.8288,10.0833,10.4458,10.5259,10.4822,10.4252,10.3205,10.2117,10.0674,9.9314,9.8672,9.8577,9.771,9.7219,9.7219,9.7055,9.766,9.8683,9.798,9.7764,9.8194,9.7409,9.7038,9.7218,9.6705,9.7113,9.8308,9.8143,9.8402,9.9087,9.9087,9.9031,9.9257,9.987,9.9983,9.9313,9.9087,9.9087,9.9087,9.9144,9.9144,9.9257,9.9482,9.9708,9.9765,10.0837,10.157,10.1451,10.1274,10.2745,10.5633,10.7633,10.9667,11.2041,11.3314,11.4153,11.4824,11.4053,11.4053,11.4556,11.3654,11.2431,11.2302,11.1594,11.0435,10.8595,10.705,10.5827,10.4797,10.3673,10.2901,10.2163,10.1841,10.1841,10.1841,10.1841,10.1841,10.1841,10.191,10.2014,10.2186,10.2395,10.2802,10.3271,10.3537,10.38,7.5675,7.8131,8.0597,8.1415,8.1772,8.2755,8.3679,8.4287,8.452,8.5022,8.5769,8.689,8.6984,8.7742,8.9277,9.0205,8.9251,8.9346,8.9543,8.9699,8.9855,8.9904,8.9855,8.9855,8.9855,8.9913,9.212,9.6714,10.2409,10.1737,10.3883,10.8648,10.8005,10.696,10.5626,10.4683,10.4018,10.3095,10.0727,10.0023,10.1391,9.9486,9.8309,9.8093,9.7714,9.9054,10.2348,10.2091,10.2081,10.2657,9.9283,9.5227,9.3438,9.4242,9.5153,9.5693,9.6224,9.667,9.6878,9.7047,9.7217,9.7104,9.6934,9.7329,9.7217,9.7047,9.7047,9.7104,9.7047,9.6878,9.7104,9.8007,9.8797,9.8797,10.0216,10.09,10.1027,10.1811,10.4325,10.8069,11.0186,11.19,11.372,11.471,11.5071,11.5457,11.4363,11.3654,11.5264,11.3847,11.256,11.234,11.1722,11.095,10.9469,10.7988,10.6728,10.5569,10.4253,10.2901,10.2163,10.1841,10.1841,10.1841,10.1841,10.1841,10.1841,10.1875,10.2014,10.2254,10.263,10.2903,10.3304,10.3668,10.3833,7.4087,7.7128,7.9562,8.0547,8.0743,8.1726,8.2334,8.2604,8.3316,8.3831,8.41,8.4474,8.4614,8.499,8.7011,8.7447,8.6549,8.7072,8.7405,8.7797,8.8586,8.8928,8.8928,8.8928,8.8928,8.9101,8.98,9.3244,9.8828,10.1546,10.463,10.8364,10.9644,10.9355,10.8103,10.6903,10.6067,10.5486,10.4155,10.3516,10.402,10.2733,10.1827,10.1776,10.173,10.212,10.2684,10.2791,10.2818,10.253,10.0527,9.827,9.6404,9.612,9.6398,9.7166,9.6899,9.6943,9.7781,9.7894,9.7499,9.6765,9.7329,9.7499,9.6708,9.6652,9.6652,9.6652,9.6652,9.6652,9.6878,9.7725,9.891,9.9821,10.1577,10.2812,10.2812,10.3252,10.4813,10.749,11.0568,11.3435,11.5424,11.5789,11.565,11.5135,11.4491,11.4041,11.4749,11.3525,11.2366,11.2302,11.1529,11.0859,10.9984,10.7988,10.6406,10.544,10.4317,10.2871,10.1905,10.1841,10.1841,10.1841,10.1841,10.1841,10.1841,10.1841,10.2014,10.219,10.2531,10.2903,10.3303,10.3701,10.3931,7.3575,7.5892,7.8346,7.9641,8.0126,8.079,8.1351,8.1679,8.2334,8.2848,8.3129,8.3176,8.3176,8.3234,8.4731,8.501,8.4541,8.5673,8.6385,8.6772,8.7463,8.7805,8.7805,8.7805,8.7805,8.809,8.9462,9.3305,9.8948,10.2477,10.512,10.722,10.9402,10.9812,10.8688,10.7783,10.7286,10.6784,10.6363,10.5934,10.5366,10.4577,10.3944,10.3629,10.3023,10.2732,10.2743,10.2652,10.2357,10.1862,10.0171,9.883,9.7838,9.621,9.5645,9.637,9.5758,9.5645,9.637,9.6539,9.6144,9.5466,9.6087,9.5975,9.5466,9.5297,9.5297,9.5241,9.5241,9.5297,9.5523,9.6426,9.7812,9.9595,10.156,10.3101,10.4355,10.5204,10.6161,10.8029,11.099,11.4065,11.5248,11.5844,11.5522,11.462,11.3976,11.3719,11.3461,11.2534,11.1465,11.1374,11.0859,11.0215,11.0215,10.8116,10.6342,10.544,10.4317,10.2936,10.1969,10.1841,10.1841,10.1841,10.1841,10.1841,10.1841,10.1841,10.1875,10.2151,10.2531,10.2869,10.3138,10.3635,10.3931,7.4253,7.4925,7.705,7.8854,8.0079,8.0126,8.0696,8.1492,8.1539,8.21,8.2848,8.2942,8.2989,8.2964,8.3088,8.3273,8.3593,8.5319,8.6221,8.639,8.6577,8.6626,8.6626,8.6626,8.6739,8.7363,9.0684,9.5677,10.1696,10.4307,10.58,10.6247,10.8133,10.8539,10.755,10.7385,10.7318,10.721,10.6987,10.6571,10.5476,10.474,10.3872,10.2988,10.1672,10.1399,10.2227,10.1959,10.142,10.0886,9.845,9.6898,9.6191,9.4112,9.2824,9.2869,9.2824,9.2926,9.3095,9.3265,9.3208,9.3039,9.3321,9.3039,9.3265,9.3265,9.3265,9.3039,9.2982,9.2869,9.3039,9.4122,9.5866,9.849,10.0083,10.2386,10.5465,10.6792,10.8717,11.0297,11.1803,11.3238,11.4307,11.4388,11.4298,11.3783,11.301,11.2238,11.2044,11.1181,11.0537,11.0408,11.0343,11.0215,10.9919,10.7951,10.6792,10.5698,10.4124,10.3094,10.242,10.1841,10.1841,10.1841,10.1841,10.1841,10.1841,10.1841,10.1841,10.2048,10.2494,10.2836,10.3104,10.3569,10.4095,7.4639,7.5653,7.6504,7.8119,8.0079,8.0079,8.0275,8.0509,8.0509,8.0696,8.093,8.093,8.0977,8.093,8.0931,8.146,8.223,8.2906,8.3611,8.448,8.5267,8.556,8.5609,8.556,8.6446,8.7986,8.9395,9.199,9.5991,10.0503,10.3156,10.3987,10.6433,10.7608,10.7367,10.7367,10.7367,10.7201,10.6329,10.5747,10.5117,10.3394,10.1768,10.0757,10.1013,10.1197,10.1169,10.0162,9.9223,9.8422,9.5938,9.4004,9.2598,9.1876,9.1131,9.0398,9.1075,9.1921,9.2869,9.2926,9.2926,9.2926,9.2926,9.2926,9.2926,9.2926,9.2926,9.2813,9.1289,9.0736,9.147,9.2655,9.4937,9.833,9.9888,10.2083,10.5395,10.6237,10.7501,10.943,11.0927,11.1919,11.313,11.3176,11.2598,11.1825,11.1143,11.0757,11.0692,11.0537,11.0215,11.0215,11.0215,10.9726,10.8659,10.6857,10.5118,10.4188,10.3416,10.242,10.2034,10.1841,10.1841,10.1841,10.1841,10.1841,10.1841,10.1841,10.1875,10.1979,10.2361,10.297,10.3503,10.3701,10.4289,7.3973,7.4714,7.4922,7.669,7.9202,7.9865,8.0079,8.0079,8.0079,8.0079,8.0079,8.0079,8.0079,8.0135,8.0312,8.0687,8.1235,8.146,8.1817,8.2236,8.2875,8.3412,8.3966,8.4725,8.6055,8.7743,8.9641,9.1387,9.3822,9.8055,10.1288,10.3061,10.5311,10.6794,10.7308,10.7367,10.7027,10.6503,10.5747,10.4875,10.3711,10.1734,10.057,10.035,10.057,10.0502,10.0108,9.8963,9.7718,9.6412,9.4993,9.3262,9.1399,9.1286,9.0688,8.9426,8.989,9.0623,9.1345,9.1865,9.2147,9.209,9.2598,9.2926,9.2926,9.2429,9.2372,9.2598,9.1627,9.1096,9.2055,9.2952,9.4878,9.8183,9.9694,10.1875,10.5789,10.6373,10.7228,10.9382,11.0216,11.0935,11.1644,11.1674,11.1143,11.0537,11.0279,11.0279,11.0279,11.0215,11.0215,11.0086,10.9147,10.8245,10.7307,10.5183,10.4153,10.3609,10.2707,10.1905,10.1841,10.1841,10.1841,10.1841,10.1841,10.1841,10.1841,10.1841,10.2121,10.2873,10.324,10.3734,10.4698,10.5206,10.5947,7.2453,7.2501,7.2884,7.4884,7.7891,7.9426,8.0079,8.0079,8.0079,8.0079,8.0088,7.9995,7.9892,8.0004,8.0316,8.0299,8.0183,8.068,8.0731,8.0428,8.0442,8.1137,8.2389,8.433,8.5923,8.7622,9.109,9.298,9.3812,9.6785,9.9828,10.2755,10.4467,10.5805,10.7018,10.725,10.662,10.5398,10.4875,10.3479,10.1036,9.9768,9.9756,10.0919,9.9756,9.9187,9.9071,9.7966,9.6523,9.5082,9.4661,9.3732,9.1907,9.166,9.0928,8.94,8.93,8.9256,8.9269,9.0228,9.0804,9.0917,9.1978,9.2655,9.2644,9.1887,9.192,9.2995,9.3369,9.3682,9.4077,9.4637,9.6347,9.9415,10.0122,10.178,10.6069,10.6985,10.7708,10.978,10.9619,10.9855,11.0,11.0075,11.0086,11.015,11.0215,11.015,10.9892,10.9791,10.9791,10.9276,10.7601,10.5955,10.5633,10.4539,10.3609,10.3416,10.2579,10.2034,10.1841,10.1841,10.1841,10.1841,10.1841,10.1841,10.1841,10.1944,10.2395,10.3107,10.3734,10.4603,10.6327,10.7075,10.791,7.0583,7.0697,7.1629,7.3472,7.597,7.8868,8.0079,8.0079,8.0032,8.0079,7.9939,7.9238,7.8919,7.8825,7.8573,7.8693,7.9138,7.9621,7.9955,8.0438,8.1946,8.2815,8.3272,8.5095,8.7088,8.9118,9.1012,9.2992,9.5054,9.7138,9.8778,9.9969,10.2581,10.4467,10.5805,10.6794,10.662,10.5224,10.1396,9.8593,9.7183,9.6834,9.6776,9.7066,9.6834,9.6659,9.6601,9.5437,9.4362,9.358,9.2613,9.1677,9.093,9.0872,9.0542,8.978,8.968,8.9549,8.93,8.9482,8.9608,8.9664,9.0692,9.1425,9.1616,9.3276,9.4735,9.5085,9.6104,9.6989,9.7185,9.7913,9.9573,10.228,10.2823,10.4347,10.7658,10.7558,10.7388,10.8189,10.7565,10.75,10.8273,10.853,10.8981,10.9892,11.0215,10.9726,10.8825,10.853,10.8015,10.6985,10.544,10.4346,10.4217,10.3223,10.2485,10.2291,10.2034,10.1905,10.1841,10.1841,10.1875,10.2014,10.1944,10.2014,10.191,10.2082,10.2429,10.2871,10.3438,10.4157,10.566,10.6929,10.8275,6.9564,7.0016,7.0108,7.1835,7.4434,7.6254,7.7971,7.9285,7.8396,7.8209,7.8537,7.7602,7.7368,7.7796,7.7772,7.7786,7.7985,7.8513,7.9312,8.025,8.1356,8.2656,8.4106,8.6109,8.7958,8.9694,9.1352,9.2857,9.4264,9.5725,9.71,9.8629,10.1175,10.3769,10.598,10.5165,10.4293,10.3537,9.9116,9.615,9.4972,9.439,9.404,9.404,9.3458,9.3125,9.3168,9.1945,9.0831,8.996,8.9223,8.8942,8.9103,8.916,8.9195,8.93,8.9871,8.9557,8.8161,8.8573,8.8971,8.9028,9.113,9.1767,9.0064,9.1949,9.3551,9.4309,9.5798,9.7065,9.8013,9.9918,10.1711,10.351,10.4352,10.5804,10.7963,10.7832,10.7891,10.8778,10.8374,10.8245,10.8954,10.8466,10.8466,10.8954,10.8567,10.7988,10.7243,10.6744,10.6043,10.5126,10.3908,10.317,10.2936,10.2291,10.1905,10.1841,10.1841,10.1841,10.1841,10.1841,10.2155,10.2737,10.2907,10.3005,10.3206,10.3305,10.3471,10.357,10.3995,10.5077,10.6625,10.7796,10.8559,6.8403,6.9309,6.8624,7.0205,7.3295,7.346,7.5363,7.8116,7.5965,7.5591,7.648,7.5398,7.5591,7.6687,7.6977,7.7189,7.7355,7.7612,7.8753,8.0463,8.0512,8.2087,8.4939,8.7211,8.8684,8.971,9.1663,9.2689,9.2972,9.3808,9.5448,9.7789,9.9737,10.249,10.5631,10.3071,10.121,10.0628,9.7125,9.4739,9.359,9.2543,9.1903,9.1755,9.0723,9.0025,8.9792,8.8552,8.7388,8.6164,8.5931,8.618,8.696,8.6844,8.7006,8.7647,8.8522,8.8236,8.6319,8.7236,8.7939,8.8496,9.1532,9.2036,8.8661,8.9967,9.1722,9.3068,9.4972,9.6423,9.8084,10.0949,10.2935,10.3477,10.4924,10.637,10.7491,10.7657,10.8043,10.9147,10.9597,10.9404,10.9469,10.8723,10.8208,10.8208,10.7758,10.647,10.6414,10.5382,10.4683,10.4178,10.3478,10.2901,10.3185,10.2659,10.2852,10.2525,10.2788,10.3021,10.3125,10.3,10.3257,10.4323,10.4416,10.4476,10.473,10.5018,10.5006,10.4792,10.4946,10.569,10.7588,10.8155,10.81,6.5612,6.6515,6.7348,6.9489,7.243,7.3239,7.5016,7.7041,7.4142,0.0,0.0,7.3301,7.3697,7.495,7.4255,7.5728,7.8709,7.736,7.8857,8.2615,8.2663,8.3802,8.5907,8.8019,8.9122,8.9346,9.067,9.1759,9.266,9.3721,9.4957,9.6175,9.6673,9.823,10.0745,10.1268,9.993,9.6834,9.4056,9.2485,9.2311,9.2078,9.1563,9.0844,9.0611,8.9909,8.8937,8.765,8.6674,8.6145,8.5117,8.4613,8.471,8.3858,8.3163,8.2834,8.2086,8.2162,8.3376,8.3719,8.4749,8.6892,8.8668,8.8634,8.6245,9.149,9.5003,9.5206,9.7876,9.9639,10.0032,10.2181,10.3588,10.3724,10.5103,10.602,10.6277,10.6342,10.6406,10.6599,10.6857,10.7114,10.8337,10.8208,10.8466,10.934,10.8374,10.7693,10.7638,10.7019,10.6536,10.64,10.6185,10.6185,10.6146,10.6085,10.6035,10.5741,10.5911,10.6315,10.6432,10.5857,10.564,10.6191,10.5872,10.5481,10.5568,10.6042,10.6219,10.5098,10.5059,10.5441,10.555,10.5594,10.5907,6.4581,6.5071,6.567,6.7089,0.0,7.0163,7.1665,7.3182,7.0932,7.0543,7.1528,7.1211,7.2333,7.4425,7.4481,7.6473,7.9831,7.9162,8.0949,8.4572,8.4671,8.5727,8.7775,8.8761,8.9256,8.9256,8.9833,9.038,9.0864,9.1872,9.3329,9.517,9.5625,9.6426,9.7662,9.9523,9.8302,9.3924,9.1962,9.0931,9.0931,9.0598,9.0143,8.9761,8.9903,0.0,0.0,0.0,0.0,0.0,0.0,0.0,0.0,8.1841,0.0,7.9091,7.7345,7.6302,7.6032,7.6775,7.8331,8.0841,8.1803,8.1638,8.0346,8.4843,8.87,9.0997,9.3229,9.547,9.7746,10.0213,10.1776,10.1806,10.3029,10.4188,10.4732,10.4861,10.5118,10.5827,10.6599,10.7243,10.8015,10.808,10.8401,10.8954,10.807,10.7212,10.7349,10.7781,10.7918,10.7476,10.7868,10.8312,10.8277,10.8682,10.9079,10.8815,10.835,10.8115,10.8275,10.6472,10.544,10.646,10.5775,10.5011,10.5248,10.5583,10.5516,10.4278,10.4086,10.4405,10.5564,10.5073,10.4778,6.3649,6.3885,6.4229,6.5072,6.6169,6.7163,6.8068,6.8835,6.8154,6.8303,6.9154,6.977,7.1719,7.4494,7.5298,7.7583,8.0842,8.0789,8.2644,8.5975,8.5616,8.6565,8.8479,8.8522,8.8479,8.8479,8.8479,8.8722,8.9122,8.9857,9.1476,9.3979,9.4739,9.5204,9.5553,0.0,0.0,0.0,9.0757,9.0391,9.0474,8.9851,8.9529,8.9436,8.9754,0.0,8.9498,8.877,8.7652,8.6283,8.4299,0.0,0.0,0.0,0.0,0.0,0.0,0.0,0.0,0.0,0.0,0.0,7.3462,7.3682,7.4555,7.7389,8.1037,8.5423,8.7221,8.9567,9.3114,9.5946,9.7782,9.8104,9.965,10.1162,10.2415,10.2901,10.3609,10.499,10.6406,10.7307,10.7565,10.7951,10.808,10.819,10.7708,10.7313,10.7262,10.8823,10.9535,10.884,10.9571,11.001,10.9578,11.049,11.1059,11.0794,10.994,10.9543,10.9369,10.7132,10.5669,10.7326,10.6096,10.5206,10.5854,10.5919,10.5992,10.4358,10.4224,10.4548,10.5929,10.5439,10.4829,6.1183,6.2115,6.3801,6.5109,6.6177,6.6816,6.6574,6.583,6.7715,6.8551,6.8792,6.9863,7.2299,7.5571,7.5302,7.7683,8.1917,7.985,8.1298,8.5389,8.3731,8.3991,8.5996,8.594,8.6038,8.5996,8.5996,8.6928,8.8656,8.884,8.9993,9.2157,9.2385,9.3051,9.4099,9.3299,9.2036,9.0292,9.1164,9.1838,9.2172,9.208,9.1905,9.1552,9.1612,9.1117,8.9989,8.7715,8.5725,8.4052,8.1271,7.9237,7.8031,7.3108,6.9165,0.0,6.2457,0.0,0.0,0.0,0.0,0.0,0.0,0.0,0.0,7.4974,7.8179,8.2768,8.4452,8.5537,8.61,8.8734,9.089,9.2147,9.4658,9.6815,9.8231,9.9488,10.081,10.2227,10.3545,10.4861,10.5891,10.7371,10.8227,10.8391,10.8997,10.9295,10.9535,11.0619,11.1592,11.1982,11.2127,11.1197,11.0503,11.1172,11.1485,11.0219,11.0481,11.1609,11.1585,10.9392,10.8373,10.9981,10.8386,10.7603,10.9398,10.9732,10.9535,10.763,10.7371,10.6862,10.544,10.5533,10.6378,5.9805,6.0967,6.2467,6.3379,6.3879,6.4107,6.4679,6.544,6.6218,6.766,6.9503,6.97,7.1747,7.5048,7.5872,7.7945,8.0898,8.0587,8.1464,8.3416,8.2535,8.2912,8.4458,8.4458,8.4811,8.5488,8.5545,8.6107,8.7231,8.7439,8.8585,9.0539,9.0748,9.0881,9.0913,9.0388,9.044,9.1089,9.0973,9.0714,9.0364,9.0851,9.1056,9.086,9.1036,9.0915,9.0319,8.83,8.6825,8.6043,8.2946,7.9696,7.6407,7.1219,6.5885,0.0,0.0,0.0,0.0,0.0,0.0,0.0,0.0,0.0,0.0,0.0,7.2708,7.6275,8.0832,8.291,8.1458,8.384,8.545,8.5257,8.7095,8.8897,9.0313,9.3336,9.5464,9.5914,9.9334,10.1695,10.1631,10.4149,10.6164,10.6584,10.6371,10.6495,10.7425,10.8446,10.917,10.917,10.9427,10.9636,10.9798,11.0823,11.1321,11.0604,11.0288,10.9983,10.9255,10.6837,10.4898,10.4958,10.3449,10.2397,10.3029,10.408,10.4618,10.4077,10.4429,10.5181,10.5603,10.5533,10.6096,5.9098,6.0043,6.0943,6.1659,6.2125,6.2684,6.406,6.5781,6.5729,6.7219,6.9731,6.9925,7.1052,7.3005,7.4587,7.6163,7.7758,7.9281,8.0184,8.0523,8.0748,8.1369,8.2215,8.2215,8.2949,8.4078,8.3975,8.4546,8.581,8.5591,8.6653,8.8644,8.8221,8.7727,8.7182,8.7339,8.8568,9.0814,9.0008,8.9257,8.8706,8.9538,9.0047,9.0124,9.0435,9.041,9.0111,8.8572,8.743,8.6775,8.3077,7.8885,7.428,6.8483,0.0,0.0,0.0,0.0,0.0,0.0,0.0,0.0,0.0,5.4964,5.6876,0.0,6.5928,0.0,7.5559,7.9204,7.8136,7.9268,0.0,0.0,7.9709,8.074,8.2333,8.6208,8.9045,8.9358,9.4005,9.7048,9.6595,10.0064,10.2635,10.2912,10.2599,10.2897,10.4088,10.5263,10.6024,10.5665,10.5921,10.6561,10.7438,10.8586,10.9195,10.9622,10.893,10.7997,10.6941,10.4477,10.2365,10.152,9.9852,9.9007,9.9901,9.9852,10.0134,9.8986,10.0204,10.2224,10.4547,10.4759,10.504,5.893,5.901,5.9511,6.0605,6.2394,6.4593,6.5822,6.6373,6.7441,6.8114,6.8512,7.0648,7.0431,6.8585,6.9437,0.0,7.1438,7.3808,7.5501,7.6686,7.7758,7.8266,7.8378,7.8378,7.9056,8.0353,7.9461,8.1138,8.4813,8.3044,8.3684,8.6752,8.385,8.2513,8.2981,8.3615,8.5172,8.7632,8.8057,8.8324,8.8647,8.9577,9.0163,9.0491,9.059,8.9991,8.8832,8.7478,8.5706,8.3219,7.8417,7.3839,6.9618,0.0,0.0,0.0,0.0,0.0,0.0,0.0,0.0,0.0,0.0,0.0,0.0,0.0,0.0,6.2074,6.7659,0.0,7.6229,7.4374,0.0,0.0,0.0,7.3831,7.558,7.8596,8.1452,8.4043,0.0,0.0,9.214,9.5314,9.7308,9.713,10.0193,10.19,10.0429,10.2804,10.4495,10.2707,10.2781,10.2978,10.3175,10.3298,10.3792,10.487,10.6153,10.6495,10.6143,10.4829,10.4759,10.5017,10.3562,10.2154,10.5322,10.2787,10.0534,9.6289,9.7789,9.9923,10.0486,10.2365,10.4125,5.6299,5.5494,5.5854,5.69,5.8382,5.9185,6.1394,6.4448,6.5292,6.6073,6.679,6.7459,6.6318,6.3895,6.2679,0.0,0.0,0.0,6.944,7.0613,7.2531,7.4316,7.5726,7.6516,7.7532,7.8699,7.8592,7.9923,8.2521,8.1932,8.0279,7.7438,0.0,7.4912,7.7646,8.046,8.3147,8.5623,8.8436,8.9425,8.8355,8.8744,8.8697,8.8234,8.7456,8.6797,8.6258,8.4283,8.1693,7.8575,7.406,6.8462,0.0,0.0,0.0,0.0,0.0,0.0,0.0,0.0,0.0,0.0,0.0,4.5981,4.6714,0.0,0.0,0.0,5.7148,5.9866,6.5843,6.8608,0.0,0.0,0.0,0.0,0.0,0.0,0.0,7.628,8.2817,8.7659,8.8718,8.9429,9.018,9.1215,9.2803,9.4013,9.4528,0.0,9.7489,9.8682,9.7592,9.7276,9.9152,9.7902,9.7232,9.8692,10.0148,10.0746,9.9879,9.9175,9.8682,9.826,9.7274,9.6803,9.8049,9.7274,9.5958,9.5233,9.5304,9.6169,9.8021,9.9267,10.0746,5.3035,0.0,0.0,0.0,0.0,5.4558,5.7079,6.0901,6.1693,6.2265,6.2682,6.2336,0.0,0.0,0.0,0.0,0.0,0.0,6.4472,6.5424,6.9688,7.2002,7.2771,7.3977,7.4993,7.582,7.5583,7.6498,7.8391,7.6935,7.3416,6.8206,0.0,0.0,0.0,0.0,8.066,8.397,8.8072,8.9737,8.8738,8.839,8.7903,8.7313,8.5614,8.4558,8.4166,8.106,7.788,7.4616,6.9317,0.0,0.0,0.0,0.0,0.0,0.0,0.0,0.0,0.0,0.0,0.0,0.0,0.0,0.0,0.0,0.0,0.0,0.0,0.0,5.7506,6.2571,6.4238,0.0,0.0,0.0,0.0,0.0,0.0,0.0,0.0,0.0,8.3197,8.4095,8.5442,0.0,0.0,8.9079,8.9943,9.0952,9.2109,9.3816,9.2522,0.0,9.3796,9.2509,9.1945,9.3474,9.5043,9.5817,9.5163,9.4318,9.3474,9.2981,9.2699,9.2066,9.0608,9.0044,9.0447,9.1292,9.0799,9.0889,9.2881,9.3796,9.4782,0.0,0.0,0.0,0.0,0.0,0.0,0.0,0.0,5.6815,5.6731,0.0,5.5473,0.0,0.0,0.0,0.0,5.131,5.8037,0.0,0.0,6.9914,7.2263,6.9192,7.014,7.0761,7.0682,6.9058,6.9611,7.176,6.6032,0.0,0.0,0.0,0.0,0.0,0.0,7.7223,8.2351,8.6152,8.8616,9.0146,8.8941,8.8439,8.866,8.6129,8.415,8.2761,7.8206,7.4526,7.1799,6.4089,0.0,0.0,0.0,0.0,0.0,0.0,0.0,0.0,0.0,0.0,0.0,0.0,0.0,0.0,0.0,0.0,0.0,0.0,0.0,0.0,5.6337,0.0,0.0,0.0,0.0,0.0,0.0,0.0,0.0,0.0,7.4434,7.4673,7.985,8.4434,8.5945,0.0,0.0,0.0,0.0,8.9804,8.8321,8.8077,8.7721,8.6473,8.7299,8.8707,9.0256,0.0,0.0,9.472,9.2488,9.0799,9.2347,9.2277,9.0799,8.4713,8.3656,8.3727,8.3797,8.3797,8.3727,8.3938,8.5346,8.6684,0.0,0.0,0.0,0.0,0.0,0.0,0.0,0.0,0.0,5.2402,0.0,5.1208,0.0,0.0,0.0,0.0,0.0,0.0,0.0,0.0,6.1335,6.3942,6.4183,6.4706,6.4933,0.0,6.3812,6.1661,0.0,0.0,0.0,0.0,0.0,0.0,0.0,0.0,7.672,8.0772,8.8356,9.1854,9.0828,9.028,8.9674,8.8875,8.6998,8.3547,7.8411,7.2909,6.7642,0.0,0.0,0.0,0.0,0.0,0.0,0.0,0.0,0.0,0.0,0.0,0.0,0.0,0.0,0.0,0.0,0.0,0.0,0.0,0.0,0.0,0.0,0.0,5.6696,0.0,0.0,0.0,0.0,0.0,0.0,0.0,0.0,0.0,6.8184,7.3428,7.8291,8.0933,8.2857,8.422,8.4768,0.0,0.0,0.0,0.0,0.0,0.0,0.0,8.369,8.4183,8.4746,8.529,8.5853,8.4183,8.3338,8.4886,0.0,0.0,7.7037,7.6685,7.7477,7.7389,7.7389,7.7758,7.8727,7.9361,8.0188,0.0,0.0,0.0,0.0,0.0,0.0,0.0,0.0,0.0,4.8247,4.787,0.0,0.0,0.0,0.0,0.0,0.0,0.0,0.0,0.0,0.0,0.0,5.8202,5.8825,0.0,0.0,0.0,0.0,0.0,0.0,0.0,0.0,0.0,0.0,0.0,0.0,7.5555,7.9328,8.8154,9.2227,9.1034,9.0515,8.9815,8.8836,8.7944,8.4047,7.6792,0.0,0.0,0.0,0.0,0.0,0.0,0.0,0.0,0.0,0.0,0.0,0.0,0.0,0.0,0.0,0.0,0.0,0.0,0.0,0.0,0.0,0.0,0.0,0.0,0.0,5.3828,0.0,0.0,0.0,0.0,0.0,0.0,0.0,0.0,0.0,0.0,0.0,7.2213,7.5947,7.8605,8.0767,8.2423,8.3023,8.4079,0.0,0.0,0.0,0.0,0.0,0.0,0.0,0.0,0.0,0.0,0.0,0.0,0.0,0.0,7.2162,6.8672,6.8869,6.9588,6.9634,0.0,0.0,0.0,0.0,0.0,0.0,0.0,0.0,0.0,0.0,0.0,0.0,0.0,0.0,0.0,4.2777,0.0,0.0,3.8485,0.0,0.0,0.0,0.0,0.0,0.0,0.0,0.0,0.0,0.0,0.0,0.0,0.0,0.0,0.0,0.0,0.0,0.0,0.0,0.0,0.0,0.0,7.3649,7.7989,8.5306,8.9623,9.0895,8.9588,8.8829,8.8798,8.8683,8.5278,7.8107,0.0,0.0,0.0,0.0,0.0,0.0,0.0,0.0,0.0,0.0,0.0,0.0,0.0,0.0,0.0,0.0,0.0,0.0,0.0,0.0,0.0,0.0,0.0,0.0,0.0,0.0,5.2544,5.6294,5.7792,0.0,0.0,0.0,0.0,0.0,0.0,0.0,0.0,0.0,7.1278,7.5769,7.9185,8.0734,8.23,8.3182,8.3322,8.3539,8.3152,8.1669,8.1457,8.1457,0.0,0.0,0.0,0.0,0.0,0.0,0.0,0.0,0.0,0.0,0.0,0.0,0.0,0.0,0.0,0.0,0.0,0.0,0.0,0.0,0.0,0.0,0.0,0.0,0.0,0.0,0.0,0.0,0.0,0.0,0.0,0.0,0.0,0.0,0.0,0.0,0.0,0.0,0.0,0.0,0.0,0.0,0.0,0.0,0.0,0.0,0.0,0.0,0.0,0.0,0.0,0.0,0.0,0.0,7.3607,7.7973,8.6116,9.0598,9.0944,8.9587,8.8798,8.8732,8.5822,8.1257,0.0,0.0,0.0,0.0,0.0,0.0,0.0,0.0,0.0,0.0,0.0,0.0,0.0,0.0,0.0,0.0,0.0,0.0,0.0,0.0,0.0,0.0,0.0,0.0,0.0,0.0,0.0,0.0,5.8137,6.0298,5.7099,0.0,0.0,0.0,0.0,0.0,0.0,0.0,0.0,0.0,0.0,7.5088,7.7817,7.9479,8.0363,8.0466,8.1508,8.1755,8.0215,8.0869,8.0886,7.8674,0.0,0.0,0.0,0.0,0.0,0.0,0.0,0.0,0.0,0.0,0.0,0.0,0.0,0.0,0.0,0.0,0.0,0.0,0.0,0.0,0.0,0.0,0.0,0.0,0.0,0.0,0.0,0.0,0.0,0.0,0.0,0.0,0.0,0.0,0.0,0.0,0.0,0.0,0.0,0.0,0.0,0.0,0.0,0.0,0.0,0.0,0.0,0.0,0.0,0.0,0.0,0.0,0.0,7.2554,7.628,8.4921,8.9328,8.9328,8.8473,8.7722,8.7102,8.3973,7.8901,0.0,0.0,0.0,0.0,0.0,0.0,0.0,0.0,0.0,0.0,0.0,0.0,0.0,0.0,0.0,0.0,0.0,0.0,0.0,0.0,0.0,0.0,0.0,0.0,0.0,0.0,0.0,0.0,5.5597,5.8475,5.7626,0.0,0.0,0.0,0.0,0.0,0.0,0.0,0.0,0.0,0.0,7.2491,7.5645,7.7862,0.0,0.0,8.0137,8.0454,7.9477,8.0771,8.0487,7.6726,7.3976,0.0,0.0,0.0,0.0,0.0,0.0,0.0,0.0,0.0,0.0,0.0,0.0,0.0,0.0,0.0,0.0,0.0,0.0,0.0,0.0,0.0,0.0,0.0,0.0,0.0,0.0,0.0,0.0,0.0,0.0,0.0,0.0,0.0,0.0,0.0,0.0,0.0,0.0,0.0,0.0,0.0,0.0,0.0,0.0,0.0,0.0,0.0,0.0,0.0,0.0,0.0,0.0,7.0602,7.3823,8.2158,8.6565,8.65,8.6565,8.5776,8.4276,8.2658,7.7792,0.0,0.0,0.0,0.0,0.0,0.0,0.0,0.0,0.0,0.0,0.0,0.0,0.0,0.0,0.0,0.0,0.0,0.0,0.0,0.0,0.0,0.0,0.0,0.0,0.0,0.0,0.0,0.0,0.0,0.0,0.0,0.0,0.0,0.0,0.0,0.0,0.0,0.0,0.0,0.0,0.0,7.0858,7.3936,7.6897,7.8827,0.0,7.9062,7.9231,7.9231,8.0582,8.0155,7.5461,0.0,0.0,0.0,0.0,0.0,0.0,0.0,0.0,0.0,0.0,0.0,0.0,0.0,0.0,0.0,0.0,0.0,0.0,0.0,0.0,0.0,0.0,0.0,0.0,0.0,0.0,0.0,0.0,0.0,0.0,0.0,0.0,0.0,0.0,0.0,0.0,0.0,0.0,0.0,0.0,0.0,0.0,0.0,0.0,0.0,0.0,0.0,0.0,0.0,0.0,0.0,0.0,0.0,0.0,7.3715,8.112,8.4933,8.496,8.4933,8.421,8.2724,7.933,0.0,0.0,0.0,0.0,0.0,0.0,0.0,0.0,0.0,0.0,0.0,0.0,0.0,0.0,0.0,0.0,0.0,0.0,0.0,0.0,0.0,0.0,0.0,0.0,0.0,0.0,0.0,3.9943,0.0,0.0,0.0,0.0,0.0,0.0,0.0,0.0,0.0,0.0,0.0,0.0,0.0,0.0,6.7867,7.1138,7.3099,7.4278,0.0,0.0,7.6286,7.6271,7.764,7.7427,0.0,0.0,0.0,0.0,0.0,0.0,0.0,0.0,0.0,0.0,0.0,0.0,0.0,0.0,0.0,0.0,0.0,0.0,0.0,0.0,0.0,0.0,0.0,0.0,0.0,0.0,0.0,0.0,0.0,0.0,0.0,0.0,0.0,0.0,0.0,0.0,0.0,0.0,0.0,0.0,0.0,0.0,0.0,0.0,0.0,0.0,0.0,0.0,0.0,0.0,0.0,0.0,0.0,0.0,6.8323,7.2795,7.9148,8.2829,8.3382,8.3421,8.2724,8.1343,7.7726,7.2817,0.0,0.0,0.0,0.0,0.0,0.0,0.0,0.0,0.0,0.0,0.0,0.0,0.0,0.0,0.0,0.0,0.0,0.0,0.0,0.0,0.0,0.0,0.0,0.0,0.0,0.0,0.0,0.0,0.0,0.0,0.0,0.0,0.0,0.0,0.0,0.0,0.0,0.0,0.0,0.0,0.0,0.0,6.9113,7.0682,0.0,0.0,0.0,7.4206,7.4221,0.0,0.0,0.0,0.0,0.0,0.0,0.0,0.0,0.0,0.0,0.0,0.0,0.0,0.0,0.0,0.0,0.0,0.0,0.0,0.0,0.0,0.0,0.0,0.0,0.0,0.0,0.0,0.0,0.0,0.0,0.0,0.0,0.0,0.0,0.0,0.0,0.0,0.0,0.0,0.0,0.0,0.0,0.0,0.0,0.0,0.0,0.0,0.0,0.0,0.0,0.0,0.0,0.0,0.0,0.0,0.0,0.0,7.1502,7.7003,8.0554,8.1895,8.2001,8.1369,8.0094,7.7463,7.2686,0.0,0.0,0.0,0.0,0.0,0.0,0.0,0.0,0.0,0.0,0.0,0.0,0.0,0.0,0.0,0.0,0.0,0.0,0.0,0.0,0.0,0.0,0.0,0.0,0.0,0.0,0.0,0.0,0.0,0.0,0.0,0.0,0.0,0.0,0.0,0.0,0.0,0.0,0.0,0.0,0.0,6.5988,6.7544,6.9055,6.9925,0.0,0.0,7.208,7.2094,7.2023,0.0,0.0,0.0,0.0,0.0,0.0,0.0,0.0,0.0,0.0,0.0,0.0,0.0,0.0,0.0,0.0,0.0,0.0,0.0,0.0,0.0,0.0,0.0,0.0,0.0,0.0,0.0,0.0,0.0,0.0,0.0,0.0,0.0,0.0,0.0,0.0,0.0,0.0,0.0,0.0,0.0,0.0,0.0,0.0,0.0,0.0,0.0,0.0,0.0,0.0,0.0,0.0,0.0,0.0,0.0,0.0,7.1459,7.6017,7.9082,8.0423,8.0554,8.0423,8.0094,7.8425,7.411,0.0,0.0,0.0,0.0,0.0,0.0,0.0,0.0,0.0,0.0,0.0,0.0,0.0,0.0,0.0,0.0,0.0,0.0,0.0,0.0,0.0,0.0,0.0,0.0,0.0,0.0,0.0,0.0,0.0,0.0,0.0,0.0,0.0,0.0,0.0,0.0,0.0,0.0,0.0,0.0,0.0,6.4418,6.6001,6.6487,0.0,0.0,0.0,0.0,6.7156,6.7142,0.0,0.0,0.0,0.0,0.0,0.0,0.0,0.0,0.0,0.0,0.0,0.0,0.0,0.0,0.0,0.0,0.0,0.0,0.0,0.0,0.0,0.0,0.0,0.0,0.0,0.0,0.0,0.0,0.0,0.0,0.0,0.0,0.0,0.0,0.0,0.0,0.0,0.0,0.0,0.0,0.0,0.0,0.0,0.0,0.0,0.0,0.0,0.0,0.0,0.0,0.0,0.0,0.0,0.0,0.0,0.0,7.1327,7.4439,7.7242,7.9962,7.9436,7.9395,8.0028,7.7373,7.3123,0.0,0.0,0.0,0.0,0.0,0.0,0.0,0.0,0.0,0.0,0.0,0.0,0.0,0.0,0.0,0.0,0.0,0.0,0.0,0.0,0.0,0.0,0.0,0.0,0.0,0.0,0.0,0.0,0.0,0.0,0.0,0.0,0.0,0.0,0.0,0.0,0.0,0.0,0.0,0.0,6.1304,6.2576,6.3302,0.0,0.0,0.0,0.0,0.0,0.0,6.4444,6.3432,0.0,0.0,0.0,0.0,0.0,0.0,0.0,0.0,0.0,0.0,0.0,0.0,0.0,0.0,0.0,0.0,0.0,0.0,0.0,0.0,0.0,0.0,0.0,0.0,0.0,0.0,0.0,0.0,0.0,0.0,0.0,0.0,0.0,0.0,0.0,0.0,0.0,0.0,0.0,0.0,0.0,0.0,0.0,0.0,0.0,0.0,0.0,0.0,0.0,0.0,0.0,0.0,0.0,0.0,0.0,7.034,7.2597,7.5598,7.9633,7.9001,7.9198,8.0291,7.674,7.2334,6.7226,0.0,0.0,0.0,0.0,0.0,0.0,0.0,0.0,0.0,0.0,0.0,0.0,0.0,0.0,0.0,0.0,0.0,0.0,0.0,0.0,0.0,0.0,0.0,0.0,0.0,0.0,0.0,0.0,0.0,0.0,0.0,0.0,0.0,0.0,0.0,0.0,0.0,0.0,0.0,5.9365,6.0661,0.0,0.0,0.0,0.0,0.0,0.0,0.0,0.0,6.1089,0.0,0.0,0.0,0.0,0.0,0.0,0.0,0.0,0.0,0.0,0.0,0.0,0.0,0.0,0.0,0.0,0.0,0.0,0.0,0.0,0.0,0.0,0.0,0.0,0.0,0.0,0.0,0.0,0.0,0.0,0.0,0.0,0.0,0.0,0.0,0.0,0.0,0.0,0.0,0.0,0.0,0.0,0.0,0.0,0.0,0.0,0.0,0.0,0.0,0.0,0.0,0.0,0.0,0.0,0.0,0.0,7.1062,7.5162,7.8211,8.0448,8.1698,8.1829,8.0094,7.5293,6.7292,0.0,0.0,0.0,0.0,0.0,0.0,0.0,0.0,0.0,0.0,0.0,0.0,0.0,0.0,0.0,0.0,0.0,0.0,0.0,0.0,0.0,0.0,0.0,0.0,0.0,0.0,0.0,0.0,0.0,0.0,0.0,0.0,0.0,0.0,0.0,0.0,0.0,0.0,5.2719,5.6428,0.0,0.0,0.0,0.0,0.0,0.0,0.0,0.0,5.9365,0.0,0.0,0.0,0.0,0.0,0.0,0.0,0.0,0.0,0.0,0.0,0.0,0.0,0.0,0.0,0.0,0.0,0.0,0.0,0.0,0.0,0.0,0.0,0.0,0.0,0.0,0.0,0.0,0.0,0.0,0.0,0.0,0.0,0.0,0.0,0.0,0.0,0.0,0.0,0.0,0.0,0.0,0.0,0.0,0.0,0.0,0.0,0.0,0.0,0.0,0.0,0.0,0.0,0.0,0.0,0.0,0.0,0.0,7.4307,7.7858,7.9264,8.0316,8.0949,7.8228,7.3321,0.0,0.0,0.0,0.0,0.0,0.0,0.0,0.0,0.0,0.0,0.0,0.0,0.0,0.0,0.0,0.0,0.0,0.0,0.0,0.0,0.0,0.0,0.0,0.0,0.0,0.0,0.0,0.0,0.0,0.0,0.0,0.0,0.0,0.0,0.0,0.0,0.0,0.0,0.0,0.0,0.0,0.0,0.0,0.0,0.0,0.0,0.0,0.0,0.0,0.0,0.0,0.0,0.0,0.0,0.0,0.0,0.0,0.0,0.0,0.0,0.0,0.0,0.0,0.0,0.0,0.0,0.0,0.0,0.0,0.0,0.0,0.0,0.0,0.0,0.0,0.0,0.0,0.0,0.0,0.0,0.0,0.0,0.0,0.0,0.0,0.0,0.0,0.0,0.0,0.0,0.0,0.0,0.0,0.0,0.0,0.0,0.0,0.0,0.0,0.0,0.0,0.0,0.0,0.0,0.0,0.0,0.0,0.0,7.3475,7.7373,7.8409,7.9264,8.0003,7.527,7.0076,0.0,0.0,0.0,0.0,0.0,0.0,0.0,0.0,0.0,0.0,0.0,0.0,0.0,0.0,0.0,0.0,0.0,0.0,0.0,0.0,0.0,0.0,0.0,0.0,0.0,0.0,0.0,0.0,0.0,0.0,0.0,0.0,0.0,0.0,0.0,0.0,0.0,0.0,0.0,0.0,0.0,0.0,0.0,0.0,0.0,0.0,0.0,0.0,5.7998,0.0,0.0,0.0,0.0,0.0,0.0,0.0,0.0,0.0,0.0,0.0,0.0,0.0,0.0,0.0,0.0,0.0,0.0,0.0,0.0,0.0,0.0,0.0,0.0,0.0,0.0,0.0,0.0,0.0,0.0,0.0,0.0,0.0,0.0,0.0,0.0,0.0,0.0,0.0,0.0,0.0,0.0,0.0,0.0,0.0,0.0,0.0,0.0,0.0,0.0,0.0,0.0,0.0,0.0,0.0,0.0,0.0,0.0,0.0,7.2949,7.5975,7.9765,8.1212,7.9937,7.3298,6.7578,0.0,0.0,0.0,0.0,0.0,0.0,0.0,0.0,0.0,0.0,0.0,0.0,0.0,0.0,0.0,0.0,0.0,0.0,0.0,0.0,0.0,0.0,0.0,0.0,0.0,0.0,0.0,0.0,0.0,0.0,0.0,0.0,0.0,0.0,0.0,0.0,0.0,0.0,0.0,0.0,0.0,0.0,0.0,0.0,0.0,0.0,0.0,0.0,0.0,0.0,0.0,0.0,0.0,0.0,0.0,0.0,0.0,0.0,0.0,0.0,0.0,0.0,0.0,0.0,0.0,0.0,0.0,0.0,0.0,0.0,0.0,0.0,0.0,0.0,0.0,0.0,0.0,0.0,0.0,0.0,0.0,0.0,0.0,0.0,0.0,0.0,0.0,0.0,0.0,0.0,0.0,0.0,0.0,0.0,0.0,0.0,0.0,0.0,0.0,0.0,0.0,0.0,0.0,0.0,0.0,0.0,0.0,0.0,6.9528,7.3278,7.6764,7.7398,7.5185,6.9704,6.4706,0.0,0.0,0.0,0.0,0.0,0.0,0.0,0.0,0.0,0.0,0.0,0.0,0.0,0.0,0.0,0.0,0.0,0.0,0.0,0.0,0.0,0.0,0.0,0.0,0.0,0.0,0.0,0.0,0.0,0.0,0.0,0.0,0.0,0.0,0.0,0.0,0.0,0.0,0.0,0.0,0.0,0.0,0.0,0.0,0.0,0.0,0.0,0.0,0.0,0.0,0.0,0.0,0.0,0.0,0.0,0.0,0.0,0.0,0.0,0.0,0.0,0.0,0.0,0.0,0.0,0.0,0.0,0.0,0.0,0.0,0.0,0.0,0.0,0.0,0.0,0.0,0.0,0.0,0.0,0.0,0.0,0.0,0.0,0.0,0.0,0.0,0.0,0.0,0.0,0.0,0.0,0.0,0.0,0.0,0.0,0.0,0.0,0.0,0.0,0.0,0.0,0.0,0.0,0.0,0.0,0.0,0.0,0.0,0.0,7.0186,7.2423,7.2489,7.0384,6.6482,6.2339,0.0,0.0,0.0,0.0,0.0,0.0,0.0,0.0,0.0,0.0,0.0,0.0,0.0,0.0,0.0,0.0,0.0,0.0,0.0,0.0,0.0,0.0,0.0,0.0,0.0,0.0,0.0,0.0,0.0,0.0,0.0,0.0,0.0,0.0,0.0,0.0,0.0,0.0,0.0,0.0,0.0,0.0,0.0,0.0,0.0,0.0,0.0,0.0,0.0,0.0,0.0,0.0,0.0,0.0,0.0,0.0,0.0,0.0,0.0,0.0,0.0,0.0,0.0,0.0,0.0,0.0,0.0,0.0,0.0,0.0,0.0,0.0,0.0,0.0,0.0,0.0,0.0,0.0,0.0,0.0,0.0,0.0,0.0,0.0,0.0,0.0,0.0,0.0,0.0,0.0,0.0,0.0,0.0,0.0,0.0,0.0,0.0,0.0,0.0,0.0,0.0,0.0,0.0,0.0,0.0,0.0,0.0,0.0,0.0,6.7226,6.7468,6.7489,6.7292,6.4418,6.0846,0.0,0.0,0.0,0.0,0.0,0.0,0.0,0.0,0.0,0.0,0.0,0.0,0.0,0.0,0.0,0.0,0.0,0.0,0.0,0.0,0.0,0.0,0.0,0.0,0.0,0.0,0.0,0.0,0.0,0.0,0.0,0.0,0.0,0.0,0.0,0.0,0.0,0.0,0.0,0.0,0.0,0.0,0.0,0.0,0.0,0.0,0.0,0.0,0.0,0.0,0.0,0.0,0.0,0.0,0.0,0.0,0.0,0.0,0.0,0.0,0.0,0.0,0.0,0.0,0.0,0.0,0.0,0.0,0.0,0.0,0.0,0.0,0.0,0.0,0.0,0.0,0.0,0.0,0.0,0.0,0.0,0.0,0.0,0.0,0.0,0.0,0.0,0.0,0.0,0.0,0.0,0.0,0.0,0.0,0.0,0.0,0.0,0.0,0.0,0.0,0.0,0.0,0.0,0.0,0.0,0.0,0.0,0.0,0.0,6.2997,6.3937,6.4398,6.4352,6.1635,5.8065,5.3758,0.0,0.0,0.0,0.0,0.0,0.0,0.0,0.0,0.0,0.0,0.0,0.0,0.0,0.0,0.0,0.0,0.0,0.0,0.0,0.0,0.0,0.0,0.0,0.0,0.0,0.0,0.0,0.0,0.0,0.0,0.0,0.0,0.0,0.0,0.0,0.0,0.0,0.0,0.0,0.0,0.0,0.0,0.0,0.0,0.0,0.0,0.0,0.0,0.0,0.0,0.0,0.0,0.0,0.0,0.0,0.0,0.0,0.0,0.0,0.0,0.0,0.0,0.0,0.0,0.0,0.0,0.0,0.0,0.0,0.0,0.0,0.0,0.0,0.0,0.0,0.0,0.0,0.0,0.0,0.0,0.0,0.0,0.0,0.0,0.0,0.0,0.0,0.0,0.0,0.0,0.0,0.0,0.0,0.0,0.0,0.0,0.0,0.0,0.0,0.0,0.0,0.0,0.0,0.0,0.0,0.0,0.0,0.0,5.9972,6.1391,6.2095,6.203,5.9333,5.5978,0.0,0.0,0.0,0.0,0.0,0.0,0.0,0.0,0.0,0.0,0.0,0.0,0.0,0.0,0.0,0.0,0.0,0.0,0.0,0.0,0.0,0.0,0.0,0.0,0.0,0.0,0.0,0.0,0.0,0.0,0.0,0.0,0.0,0.0,0.0,0.0,0.0,0.0,0.0,0.0,0.0,0.0,0.0,0.0,0.0,0.0,0.0,0.0,0.0,0.0,0.0,0.0,0.0,0.0,0.0,0.0,0.0,0.0,0.0,0.0,0.0,0.0,0.0,0.0,0.0,0.0,0.0,0.0,0.0,0.0,0.0,0.0,0.0,0.0,0.0,0.0,0.0,0.0,0.0,0.0,0.0,0.0,0.0,0.0,0.0,0.0,0.0,0.0,0.0,0.0,0.0,0.0,0.0,0.0,0.0,0.0,0.0,0.0,0.0,0.0,0.0,0.0,0.0,0.0,0.0,0.0,0.0,0.0,5.8591,5.8638,5.9972,6.078,6.0648,5.797,5.5143,0.0,0.0,0.0,0.0,0.0,0.0,0.0,0.0,0.0,0.0,0.0,0.0,0.0,0.0,0.0,0.0,0.0,0.0,0.0,0.0,0.0,0.0,0.0,0.0,0.0,0.0,0.0,0.0,0.0,0.0,0.0,0.0,0.0,0.0,0.0,0.0,0.0,0.0,0.0,0.0,0.0,0.0,0.0,0.0,0.0,0.0,0.0,0.0,0.0,0.0,0.0,0.0,0.0,0.0,0.0,0.0,0.0,0.0,0.0,0.0,0.0,0.0,0.0,0.0,0.0,0.0,0.0,0.0,0.0,0.0,0.0,0.0,0.0,0.0,0.0,0.0,0.0,0.0,0.0,0.0,0.0,0.0,0.0,0.0,0.0,0.0,0.0,0.0,0.0,0.0,0.0,0.0,0.0,0.0,0.0,0.0,0.0,0.0,0.0,0.0,0.0,0.0,0.0,0.0,0.0,0.0,0.0,0.0,0.0,5.9972,0.0,6.0629,0.0,5.8851,5.6637,0.0,0.0,0.0,0.0,0.0,0.0,0.0,0.0,0.0,0.0,0.0,0.0,0.0,0.0,0.0,0.0,0.0,0.0,0.0,0.0,0.0,0.0,0.0,0.0,0.0,0.0,0.0,0.0,0.0,0.0,0.0,0.0,0.0,0.0,0.0,0.0,0.0,0.0,0.0,0.0,0.0,0.0,0.0,0.0,0.0,0.0,0.0,0.0,0.0,0.0,0.0,0.0,0.0,0.0,0.0,0.0,0.0,0.0,0.0,0.0,0.0,0.0,0.0,0.0,0.0,0.0,0.0,0.0,0.0,0.0,0.0,0.0,0.0,0.0,0.0,0.0,0.0,0.0,0.0,0.0,0.0,0.0,0.0,0.0,0.0,0.0,0.0,0.0,0.0,0.0,0.0,0.0,0.0,0.0,0.0,0.0,0.0,0.0,0.0,0.0,0.0,0.0,0.0,0.0,0.0,0.0,0.0,0.0,0.0,6.0838,6.0857,6.0876,6.0885,5.9149,5.7234,0.0,0.0,0.0,0.0,0.0,0.0,0.0,0.0,0.0,0.0,0.0,0.0,0.0,0.0,0.0,0.0,0.0,0.0,0.0,0.0,0.0,0.0,0.0,0.0,0.0,0.0,0.0,0.0,0.0,0.0,0.0,0.0,0.0,0.0,0.0,0.0,0.0,0.0,0.0,0.0,0.0,0.0,0.0,0.0,0.0,0.0,0.0,0.0,0.0,0.0,0.0,0.0,0.0,0.0,0.0,0.0,0.0,0.0,0.0,0.0,0.0,0.0,0.0,0.0,0.0,0.0,0.0,0.0,0.0,0.0,0.0,0.0,0.0,0.0,0.0,0.0,0.0,0.0,0.0,0.0,0.0,0.0,0.0,0.0,0.0,0.0,0.0,0.0,0.0,0.0,0.0,0.0,0.0,0.0,0.0,0.0,0.0,0.0,0.0,0.0,0.0,0.0,0.0,0.0,0.0,0.0,0.0,0.0,0.0,6.1268,6.1249,6.1342,6.1373,5.8863,5.6966,0.0,0.0,0.0,0.0,0.0,0.0,0.0,0.0,0.0,0.0,0.0,0.0,0.0,0.0,0.0,0.0,0.0,0.0,0.0,0.0,0.0,0.0,0.0,0.0,0.0,0.0,0.0,0.0,0.0,0.0,0.0,0.0,0.0,0.0,0.0,0.0,0.0,0.0,0.0,0.0,0.0,0.0,0.0,0.0,0.0,0.0,0.0,0.0,0.0,0.0,0.0,0.0,0.0,0.0,0.0,0.0,0.0,0.0,0.0,0.0,0.0,0.0,0.0,0.0,0.0,0.0,0.0,0.0,0.0,0.0,0.0,0.0,0.0,0.0,0.0,0.0,0.0,0.0,0.0,0.0,0.0,0.0,0.0,0.0,0.0,0.0,0.0,0.0,0.0,0.0,0.0,0.0,0.0,0.0,0.0,0.0,0.0,0.0,0.0,0.0,0.0,0.0,0.0,0.0,0.0,0.0,0.0,0.0,0.0,0.0,6.1928,6.1964,6.1882,6.0349,5.8903,5.7752,0.0,0.0,0.0,0.0,0.0,0.0,0.0,0.0,0.0,0.0,0.0,0.0,0.0,0.0,0.0,0.0,0.0,0.0,0.0,0.0,0.0,0.0,0.0,0.0,0.0,0.0,0.0,0.0,0.0,0.0,0.0,0.0,0.0,0.0,0.0,0.0,0.0,0.0,0.0,0.0,0.0,0.0,0.0,0.0,0.0,0.0,0.0,0.0,0.0,0.0,0.0,0.0,0.0,0.0,0.0,0.0,0.0,0.0,0.0,0.0,0.0,0.0,0.0,0.0,0.0,0.0,0.0,0.0,0.0,0.0,0.0,0.0,0.0,0.0,0.0,0.0,0.0,0.0,0.0,0.0,0.0,0.0,0.0,0.0,0.0,0.0,0.0,0.0,0.0,0.0,0.0,0.0,0.0,0.0,0.0,0.0,0.0,0.0,0.0,0.0,0.0,0.0,0.0,0.0,0.0,0.0,0.0,0.0,0.0,0.0,6.2313,6.1667,6.1012,5.9846,0.0,0.0,0.0,0.0,0.0,0.0,0.0,0.0,0.0,0.0,0.0,0.0,0.0,0.0,0.0,0.0,0.0,0.0,0.0,0.0,0.0,0.0,0.0,0.0,0.0,0.0,0.0,0.0,0.0,0.0,0.0,0.0,0.0,0.0,0.0,0.0,0.0,0.0,0.0,0.0,0.0,0.0,0.0,0.0,0.0,0.0,0.0,0.0,0.0,0.0,0.0,0.0,0.0,0.0,0.0,0.0,0.0,0.0,0.0,0.0,0.0,0.0,0.0,0.0,0.0,0.0,0.0,0.0,0.0,0.0,0.0,0.0,0.0,0.0,0.0,0.0,0.0,0.0,0.0,0.0,0.0,0.0,0.0,0.0,0.0,0.0,0.0,0.0,0.0,0.0,0.0,0.0,0.0,0.0,0.0,0.0,0.0,0.0,0.0,0.0,0.0,0.0,0.0,0.0,0.0,0.0,0.0,0.0,0.0,0.0,0.0,6.25,6.0959,6.1118,0.0,5.7532,0.0,0.0,0.0,0.0,0.0,0.0,0.0,0.0,0.0,0.0,0.0,0.0,0.0,0.0,0.0,0.0,0.0,0.0,0.0,0.0,0.0,0.0,0.0,0.0,0.0,0.0,0.0,0.0,0.0,0.0,0.0,0.0,0.0,0.0,0.0,0.0,0.0,0.0,0.0,0.0,0.0,0.0,0.0,0.0,0.0,0.0,0.0,0.0,0.0,0.0,0.0,0.0,0.0,0.0,0.0,0.0,0.0,0.0,0.0,0.0,0.0,0.0,0.0,0.0,0.0,0.0,0.0,0.0,0.0,0.0,0.0,0.0,0.0,0.0,0.0,0.0,0.0,0.0,0.0,0.0,0.0,0.0,0.0,0.0,0.0,0.0,0.0,0.0,0.0,0.0,0.0,0.0,0.0,0.0,0.0,0.0,0.0,0.0,0.0,0.0,0.0,0.0,0.0,0.0,0.0,0.0,0.0,0.0,0.0,0.0,0.0,0.0,6.1508,6.0254,5.7448,0.0,0.0,0.0,0.0,0.0,0.0,0.0,0.0,0.0,0.0,0.0,0.0,0.0,0.0,0.0,0.0,0.0,0.0,0.0,0.0,0.0,0.0,0.0,0.0,0.0,0.0,0.0,0.0,0.0,0.0,0.0,0.0,0.0,0.0,0.0,0.0,0.0,0.0,0.0,0.0,0.0,0.0,0.0,0.0,0.0,0.0,0.0,0.0,0.0,0.0,0.0,0.0,0.0,0.0,0.0,0.0,0.0,0.0,0.0,0.0,0.0,0.0,0.0,0.0,0.0,0.0,0.0,0.0,0.0,0.0,0.0,0.0,0.0,0.0,0.0,0.0,0.0,0.0,0.0,0.0,0.0,0.0,0.0,0.0,0.0,0.0,0.0,0.0,0.0,0.0,0.0,0.0,0.0,0.0,0.0,0.0,0.0,0.0,0.0,0.0,0.0,0.0,0.0,0.0,0.0,0.0,0.0,0.0,0.0,0.0,6.2953,6.0799,6.0787,5.944,5.6589,0.0,0.0,0.0,0.0,0.0,0.0,0.0,0.0,0.0,0.0,0.0,0.0,0.0,0.0,0.0,0.0,0.0,0.0,0.0,0.0,0.0,0.0,0.0,0.0,0.0,0.0,0.0,0.0,0.0,0.0,0.0,0.0,0.0,0.0,0.0,0.0,0.0,0.0,0.0,0.0,0.0,0.0,0.0,0.0,0.0,0.0,0.0,0.0,0.0,0.0,0.0,0.0,0.0,0.0,0.0,0.0,0.0,0.0,0.0,0.0,0.0,0.0,0.0,0.0,0.0,0.0,0.0,0.0,0.0,0.0,0.0,0.0,0.0,0.0,0.0,0.0,0.0,0.0,0.0,0.0,0.0,0.0,0.0,0.0,0.0,0.0,0.0,0.0,0.0,0.0,0.0,0.0,0.0,0.0,0.0,0.0,0.0,0.0,0.0,0.0,0.0,0.0,0.0,0.0,0.0,0.0,0.0,0.0,0.0,0.0,0.0,0.0,0.0,0.0,5.5522,0.0,0.0,0.0,0.0,0.0,0.0,0.0,0.0,0.0,0.0,0.0,0.0,0.0,0.0,0.0,0.0,0.0,0.0,0.0,0.0,0.0,0.0,0.0,0.0,0.0,0.0,0.0,0.0,0.0,0.0,0.0,0.0,0.0,0.0,0.0,0.0,0.0,0.0,0.0,0.0,0.0,0.0,0.0,0.0,0.0,0.0,0.0,0.0,0.0,0.0,0.0,0.0,0.0,0.0,0.0,0.0,0.0,0.0,0.0,0.0,0.0,0.0,0.0,0.0,0.0,0.0,0.0,0.0,0.0,0.0,0.0,0.0,0.0,0.0,0.0,0.0,0.0,0.0,0.0,0.0,0.0,0.0,0.0,0.0,0.0,0.0,0.0,0.0,0.0,0.0,0.0,0.0,0.0,0.0,0.0,0.0,0.0,0.0,0.0,0.0,0.0,0.0,0.0,0.0,0.0,0.0,0.0,0.0,0.0,0.0,0.0,0.0,0.0,0.0,0.0,0.0,0.0,0.0,0.0,0.0,0.0,0.0,0.0,0.0,0.0,0.0,0.0,0.0,0.0,0.0,0.0,0.0,0.0,0.0,0.0,0.0,0.0,0.0,0.0,0.0,0.0,0.0,0.0,0.0,0.0,0.0,0.0,0.0,0.0,0.0,0.0,0.0,0.0,0.0,0.0,0.0,0.0,0.0,0.0,0.0,0.0,0.0,0.0,0.0,0.0,0.0,0.0,0.0,0.0,0.0,0.0,0.0,0.0,0.0,0.0,0.0,0.0,0.0,0.0,0.0,0.0,0.0,0.0,0.0,0.0,0.0,0.0,0.0,0.0,0.0,0.0,0.0,0.0,0.0,0.0,0.0,0.0,0.0,0.0,0.0,0.0,0.0,0.0,0.0,0.0,0.0,0.0,0.0,0.0,0.0,0.0,0.0,0.0,0.0,0.0,0.0,0.0,0.0,0.0,0.0,0.0,0.0,0.0,0.0,0.0,0.0,0.0,0.0,0.0,0.0,0.0,0.0,0.0,0.0,0.0,0.0,0.0,0.0,0.0,0.0,0.0,0.0,0.0,0.0,0.0,0.0,0.0,0.0,0.0,0.0,0.0,0.0,0.0,0.0,0.0,0.0,0.0,0.0,0.0,0.0,0.0,0.0,0.0,0.0,0.0,0.0,0.0,0.0,0.0,0.0,0.0,0.0,0.0,0.0,0.0,0.0,0.0,0.0,0.0,0.0,0.0,0.0,0.0,0.0,0.0,0.0,0.0,0.0,0.0,0.0,0.0,0.0,0.0,0.0,0.0,0.0,0.0,0.0,0.0,0.0,0.0,0.0,0.0,0.0,0.0,0.0,0.0,0.0,0.0,0.0,0.0,0.0,0.0,0.0,0.0,0.0,0.0,0.0,0.0,0.0,0.0,0.0,0.0,0.0,0.0,0.0,0.0,0.0,0.0,0.0,0.0,0.0,0.0,0.0,0.0,0.0,0.0,0.0,0.0,0.0,0.0,0.0,0.0,0.0,0.0,0.0,0.0,0.0,0.0,0.0,0.0,0.0,0.0,0.0,0.0,0.0,0.0,0.0,0.0,0.0,0.0,0.0,0.0,0.0,0.0,0.0,0.0,0.0,0.0,0.0,0.0,0.0,0.0,0.0,0.0,0.0,0.0,0.0,0.0,0.0,0.0,0.0,0.0,0.0,0.0,0.0,0.0,0.0,0.0,0.0,0.0,0.0,0.0,0.0,0.0,0.0,0.0,0.0,0.0,0.0,0.0,0.0,0.0,0.0,0.0,0.0,0.0,0.0,0.0,0.0,0.0,0.0,0.0,0.0,0.0,0.0,0.0,0.0,0.0,0.0,0.0,0.0,0.0,0.0,0.0,0.0,0.0,0.0,0.0,0.0,0.0,0.0,0.0,0.0,0.0,0.0,0.0,0.0,0.0,0.0,0.0,0.0,0.0,0.0,0.0,0.0,0.0,0.0,0.0,0.0,0.0,0.0,0.0,0.0,0.0,0.0,0.0,0.0,0.0,0.0,0.0,0.0,0.0,0.0,0.0,0.0,0.0,0.0,0.0,0.0,0.0,0.0,0.0,0.0,0.0,0.0,0.0,0.0,0.0,0.0,0.0,0.0,0.0,0.0,0.0,0.0,0.0,0.0,0.0,0.0,0.0,0.0,0.0,0.0,0.0,0.0,0.0,0.0,0.0,0.0,0.0,0.0,0.0,0.0,0.0,0.0,0.0,0.0,0.0,0.0,0.0,0.0,0.0,0.0,0.0,0.0,0.0,0.0,0.0,0.0,0.0,0.0,0.0,0.0,0.0,0.0,0.0,0.0,0.0,0.0,0.0,0.0,0.0,0.0,0.0,0.0,0.0,0.0,0.0,0.0,0.0,0.0,0.0,0.0,0.0,0.0,0.0,0.0,0.0,0.0,0.0,0.0,0.0,0.0,0.0,0.0,0.0,0.0,0.0,0.0,0.0,0.0,0.0,0.0,0.0,0.0,0.0,0.0,0.0,0.0,0.0,0.0,0.0,0.0,0.0,0.0,0.0,0.0,0.0,0.0,0.0,0.0,0.0,0.0,0.0,0.0,0.0,0.0,0.0,0.0,0.0,0.0,0.0,0.0,0.0,0.0,0.0,0.0,0.0,0.0,0.0,0.0,0.0,0.0,0.0,0.0,0.0,0.0,0.0,0.0,0.0,0.0,0.0,0.0,0.0,0.0,0.0,0.0,0.0,0.0,0.0,0.0,0.0,0.0,0.0,0.0,0.0,0.0,0.0,0.0,0.0,0.0,0.0,0.0,0.0,0.0,0.0,0.0,0.0,0.0,0.0,0.0,0.0,0.0,0.0,0.0,0.0,0.0,0.0,0.0,0.0,0.0,0.0,0.0,0.0,0.0,0.0,0.0,0.0,0.0,0.0,0.0,0.0,0.0,0.0,0.0,0.0,0.0,0.0,0.0,0.0,0.0,0.0,0.0,0.0,0.0,0.0,0.0,0.0,0.0,0.0,0.0,0.0,0.0,0.0,0.0,0.0,0.0,0.0,0.0,0.0,0.0,0.0,0.0,0.0,0.0,0.0,0.0,0.0,0.0,0.0,0.0,0.0,0.0,0.0,0.0,0.0,0.0,0.0,0.0,0.0,0.0,0.0,0.0,0.0,0.0,0.0,0.0,0.0,0.0,0.0,0.0,0.0,0.0,0.0,0.0,0.0,0.0,0.0,0.0,0.0,0.0,0.0,0.0,0.0,0.0,0.0,0.0,0.0,0.0,0.0,0.0,0.0,0.0,0.0,0.0,0.0,0.0,0.0,0.0,0.0,0.0,0.0,0.0,0.0,0.0,0.0,0.0,0.0,0.0,0.0,0.0,0.0,0.0,0.0,0.0,0.0,0.0,0.0,0.0,0.0,0.0,0.0,0.0,0.0,0.0,0.0,0.0,0.0,0.0,0.0,0.0,0.0,0.0,0.0,0.0,0.0,0.0,0.0,0.0,0.0,0.0,0.0,0.0,0.0,0.0,0.0,0.0,0.0,0.0,0.0,0.0,0.0,0.0,0.0,0.0,0.0,0.0,0.0,0.0,0.0,0.0,0.0,0.0,0.0,0.0,0.0,0.0,0.0,0.0,0.0,0.0,0.0,0.0,0.0,0.0,0.0,0.0,0.0,0.0,0.0,0.0,0.0,0.0,0.0,0.0,0.0,0.0,0.0,0.0,0.0,0.0,0.0,0.0,0.0,0.0,0.0,0.0,0.0,0.0,0.0,0.0,0.0,0.0,0.0,0.0,0.0,0.0,0.0,0.0,0.0,0.0,0.0,0.0,0.0,0.0,0.0,0.0,0.0,0.0,0.0,0.0,0.0,0.0,0.0,0.0,0.0,0.0,0.0,0.0,0.0,0.0,0.0,0.0,0.0,0.0,0.0,0.0,0.0,0.0,0.0,0.0,0.0,0.0,0.0,0.0,0.0,0.0,0.0,0.0,0.0,0.0,0.0,0.0,0.0,0.0,0.0,0.0,0.0,0.0,0.0,0.0,0.0,0.0,0.0,0.0,0.0,0.0,0.0,0.0,0.0,0.0,0.0,0.0,0.0,0.0,0.0,0.0,0.0,0.0,0.0,0.0,0.0,0.0,0.0,0.0,0.0,0.0,0.0,0.0,0.0,0.0,0.0,0.0,0.0,0.0,0.0,0.0,0.0,0.0,0.0,0.0,0.0,0.0,0.0,0.0,0.0,0.0,0.0,0.0,0.0,0.0,0.0,0.0,0.0,0.0,0.0,0.0,0.0,0.0,0.0,0.0,0.0,0.0,0.0,0.0,0.0,0.0,0.0,0.0,0.0,0.0,0.0,0.0,0.0,0.0,0.0,0.0]}],[{"header":{"parameterUnit":"kt","parameterCategory":2,"dx":1,"dy":1,"la1":29.587661999999998,"la2":31.0,"lo1":-88.76705300000003,"lo2":-86.6583820000003,"nx":115,"ny":88,"refTime":"2022-10-08T12:00:00:Z","depth":0,"parameterNumber":2,"parameterNumberName":"V-component_of_WINDS"},"data":[12.9832,12.9832,12.9832,12.9832,12.9791,12.9527,12.9279,12.9029,12.8291,12.7866,12.7608,12.7307,12.7134,12.7134,12.7134,12.7134,12.7134,12.7134,12.7134,12.7134,12.7134,12.7134,12.6765,12.5973,12.542,12.3954,12.2077,12.0062,11.8135,11.658,11.5397,11.4932,11.4879,11.4879,11.4879,11.4879,11.4879,11.4879,11.4879,11.4879,11.4879,11.4879,11.4879,11.4879,11.4879,11.4879,11.4879,11.4879,11.4879,11.4879,11.4879,11.4879,11.4879,11.4879,11.4879,11.4879,11.4879,11.4879,11.4879,11.4879,11.4879,11.4879,11.4879,11.4879,11.4705,11.4588,11.4414,11.4129,11.4181,11.3251,11.3018,11.2727,11.2087,11.0982,11.0393,11.0633,11.0284,10.9893,10.9617,10.87,10.6977,10.3638,10.0742,9.7934,9.56,9.3431,9.0517,8.9379,8.8775,8.7853,8.687,8.6919,8.7016,8.6097,8.5413,8.5413,8.5462,8.4443,8.376,8.3808,8.376,8.3711,8.3613,8.3613,8.3613,8.3613,8.3613,8.3613,8.3559,8.345,8.3504,8.1918,7.867,7.5484,7.2874,12.9832,12.9832,12.9832,12.9832,12.9832,12.975,12.9338,12.8647,12.8437,12.8036,12.735,12.7177,12.7134,12.7134,12.7134,12.7134,12.7134,12.7134,12.7134,12.7134,12.7134,12.7134,12.659,12.5796,12.5241,12.4046,12.2077,12.0014,11.7692,11.7032,11.5962,11.5089,11.4879,11.4879,11.4879,11.4879,11.4879,11.4879,11.4879,11.4879,11.4879,11.4879,11.4879,11.4879,11.4879,11.4879,11.4879,11.4879,11.4879,11.4879,11.4879,11.4879,11.4879,11.4879,11.4879,11.4879,11.4879,11.4879,11.4879,11.4879,11.4879,11.4879,11.4879,11.4821,11.4588,11.4414,11.4187,11.4245,11.4647,11.453,11.453,11.4239,11.3483,11.2669,11.232,11.2152,11.0982,10.9935,10.9544,10.8987,10.5778,10.1842,9.8606,9.5253,9.2982,9.1103,8.9355,8.8222,8.7268,8.687,8.6675,8.6675,8.6675,8.6138,8.5462,8.556,8.5901,8.4974,8.4443,8.4199,8.3955,8.3711,8.3613,8.3613,8.3613,8.3613,8.3613,8.3857,8.3499,8.3287,8.2165,8.0106,7.7079,7.4678,7.2297,12.9832,12.9832,12.9832,12.9832,12.9791,12.9586,12.9296,12.888,12.8376,12.7823,12.722,12.7134,12.7134,12.7134,12.7134,12.7134,12.7134,12.7134,12.7134,12.7134,12.7134,12.7134,12.696,12.6458,12.5726,12.4836,12.2595,11.9645,11.658,11.6279,11.639,11.5142,11.4879,11.4879,11.4879,11.4879,11.4879,11.4879,11.4879,11.4879,11.4879,11.4879,11.4879,11.4879,11.4879,11.4879,11.4879,11.4879,11.4879,11.4879,11.4879,11.4879,11.4879,11.4879,11.4879,11.4879,11.4879,11.4879,11.4879,11.4879,11.4879,11.4879,11.4879,11.4879,11.4705,11.4647,11.4472,11.4362,11.4763,11.4647,11.4647,11.4298,11.36,11.2843,11.2378,11.1796,11.0742,10.9532,10.8858,10.7672,10.436,10.0417,9.6757,9.349,9.1993,9.0255,8.9167,8.8057,8.7211,8.6675,8.6675,8.6675,8.6675,8.6236,8.6097,8.6292,8.639,8.5853,8.5267,8.4877,8.4541,8.4053,8.3613,8.3662,8.3662,8.376,8.3998,8.434,8.4132,8.2777,8.0724,7.8387,7.6017,7.3653,7.1209,12.9832,12.9832,12.9832,12.9832,12.9791,12.9527,12.932,12.9029,12.8291,12.7823,12.735,12.722,12.7134,12.7134,12.7134,12.7134,12.7134,12.7134,12.7134,12.7134,12.7134,12.7134,12.709,12.6642,12.6637,12.5749,12.3919,12.1045,11.9217,11.7606,11.6595,11.5567,11.5461,11.5228,11.4937,11.4879,11.4879,11.4879,11.4879,11.4879,11.4879,11.4879,11.4879,11.4879,11.4879,11.4879,11.4879,11.4879,11.4879,11.4879,11.4879,11.4879,11.4879,11.4879,11.4879,11.4879,11.4879,11.4879,11.4879,11.4879,11.4879,11.4879,11.4879,11.4879,11.4879,11.4879,11.4821,11.4763,11.4594,11.4414,11.4181,11.3716,11.3192,11.2436,11.1738,11.0866,11.0044,10.898,10.8021,10.5558,10.2607,9.9007,9.5206,9.2759,9.1384,9.0005,8.8776,8.8147,8.7309,8.7406,8.7504,8.7309,8.7163,8.7163,8.7317,8.7366,8.7268,8.6829,8.5999,8.5511,8.5121,8.4437,8.3808,8.376,8.4053,8.4535,8.4877,8.4844,8.3618,8.2012,7.9983,7.7237,7.4807,7.2479,7.0145,12.9832,12.9832,12.9832,12.9832,12.9832,12.9791,12.9338,12.8563,12.8479,12.8184,12.7737,12.735,12.7134,12.7134,12.7134,12.7134,12.7134,12.7134,12.7134,12.7134,12.7134,12.7327,12.7167,12.6673,12.7299,12.6403,12.5044,12.3521,12.3423,12.1097,11.8325,11.6736,11.6682,11.6333,11.5577,11.5345,11.4937,11.4763,11.453,11.4414,11.453,11.4705,11.4879,11.4705,11.4763,11.4647,11.4705,11.4879,11.4879,11.4879,11.4879,11.4879,11.4879,11.4879,11.4879,11.4879,11.4879,11.4879,11.4879,11.4879,11.4879,11.4879,11.4879,11.4705,11.4239,11.4065,11.4007,11.389,11.3425,11.3134,11.296,11.2553,11.1971,11.1273,11.0808,11.0226,10.9435,10.8505,10.6914,10.3943,10.0835,9.684,9.3219,9.1669,9.0276,8.8596,8.7756,8.8,8.7951,8.8528,8.8537,8.8244,8.8244,8.8342,8.8147,8.7504,8.765,8.7455,8.6626,8.6048,8.5218,8.4584,8.4004,8.4388,8.4877,8.5365,8.5357,8.4275,8.3169,8.1516,7.9221,7.618,7.3564,7.1333,6.9127,12.9832,12.9832,12.9832,12.9832,12.9832,12.9832,12.9503,12.8964,12.8605,12.8333,12.7866,12.735,12.7134,12.7134,12.7134,12.7134,12.7134,12.7134,12.7134,12.7134,12.7134,12.7584,12.8205,12.8272,12.8409,12.797,12.7123,12.5749,12.4022,12.1979,11.9894,11.7962,11.802,11.7671,11.7031,11.6101,11.5286,11.4362,11.3722,11.3192,11.2727,11.2378,11.2494,11.2553,11.3373,11.3018,11.2669,11.4414,11.4239,11.3832,11.4705,11.4821,11.4821,11.4821,11.4821,11.4705,11.4705,11.4647,11.4588,11.4705,11.4821,11.4879,11.4879,11.4065,11.3367,11.2902,11.2843,11.2785,11.2262,11.1796,11.1564,11.1273,11.0633,11.0044,10.9811,10.9586,10.8736,10.7885,10.5378,10.2372,9.8738,9.4663,9.2262,9.0638,8.9172,8.8732,8.8586,8.8586,8.883,8.9318,8.9172,8.883,8.9025,8.9123,8.7894,8.7114,8.726,8.7163,8.6675,8.6194,8.5218,8.4681,8.4535,8.4974,8.5706,8.6048,8.6333,8.4818,8.292,8.1137,7.9084,7.5548,7.2474,7.0317,6.8459,12.9832,12.9832,12.9832,12.9832,12.9832,12.9832,12.9586,12.9237,12.8755,12.8226,12.7866,12.735,12.7177,12.7134,12.7134,12.7134,12.7134,12.7134,12.7134,12.7134,12.7134,12.8099,12.8892,12.9704,13.0309,12.9841,12.8884,12.7466,12.5656,12.3094,12.1021,11.8773,11.8078,11.7613,11.7206,11.7031,11.581,11.4763,11.4123,11.3251,11.2378,11.2087,11.1622,11.1564,11.2087,11.1971,11.168,11.2843,11.3018,11.2553,11.3309,11.3658,11.3774,11.3774,11.3774,11.3774,11.3832,11.3832,11.3774,11.3716,11.36,11.3425,11.3541,11.2436,11.1738,11.1215,11.1273,11.1273,11.0982,11.0684,11.0451,10.9819,10.9171,10.8763,10.8647,10.7817,10.6272,10.5073,10.3,9.9974,9.6937,9.3402,9.1912,9.0447,8.9874,8.9904,8.9855,8.9464,8.9464,8.966,8.9611,8.9318,8.9318,8.9416,8.8333,8.7602,8.7406,8.7065,8.6975,8.6585,8.5901,8.5462,8.5169,8.5609,8.6682,8.7073,8.7008,8.5124,8.3035,8.1163,7.8434,7.4681,7.1416,6.9547,6.7692,12.9832,12.9832,12.9832,12.9832,12.9832,12.961,12.9495,12.9172,12.8689,12.8268,12.7866,12.7393,12.7134,12.7134,12.7134,12.7134,12.7134,12.7134,12.7134,12.7134,12.7134,12.8292,12.9387,13.0149,13.0203,13.061,12.9652,12.7472,12.8215,12.4237,12.1252,11.9331,11.7962,11.6857,11.6275,11.6101,11.6101,11.5054,11.4239,11.2902,11.1796,11.1913,11.1098,11.0749,11.0691,11.0749,11.0749,11.1215,11.1331,11.1215,11.1273,11.1273,11.1215,11.1157,11.1157,11.1215,11.1389,11.1506,11.1622,11.1738,11.1622,11.1157,11.1157,11.1098,11.0633,11.0284,11.0168,10.9993,10.9694,10.9462,10.9287,10.8589,10.7841,10.7626,10.751,10.6087,10.4342,10.2595,10.0607,9.8253,9.5284,9.3134,9.1694,9.0876,9.0245,9.0167,8.9953,8.9708,8.9757,8.9953,8.9757,8.9464,8.9416,8.9562,8.9416,8.883,8.8342,8.7211,8.7122,8.6878,8.6772,8.6333,8.6341,8.6682,8.7659,8.7714,8.707,8.5475,8.3069,8.0141,7.7323,7.374,7.0258,6.8461,6.7208,12.9832,12.9832,12.9832,12.9832,12.9569,12.7794,12.7557,12.8233,12.8423,12.8437,12.8164,12.7479,12.7134,12.7134,12.7134,12.7134,12.7134,12.7134,12.7134,12.7134,12.7134,12.8398,12.8937,12.9028,12.8965,12.9072,12.7801,12.5596,12.4648,12.2326,12.0399,11.9052,11.8311,11.6741,11.5519,11.5112,11.5345,11.4472,11.3716,11.2262,11.1098,11.0051,10.9353,10.9179,10.9295,10.947,10.9237,10.9761,11.0633,11.0335,11.0517,11.104,11.104,11.104,11.104,11.0982,11.0982,11.0924,11.0866,11.0866,10.9877,10.9004,10.8647,10.8589,10.8539,10.888,10.883,10.8705,10.824,10.8016,10.7957,10.7949,10.7286,10.6891,10.6379,10.4961,10.3367,10.1819,9.9973,9.8144,9.5618,9.3531,9.1802,9.1166,9.0518,9.0226,8.9992,8.9943,9.0001,8.9904,8.9757,8.9416,8.922,8.9074,8.8976,8.9172,8.8635,8.7512,8.7065,8.6724,8.6675,8.6675,8.7211,8.7707,8.7504,8.7284,8.6937,8.5274,8.2246,7.9284,7.5967,7.2587,6.9448,6.7642,6.6414,12.8386,12.8386,12.8426,12.8426,12.8229,12.6782,12.6782,12.7754,12.8511,12.8731,12.8353,12.7565,12.7134,12.7134,12.7134,12.7134,12.7134,12.7134,12.7134,12.7134,12.7134,12.8479,12.8417,12.7464,12.6703,12.6366,12.4692,12.233,12.089,12.0086,11.8939,11.8195,11.7671,11.6857,11.5461,11.4821,11.4588,11.3548,11.2727,11.1622,11.0575,10.947,10.8655,10.8298,10.8414,10.8298,10.7725,10.8655,10.9063,10.8822,10.8996,10.9412,10.947,10.947,10.9586,10.9644,10.9702,10.9927,11.0335,10.9761,10.8888,10.8074,10.7541,10.7599,10.7318,10.7367,10.7308,10.7425,10.7541,10.6842,10.6263,10.6114,10.5458,10.5156,10.4342,10.3008,10.1766,10.0347,9.8953,9.6996,9.6138,9.4084,9.2355,9.1513,9.0643,9.0226,9.0001,8.9992,8.9992,8.9904,8.9806,8.9416,8.9123,8.8732,8.8626,8.9318,8.9074,8.8098,8.7512,8.6919,8.6724,8.6675,8.7016,8.7211,8.7016,8.6708,8.5857,8.4475,8.1411,7.7686,7.3786,7.0208,6.8165,6.6809,6.5611,12.573,12.5599,12.573,12.5599,12.5599,12.6954,12.748,12.7571,12.883,12.91,12.8395,12.7651,12.722,12.7134,12.7134,12.7134,12.7134,12.7134,12.6852,12.6677,12.6479,12.6381,12.6206,12.5278,12.3899,12.239,12.1041,11.9712,11.8635,11.8074,11.7609,11.7031,11.6682,11.6101,11.5054,11.4879,11.4879,11.4821,11.4588,11.36,11.2436,11.1098,10.9877,10.9054,10.8414,10.7899,10.7434,10.7899,10.7957,10.7774,10.7899,10.7899,10.7899,10.789,10.7832,10.7725,10.7667,10.8074,10.8996,10.8007,10.7716,10.7425,10.7367,10.7367,10.7367,10.7259,10.721,10.6363,10.661,10.5808,10.4646,10.3623,10.2646,10.1864,10.124,10.013,9.9061,9.786,9.6711,9.516,9.4915,9.4679,9.3059,9.1744,9.0818,9.0235,9.006,8.9992,8.9992,8.9943,8.9894,8.966,8.9416,8.9025,8.883,8.9464,8.9318,8.8684,8.7951,8.726,8.6919,8.6724,8.6675,8.6675,8.6359,8.5681,8.4755,8.3619,7.9466,7.5406,7.1571,6.8821,6.7247,6.5861,6.47,12.5599,12.5599,12.5599,12.4415,12.2837,12.4086,12.527,12.6322,12.7769,12.8331,12.8479,12.7951,12.7479,12.722,12.7134,12.7134,12.7003,12.6852,12.6194,12.5465,12.5008,12.4633,12.3412,12.2101,12.0958,12.0275,11.8665,11.7209,11.6333,11.6101,11.5926,11.5752,11.5403,11.5403,11.4879,11.4879,11.4879,11.4647,11.4129,11.3141,11.2966,11.1738,11.0517,10.952,10.8996,10.8306,10.7608,10.7541,10.7483,10.7318,10.7367,10.7367,10.7367,10.7367,10.7367,10.7367,10.7318,10.7434,10.7725,10.7434,10.7367,10.7367,10.7367,10.7367,10.7367,10.7259,10.6263,10.5407,10.4848,10.3929,10.1815,10.1447,10.0711,9.9597,9.8846,9.7926,9.6821,9.635,9.5066,9.4018,9.3716,9.3676,9.237,9.1744,9.0876,9.0294,8.9972,8.966,8.9504,8.9358,8.9455,8.9318,8.9172,8.9025,8.8879,8.8488,8.8098,8.7512,8.7317,8.6919,8.6772,8.6772,8.6675,8.597,8.5245,8.4603,8.332,8.1607,7.773,7.324,7.045,6.766,6.6197,6.4919,6.3747,12.3889,12.3955,12.3889,12.2902,12.1494,12.3428,12.4744,12.5796,12.7703,12.8593,12.8437,12.7908,12.7436,12.722,12.7134,12.6765,12.6062,12.6018,12.47,12.3586,12.2797,12.224,12.0916,11.9386,11.7898,11.7459,11.6289,11.4879,11.4879,11.517,11.4937,11.4879,11.4996,11.4879,11.4879,11.4879,11.4879,11.4647,11.4129,11.3722,11.3431,11.2436,11.1389,11.0575,11.0342,10.9287,10.824,10.8065,10.7667,10.7434,10.7367,10.7367,10.7367,10.7367,10.7367,10.7367,10.7367,10.7658,10.8007,10.7608,10.7367,10.7367,10.7367,10.7367,10.7367,10.6313,10.5049,10.4082,10.3213,10.1551,9.965,9.9115,9.8739,9.7763,9.6886,9.6003,9.5479,9.5426,9.4623,9.4058,9.3558,9.3044,9.242,9.1702,9.0902,9.0205,8.9737,8.922,8.8626,8.8333,8.8187,8.8098,8.7903,8.7756,8.7756,8.726,8.6772,8.6577,8.6382,8.6194,8.595,8.6048,8.5644,8.4871,8.4102,8.2859,8.1408,7.9658,7.6268,7.1462,6.8446,6.6529,6.5231,6.3903,6.2644,12.1324,12.1324,12.1324,12.139,12.1757,12.4415,12.5599,12.6125,12.8649,12.929,12.8647,12.7715,12.7393,12.7026,12.6721,12.5732,12.4291,12.4109,12.2704,12.1508,12.0741,11.9683,11.8515,11.7567,11.6793,11.552,11.5095,11.4879,11.4879,11.4879,11.4879,11.4879,11.4879,11.4879,11.4879,11.4879,11.4879,11.4821,11.4763,11.4705,11.4356,11.3774,11.296,11.2501,11.168,11.0626,10.9462,10.9112,10.8647,10.7725,10.7434,10.7367,10.7367,10.7367,10.7367,10.7367,10.7367,10.7716,10.8123,10.7725,10.7425,10.7367,10.7367,10.7367,10.7259,10.525,10.3929,10.326,10.1864,9.981,9.7765,9.6669,9.6114,9.5448,9.5109,9.4492,9.4522,9.4566,9.4458,9.4096,9.3716,9.3259,9.2693,9.1127,9.025,8.9135,8.8554,8.8195,8.7602,8.7455,8.7211,8.7073,8.6821,8.6577,8.6577,8.6243,8.5657,8.5365,8.5267,8.5121,8.5072,8.4584,8.4291,8.3773,8.359,8.1382,7.9399,7.5901,7.2397,6.8927,6.6844,6.5698,6.4465,6.3048,6.1662,12.1324,12.1324,12.1324,12.1916,12.31,12.4809,12.6125,12.7308,12.9084,12.9709,12.9231,12.8521,12.7715,12.6982,12.5554,12.4519,12.3925,12.261,12.0741,11.9377,11.8535,11.7591,11.6477,11.5813,11.5449,11.499,11.4879,11.4879,11.4879,11.4879,11.4879,11.4879,11.4879,11.4879,11.4879,11.4879,11.4879,11.4879,11.4879,11.4879,11.4821,11.4472,11.389,11.3192,11.2553,11.1855,11.0633,10.9927,10.9345,10.8531,10.7949,10.7376,10.7367,10.7367,10.7367,10.7367,10.7541,10.7774,10.7832,10.7899,10.7425,10.7367,10.7367,10.755,10.7277,10.6915,10.5558,10.1447,10.0452,9.8304,9.5726,9.4712,9.4369,9.4143,9.3639,9.3639,9.3741,9.395,9.395,9.3588,9.3317,9.3121,9.1903,9.0448,8.9217,8.8114,8.7479,8.7073,8.6919,8.687,8.6626,8.6382,8.6097,8.556,8.5365,8.4925,8.4437,8.4096,8.4047,8.3998,8.4144,8.3857,8.3613,8.3559,8.3548,8.0813,7.6589,7.2281,6.8262,6.6976,6.5826,6.4788,6.3641,6.2213,6.0951,12.1324,12.1362,12.1982,12.2376,12.2837,12.5401,12.6651,12.7177,12.8912,12.975,12.9462,12.9005,12.7801,12.5757,12.3817,12.2407,12.1365,12.0306,11.8634,11.6981,11.658,11.6072,11.5089,11.4879,11.4879,11.4879,11.4879,11.4879,11.4879,11.4879,11.4879,11.4879,11.4879,11.4879,11.4879,11.4879,11.4879,11.4879,11.4879,11.4879,11.4879,11.4821,11.453,11.3838,11.378,11.3024,11.2087,11.104,11.0459,10.9112,10.8705,10.7899,10.7434,10.7367,10.7318,10.7318,10.7774,10.8123,10.8181,10.8714,10.8647,10.8472,10.8647,10.8257,10.7106,10.5707,10.3003,9.9384,9.9052,9.734,9.4681,9.4204,9.4102,9.3848,9.3639,9.3639,9.3639,9.3639,9.3283,9.308,9.2764,9.1589,9.0423,8.9213,8.813,8.716,8.6592,8.6146,8.5999,8.5901,8.5706,8.5609,8.5121,8.4584,8.4291,8.4096,8.3857,8.376,8.3656,8.3608,8.3613,8.3564,8.3613,8.3559,8.1037,7.761,7.4114,7.0697,6.8004,6.6354,6.4769,6.3801,6.2799,6.1439,6.0895,12.1494,12.1428,12.2798,12.2837,12.2574,12.577,12.6782,12.6585,12.8886,12.9692,12.9838,12.9285,12.7802,12.5458,12.3015,12.039,11.8684,11.7843,11.6785,11.5501,11.5246,11.5142,11.4879,11.4879,11.4879,11.4879,11.4879,11.4879,11.4879,11.4879,11.4879,11.4879,11.4879,11.4879,11.4821,11.453,11.4705,11.4588,11.4414,11.4239,11.4239,11.4181,11.4298,11.4356,11.4356,11.3896,11.3257,11.2617,11.1855,11.0044,10.952,10.8647,10.7774,10.7483,10.7318,10.7832,10.8472,10.9279,10.9229,10.9694,10.9869,10.9694,11.011,10.9494,10.7625,10.488,10.186,9.7595,9.7125,9.6076,9.4546,9.456,9.435,9.3842,9.3182,9.3233,9.2979,9.2318,9.2216,9.2013,9.108,8.9966,8.8805,8.7878,8.7062,8.6327,8.5657,8.5218,8.4877,8.4486,8.4193,8.4388,8.4047,8.3998,8.3857,8.3808,8.3662,8.3662,8.3613,8.3613,8.3418,8.3271,8.3369,8.0784,7.657,7.3151,7.1046,6.9381,6.7736,6.5929,6.4056,6.2846,6.1924,6.1422,6.0858,12.2311,12.139,12.2798,12.3916,12.4744,12.573,12.7111,12.8846,12.9569,13.0276,13.1112,12.9868,12.8405,12.6752,12.4549,12.1637,11.7934,11.6117,11.556,11.4879,11.4879,11.4879,11.4879,11.4879,11.4879,11.4879,11.4879,11.4879,11.4879,11.4879,11.4879,11.4879,11.4879,11.4879,11.453,11.3774,11.3431,11.3024,11.2436,11.1796,11.1738,11.1855,11.2204,11.3141,11.3315,11.3716,11.389,11.3251,11.232,11.1564,11.0335,10.9112,10.8705,10.7841,10.7783,10.8705,10.9054,10.9229,10.9237,10.9594,10.9726,10.922,11.0488,10.9505,10.726,10.4299,10.2287,9.8302,9.6852,9.5858,9.382,9.3899,9.3436,9.2618,9.2211,9.2059,9.1556,9.1302,9.12,9.0328,8.9291,8.8145,8.6842,8.5936,8.5586,8.4852,8.4974,8.4486,8.4584,8.3949,8.4193,8.3998,8.3949,8.3949,8.3857,8.39,8.3564,8.3369,8.3222,8.3027,8.2929,8.2465,8.0464,7.8467,7.4163,7.0449,6.8714,6.6973,6.5999,6.4829,6.3234,6.221,6.1929,6.1404,6.082,12.2376,12.2508,12.3889,12.4941,12.573,12.7045,12.8163,12.8886,12.9569,12.9772,12.9495,12.9137,12.7375,12.4666,12.3247,12.0696,11.721,11.5246,11.4984,11.4879,11.4879,11.4879,11.4879,11.4879,11.4879,11.4879,11.4879,11.4879,11.4879,11.4879,11.4879,11.4763,11.4181,11.3949,11.3658,11.2785,11.2145,11.1913,11.1447,11.104,11.104,11.104,11.1273,11.1855,11.2087,11.2378,11.2843,11.2204,11.2087,11.1738,11.0335,10.9761,10.9702,10.9528,10.9179,10.9287,10.9761,10.9749,10.8725,10.896,10.8058,10.6898,10.7091,10.6072,10.3404,10.1673,9.9219,9.6799,9.5869,9.4473,9.2491,9.2572,9.2267,9.1505,9.12,9.0946,9.0645,9.0493,8.9727,8.8708,8.797,8.6924,8.5433,8.4946,8.4258,8.408,8.415,8.434,8.4535,8.4877,8.556,8.5462,8.5413,8.5169,8.4681,8.4096,8.3515,8.2929,8.2641,8.2246,8.1735,8.0027,7.8041,7.5454,7.2124,6.8034,6.6389,6.5491,6.4524,6.3544,6.282,6.23,6.1929,6.1404,6.0743,12.2179,12.3231,12.4875,12.5599,12.5993,12.8295,12.8617,12.7929,12.8838,12.8353,12.7129,12.7528,12.511,12.2021,12.1228,11.8859,11.5989,11.5095,11.5054,11.5345,11.4996,11.5228,11.5228,11.5112,11.4879,11.4879,11.4879,11.4879,11.4879,11.4647,11.4356,11.4298,11.3548,11.3082,11.2792,11.2029,11.168,11.1796,11.1273,11.104,11.0866,11.0691,11.0633,11.0633,11.0691,11.1098,11.1331,11.1447,11.1447,11.1506,11.0509,11.04,11.0575,11.0517,10.9985,10.9578,10.9927,10.9662,10.8577,10.8606,10.6145,10.3464,10.3657,10.2377,9.8855,9.6646,9.6221,9.4813,9.3641,9.2486,9.0595,9.1251,9.1099,9.0438,9.0082,8.993,8.9676,8.9371,8.8758,8.7477,8.6844,8.6108,8.5761,8.5416,8.4881,8.4651,8.4291,8.4047,8.3656,8.4096,8.4919,8.5407,8.5992,8.5407,8.4828,8.3608,8.2675,8.1944,8.0866,8.0475,7.934,7.765,7.477,7.1473,6.8138,6.6084,6.5066,6.414,6.3504,6.3449,6.2964,6.2406,6.1912,6.1466,6.0821,12.2508,12.185,12.4481,12.5599,12.5862,12.7268,12.7593,12.7026,12.735,12.6823,12.6193,12.5097,12.3778,12.1538,12.0324,11.8041,11.5664,11.499,11.5577,11.6101,11.5461,11.5519,11.5694,11.517,11.4705,11.4879,11.4647,11.4647,11.4356,11.3838,11.3315,11.3257,11.2966,11.285,11.2908,11.2675,11.2268,11.2087,11.1389,11.0982,11.0749,11.0044,10.9636,10.952,10.952,11.0226,11.1506,11.2029,11.2792,11.4123,11.3076,11.2029,11.1098,11.0218,10.9345,10.9345,10.9261,10.883,10.815,10.7417,10.6447,10.5614,10.4448,10.1691,9.7986,9.558,9.4132,9.2776,9.1594,9.0645,9.0493,9.0336,8.9879,8.927,8.8911,8.8403,8.7743,8.7387,8.7482,8.6604,8.6734,8.6497,8.6248,8.5603,8.5409,8.5072,8.4242,8.3412,8.2441,8.2143,8.2334,8.2724,8.3407,8.3217,8.2827,8.185,8.1146,8.014,7.8532,7.7869,7.7034,7.4311,7.0957,6.7609,6.5974,6.4859,6.3822,6.356,6.3449,6.3338,6.2908,6.2294,6.1838,6.1488,6.0841,12.2376,12.2574,12.3889,12.4714,12.5184,12.5841,12.5845,12.5438,12.5363,12.4663,12.3638,12.3682,12.2061,11.9858,11.9163,11.7941,11.6217,11.5894,11.6217,11.645,11.6328,11.581,11.5694,11.4588,11.378,11.3716,11.3251,11.2843,11.2727,11.2262,11.2327,11.285,11.2152,11.2327,11.2792,11.2152,11.2087,11.1913,11.1273,11.0633,11.016,10.9462,10.9054,10.8356,10.8298,10.8597,10.9935,11.0051,11.0749,11.1506,11.1796,11.1331,11.0218,11.0102,10.9811,10.9153,10.8209,10.6983,10.5336,10.3751,10.1668,9.8524,9.8509,9.617,9.3723,9.2283,9.096,8.9644,8.8962,8.8609,8.8558,8.8558,8.8406,8.7794,8.7743,8.7489,8.7184,8.7489,8.7738,8.7572,8.7333,8.7041,8.6302,8.5421,8.4979,8.4198,8.3421,8.2923,8.1861,8.0894,8.0813,8.0175,8.0832,8.0788,8.0449,7.9802,7.8846,7.7564,7.5747,7.4648,7.3455,7.0401,6.739,6.6071,6.4694,6.3615,6.356,6.356,6.3504,6.3226,6.2836,6.2182,6.1626,6.1067,6.0479,12.1653,12.2995,12.2841,12.3524,12.4355,12.3982,12.3498,12.3112,12.3017,12.1801,12.068,12.1392,12.0406,11.8091,11.8101,11.7554,11.6366,11.6227,11.6445,11.6392,11.6445,11.5577,11.4007,11.3076,11.2501,11.2378,11.1447,11.1273,11.1389,11.1622,11.168,11.2675,11.221,11.192,11.285,11.2494,11.1855,11.1796,11.1564,11.1098,11.0459,10.9753,10.8822,10.8065,10.7599,10.7492,10.7608,10.7716,10.7774,10.8123,10.8655,10.8714,10.8323,10.8388,10.8152,10.7237,10.5753,10.3828,10.2124,10.0168,9.7021,9.4439,9.4253,9.225,8.9336,8.9432,8.8764,8.7946,8.7641,8.8152,8.8203,8.7591,8.7743,8.7898,8.7489,8.7235,8.7946,8.8711,8.8705,8.8438,8.8107,8.7668,8.6769,8.5564,8.4596,8.3347,8.2777,8.2378,8.1405,8.0328,7.9188,7.7712,7.7766,7.6934,7.6565,7.5996,7.5299,7.4335,7.2294,7.0809,6.9,6.641,6.5603,6.4472,6.356,6.356,6.356,6.356,6.356,6.3115,6.2725,6.2182,6.1565,6.0646,6.0118,12.0206,12.1472,12.1131,12.1965,12.2978,12.1443,12.0449,12.0211,11.9878,11.8597,11.7507,11.8155,11.8085,11.7524,11.6785,11.6345,11.5651,11.5252,11.5106,11.5054,11.4937,11.3949,11.1971,11.1447,11.1215,11.1098,11.1098,11.1331,11.1506,11.1157,11.168,11.2385,11.2734,11.285,11.3141,11.389,11.4356,11.389,11.296,11.2262,11.1506,11.0051,10.9054,10.8472,10.7774,10.7725,10.8472,10.8531,10.7268,10.4235,10.4108,10.4905,10.5377,10.368,10.3435,10.3658,10.2176,10.0819,10.0339,9.894,9.7021,9.5096,9.388,9.2509,9.0783,9.0184,9.0032,8.9625,8.9981,8.9676,8.9574,8.9015,8.8965,8.9371,8.7999,8.8606,9.0383,9.0692,8.9614,8.8215,8.8319,8.772,8.6865,8.604,8.5061,8.1164,8.0273,7.9361,7.8082,7.7416,7.6459,7.5589,7.476,7.3545,7.3046,7.2554,7.2304,7.1397,6.9474,6.8037,6.6271,6.497,6.3963,6.356,6.356,6.356,6.356,6.356,6.356,6.3226,6.278,6.2238,6.1734,6.0872,6.0175,11.8064,11.8443,11.8354,11.835,11.838,11.7567,11.7006,11.668,11.6453,11.5782,11.5378,11.572,11.5801,11.5503,11.4764,11.4209,11.3964,11.3788,11.3774,11.378,11.3664,11.2669,11.1215,11.0218,10.9985,10.9927,10.9229,10.9295,10.9652,10.9985,11.0633,11.165,11.2559,11.3367,11.385,11.4647,11.4478,11.378,11.3257,11.2145,11.0924,10.9753,10.8938,10.8065,10.7716,10.7492,10.789,10.7425,10.5338,10.2697,10.2697,10.2487,10.0943,10.0701,10.0621,9.9751,9.78,9.6915,9.7024,9.5736,9.465,9.4297,9.3969,9.2744,9.168,9.1302,9.0946,9.0544,9.0442,9.0442,9.029,8.9981,9.0235,9.0743,8.9266,8.886,9.0743,9.0184,8.8999,8.7831,8.6519,8.5017,8.4113,8.172,8.0071,7.8746,7.7665,7.6206,7.48,7.401,7.3439,7.3769,7.34,7.2615,7.2006,7.1615,7.1284,6.9279,6.7529,6.6682,6.5245,6.4018,6.356,6.356,6.356,6.356,6.356,6.356,6.3504,6.3282,6.2836,6.235,6.179,6.1154,6.0533,11.5406,11.5232,11.509,11.4904,11.4653,11.4004,11.3857,11.401,11.3892,11.3939,11.4034,11.4512,11.5002,11.4785,11.4153,11.3526,11.346,11.3132,11.285,11.2385,11.1862,11.0866,10.9935,10.9112,10.8763,10.8647,10.7899,10.7312,10.7451,10.9169,10.9914,11.02,11.1561,11.2952,11.3634,11.3413,11.2942,11.2244,11.1972,11.0721,10.8751,10.8488,10.824,10.7367,10.7367,10.7367,10.7201,10.6038,10.3647,10.042,10.1608,10.13,10.0122,9.9493,9.8949,9.76,9.5103,9.3299,9.3601,9.2557,9.2134,9.2674,9.2597,9.242,9.1602,9.15,9.1149,9.0641,9.0442,9.0442,9.0442,9.0391,9.0641,9.1251,9.0434,8.9977,9.054,8.9774,8.8374,8.6933,8.4698,8.2827,8.0987,7.8644,7.6613,7.5838,7.5007,7.3947,7.3415,7.2652,7.1579,7.1965,7.198,7.1414,7.086,7.0479,6.9367,6.7239,6.6136,6.5369,6.4405,6.356,6.356,6.356,6.356,6.356,6.356,6.356,6.3393,6.3282,6.2685,6.2014,6.1565,6.1172,6.0533,11.2272,11.1985,11.1515,11.2179,11.3153,11.1596,11.1635,11.2829,11.2683,11.2477,11.2956,11.4453,11.5601,11.5941,11.516,11.4597,11.4386,11.3008,11.1855,11.0575,10.9121,10.8132,10.7957,10.7725,10.7658,10.7599,10.7425,10.7316,10.7332,10.9236,10.9899,10.829,11.0002,11.1327,11.0879,11.0253,10.9741,10.9382,10.9293,10.8156,10.599,10.6662,10.7022,10.6866,10.6816,10.6718,10.6445,10.5249,10.2869,9.9457,9.9522,10.0907,10.2743,9.9673,9.7436,9.7582,9.3404,9.1366,9.0766,9.0751,9.0747,9.095,9.1001,9.0489,9.0641,9.0692,9.0595,9.0442,9.0442,9.0442,9.0442,9.0442,9.0442,9.0595,9.1043,9.145,9.1704,9.0845,8.8525,8.5482,8.3649,8.1851,7.8085,7.6804,7.5289,7.4286,7.3277,7.264,7.2101,7.145,7.0236,6.9887,6.9961,6.9469,6.8869,6.8409,6.7502,6.5764,6.4994,6.4388,6.3726,6.356,6.356,6.356,6.356,6.356,6.356,6.356,6.3449,6.3171,6.2517,6.1678,6.1115,6.0759,6.0307,11.0555,10.9491,10.8751,10.8699,10.8932,10.9201,10.9482,11.0122,11.0783,11.11,11.128,11.2238,11.2597,11.2417,11.196,11.1459,11.0948,10.9852,10.9121,10.8481,10.755,10.7367,10.7367,10.7367,10.7367,10.7367,10.7259,10.6985,10.6423,10.7899,10.7811,10.6457,10.795,10.8286,10.6737,10.7018,10.6134,10.4754,10.4828,10.4149,10.2902,10.2818,10.3008,10.3008,10.3008,10.3008,10.2896,10.173,10.0245,9.874,9.6724,9.5879,9.5839,9.5413,9.4311,9.3301,9.1012,8.9625,9.029,9.029,9.0442,9.0544,9.0997,9.1048,9.0544,9.0391,9.0442,9.0442,9.034,9.0442,9.0391,9.0391,9.0442,9.0391,9.1302,9.1907,9.1805,9.1048,8.8599,8.5085,8.2688,7.9952,7.6735,7.4665,7.3004,7.2602,7.2111,7.1721,7.1452,7.0778,7.0377,6.9893,6.9329,6.8404,6.7295,6.6409,6.5644,6.4943,6.4299,6.3922,6.36,6.356,6.356,6.356,6.356,6.356,6.356,6.356,6.3393,6.3075,6.2685,6.1846,6.1003,6.059,6.025,10.8323,10.6858,10.6316,10.5937,10.5952,10.7104,10.7942,10.8407,10.9245,10.9963,11.0489,11.0801,11.1028,11.0864,11.0349,10.9925,10.9356,10.7973,10.7367,10.7425,10.7367,10.7367,10.7367,10.7367,10.7367,10.721,10.661,10.5447,10.4404,10.5401,10.4873,10.3325,10.4458,10.4252,10.256,10.2755,10.234,10.0454,10.0842,10.0409,9.9008,9.9757,10.0235,10.0235,10.0394,9.938,9.7719,9.6917,9.6704,9.6917,9.4788,9.3097,9.2358,9.2676,9.2358,9.0974,8.9244,8.8505,8.9219,8.9219,8.9168,8.9371,8.9825,8.9926,8.9422,8.9219,8.9219,8.9219,8.927,8.927,8.9371,8.9574,8.9778,8.9828,9.0794,9.1454,9.1247,9.0192,8.7462,8.3461,8.074,7.7954,7.4775,7.2973,7.1938,7.2012,7.1528,7.1528,7.1582,7.1019,7.0255,7.0174,6.9731,6.9007,6.794,6.6973,6.6208,6.5564,6.4782,6.4299,6.3761,6.356,6.356,6.356,6.356,6.356,6.356,6.3449,6.3282,6.3003,6.2517,6.1846,6.1059,6.0608,6.0307,10.5604,10.4274,10.421,10.444,10.4546,10.5802,10.7104,10.7882,10.8181,10.8945,10.9903,11.134,11.146,11.1927,11.1486,11.1518,10.9848,10.7905,10.695,10.7018,10.7085,10.7143,10.7085,10.7085,10.7085,10.7036,10.5042,10.2922,10.1077,10.2182,10.1309,9.8797,9.9948,10.0179,9.8714,9.7833,9.721,9.7195,9.7803,9.7438,9.5902,9.7552,9.8739,9.906,9.9434,9.7234,9.1952,9.2125,9.2927,9.376,9.3601,9.4194,9.4052,9.2814,9.1989,9.1207,8.8754,8.7138,8.7134,8.7286,8.7438,8.7337,8.7184,8.754,8.7438,8.7286,8.7286,8.7337,8.7286,8.7134,8.7337,8.8149,8.886,8.886,9.0235,9.095,9.0468,8.8894,8.5332,8.0791,7.8142,7.5123,7.2622,7.1766,7.1904,7.2146,7.1462,7.1019,7.2025,7.114,7.0335,7.0113,6.9812,6.9329,6.8404,6.7478,6.6772,6.6047,6.5144,6.4299,6.3761,6.356,6.356,6.356,6.356,6.356,6.356,6.3504,6.3282,6.2892,6.2277,6.1678,6.1003,6.0533,6.025,10.7923,10.483,10.357,10.3095,10.3231,10.4487,10.5264,10.5728,10.652,10.7178,10.7643,10.8121,10.8301,10.8295,10.8534,10.7988,10.676,10.5745,10.4976,10.4748,10.5573,10.598,10.598,10.598,10.598,10.5834,10.5142,10.3331,10.0788,9.9789,9.789,9.5242,9.7005,9.6643,9.4387,9.4372,9.3943,9.3224,9.3576,9.3718,9.3045,9.3112,9.3205,9.3261,9.3423,9.2658,9.1348,9.1342,9.1769,9.2318,9.1814,9.1238,9.0787,8.9536,8.9012,8.9525,8.8016,8.7288,8.7946,8.8048,8.7692,8.7032,8.754,8.7692,8.6981,8.693,8.693,8.693,8.693,8.693,8.7134,8.7895,8.8962,8.9879,9.156,9.2572,9.2572,9.1853,8.9717,8.5885,8.1629,7.7326,7.3621,7.2617,7.2266,7.1945,7.1542,7.126,7.1703,7.0939,7.0214,7.0174,6.9691,6.9188,6.8726,6.7478,6.6571,6.5966,6.5185,6.4203,6.36,6.356,6.356,6.356,6.356,6.356,6.356,6.356,6.3282,6.2852,6.2294,6.1678,6.1154,6.0477,6.0232,10.8823,10.5541,10.3733,10.2742,10.2557,10.329,10.4008,10.4427,10.5264,10.5922,10.6281,10.6341,10.6341,10.6295,10.569,10.4978,10.4283,10.4045,10.3751,10.3526,10.4235,10.4642,10.4642,10.4642,10.4642,10.4402,10.3028,10.0496,9.7342,9.619,9.4547,9.3205,9.4163,9.3685,9.1605,9.1852,9.1732,9.08,9.0943,9.0977,9.0589,9.0109,8.9564,8.8998,8.8771,8.9107,8.9905,9.0123,9.0458,9.1015,8.9603,8.8597,8.7997,8.6628,8.6119,8.6677,8.6221,8.6119,8.6677,8.6829,8.6473,8.5864,8.6423,8.6321,8.5864,8.5712,8.5712,8.5661,8.5661,8.5712,8.5915,8.6727,8.7685,8.8308,8.9754,9.0417,9.0017,8.9259,8.7999,8.545,8.1568,7.6938,7.3332,7.2387,7.2186,7.1623,7.122,7.1059,7.0898,7.0233,6.9651,6.951,6.9188,6.8786,6.8786,6.7559,6.653,6.5966,6.5185,6.4243,6.364,6.356,6.356,6.356,6.356,6.356,6.356,6.356,6.3504,6.3059,6.2294,6.1734,6.1284,6.059,6.0232,10.8546,10.6508,10.4604,10.3347,10.2497,10.2557,10.3171,10.4188,10.4247,10.4965,10.5922,10.6042,10.6101,10.5832,10.399,10.3063,10.2999,10.3155,10.3096,10.2955,10.3293,10.3351,10.3351,10.3351,10.3257,10.2629,9.9399,9.5572,9.1768,9.1576,9.1364,9.0844,9.144,9.1075,9.0245,9.0206,9.005,9.006,8.9972,8.9523,8.8701,8.8866,8.8129,8.6705,8.6262,8.6699,8.76,8.8145,8.8649,8.9256,8.7197,8.62,8.6421,8.4645,8.3579,8.3528,8.3579,8.3579,8.3731,8.3884,8.3833,8.3681,8.3935,8.3681,8.3884,8.3884,8.3884,8.3681,8.363,8.3528,8.3681,8.4748,8.5189,8.4958,8.5668,8.5532,8.3796,8.2967,7.9532,7.759,7.5945,7.4066,7.2122,7.1564,7.1421,7.11,7.0617,7.0134,7.0013,6.9389,6.8987,6.8907,6.8867,6.8786,6.8685,6.7537,6.6812,6.6128,6.5064,6.442,6.3922,6.356,6.356,6.356,6.356,6.356,6.356,6.356,6.356,6.3226,6.2501,6.179,6.1341,6.0703,5.9797,10.911,10.7668,10.5661,10.3903,10.2497,10.2497,10.2632,10.2932,10.2932,10.3171,10.347,10.347,10.353,10.347,10.2891,10.2181,10.166,10.1698,10.1316,10.0791,10.1617,10.1966,10.2024,10.1966,10.1216,9.9779,9.8416,9.5258,9.0893,8.9801,8.9082,8.8813,8.9804,9.0294,8.9992,8.9992,8.9992,8.9953,8.922,8.8732,8.8302,8.7047,8.5678,8.4639,8.5042,8.5765,8.6502,8.5925,8.5969,8.6885,8.4879,8.3626,8.3376,8.2816,8.2055,8.1394,8.2004,8.2766,8.3528,8.3579,8.3579,8.3579,8.3579,8.3579,8.3579,8.3579,8.3579,8.3478,8.2107,8.1699,8.236,8.3427,8.4178,8.4446,8.5312,8.5184,8.3273,8.2815,8.0916,7.8417,7.5882,7.4959,7.3117,7.1495,7.0274,6.9791,6.945,6.9208,6.9168,6.8987,6.8786,6.8786,6.8786,6.8565,6.798,6.6852,6.5765,6.5104,6.4621,6.3922,6.368,6.356,6.356,6.356,6.356,6.356,6.356,6.356,6.3504,6.3338,6.2573,6.1565,6.0664,6.0477,5.9304,10.8644,10.7952,10.5767,10.4115,10.2985,10.2568,10.2497,10.2497,10.2497,10.2497,10.2497,10.2497,10.2497,10.2453,10.2218,10.1437,10.0316,10.0036,9.9252,9.8114,9.8767,9.9407,9.9735,9.9091,9.8343,9.7555,9.5814,9.3301,9.0306,8.8096,8.7179,8.7441,8.8661,8.9611,8.9943,8.9992,8.9806,8.9367,8.8732,8.8,8.7024,8.5365,8.4388,8.4297,8.4388,8.4706,8.4936,8.4056,8.3644,8.3994,8.2849,8.2059,8.1756,8.1655,8.1298,8.0431,8.0937,8.1598,8.2157,8.2715,8.2969,8.2919,8.3376,8.3579,8.3579,8.3223,8.3173,8.3376,8.2411,8.1753,8.2162,8.1607,8.1123,8.0846,8.0192,7.9147,7.7746,7.7462,7.6927,7.4913,7.3818,7.2732,7.164,7.0461,6.945,6.8987,6.8826,6.8826,6.8826,6.8786,6.8786,6.8706,6.8202,6.7639,6.7134,6.5805,6.5161,6.4742,6.4179,6.36,6.356,6.356,6.356,6.356,6.356,6.356,6.356,6.356,6.2964,6.1431,6.0813,5.9966,5.811,5.7345,5.5963,10.729,10.6983,10.5063,10.4021,10.36,10.2812,10.2497,10.2497,10.2497,10.2497,10.2393,10.2274,10.2257,10.217,10.1538,10.0387,9.9018,9.8418,9.7392,9.6063,9.5655,9.6161,9.6892,9.5004,9.4594,9.4789,9.1889,9.0085,8.9219,8.6669,8.5733,8.6509,8.7659,8.8781,8.9699,8.9894,8.9464,8.8439,8.8,8.6829,8.4779,8.3808,8.3705,8.4681,8.3705,8.332,8.3222,8.2294,8.1532,8.1118,8.1027,8.0943,8.0955,8.1005,8.0801,8.0232,8.023,8.0279,8.0378,8.1242,8.185,8.1952,8.2817,8.3427,8.3325,8.2463,8.2313,8.2819,8.297,8.2157,8.2051,7.941,7.7327,7.637,7.3917,7.0689,7.0455,6.9477,6.9197,6.8765,6.9164,6.8645,6.8986,6.8866,6.8706,6.8746,6.8786,6.8746,6.8585,6.8605,6.8605,6.8283,6.7237,6.6289,6.6087,6.5403,6.4742,6.4621,6.4098,6.368,6.356,6.356,6.356,6.356,6.356,6.356,6.356,6.3393,6.2517,6.1038,5.9815,5.8281,5.4909,5.3605,5.1904,10.4521,10.4444,10.3253,10.2885,10.3137,10.2667,10.2497,10.2497,10.2437,10.2497,10.2317,10.142,10.0898,10.0778,9.9335,9.8269,9.7618,9.7126,9.6457,9.5757,9.4268,9.3709,9.371,9.1954,9.028,8.8923,8.895,8.7765,8.5869,8.547,8.5206,8.5099,8.6362,8.7659,8.8781,8.9611,8.9464,8.8293,8.5176,8.2729,8.1456,8.1163,8.1114,8.1358,8.1163,8.1017,8.0968,7.9993,7.9619,7.9837,7.9099,7.8907,7.9306,7.9256,7.9403,7.9693,7.9691,7.9838,8.023,8.0482,8.0683,8.0734,8.1749,8.241,8.2311,8.1352,8.0822,8.0763,7.931,7.8103,7.7738,7.6326,7.5034,7.4311,7.3428,7.2051,7.0668,6.9849,6.8992,6.8015,6.7295,6.7255,6.7738,6.79,6.8181,6.8585,6.8786,6.8565,6.8001,6.79,6.7577,6.6933,6.5966,6.5282,6.5201,6.4501,6.3962,6.3841,6.368,6.36,6.356,6.356,6.3504,6.3282,6.3393,6.3282,6.3449,6.3171,6.2462,6.1582,6.0475,5.9229,5.6181,5.3896,5.1138,10.3011,10.3438,10.2366,10.1998,10.2097,10.1885,10.1728,10.148,10.0343,10.0103,10.0522,9.9326,9.9026,9.9463,9.8322,9.7244,9.6304,9.5775,9.4521,9.2725,9.1654,9.0997,9.0489,8.8586,8.7289,8.6711,8.6406,8.5461,8.4134,8.3857,8.4129,8.4797,8.5556,8.7073,8.8928,8.8244,8.7512,8.6878,8.3168,8.0679,7.9602,7.9115,7.8822,7.8822,7.8334,7.8141,7.809,7.7066,7.6386,7.6241,7.57,7.5796,7.6776,7.6826,7.7366,7.84,7.8901,7.8799,7.8084,7.8536,7.8888,7.8939,8.0802,8.1457,7.9945,7.9754,7.9285,7.8262,7.7403,7.6177,7.4954,7.3682,7.2633,7.2058,7.0968,7.003,6.9361,6.8862,6.8486,6.822,6.772,6.7639,6.8082,6.7859,6.7859,6.8082,6.784,6.7478,6.7094,6.6459,6.5861,6.561,6.4693,6.4155,6.4243,6.3841,6.36,6.356,6.356,6.356,6.356,6.356,6.2908,6.1807,6.1375,6.1358,6.102,6.0852,6.057,6.0249,5.9513,5.7423,5.4328,5.214,4.9259,10.1412,10.2633,10.1263,10.073,10.0766,10.0646,10.0466,9.9984,9.7231,9.6753,9.7889,9.6614,9.6753,9.7824,9.7208,9.6068,9.4467,9.4256,9.2208,8.868,8.8636,8.822,8.7287,8.5235,8.4804,8.5598,8.4178,8.3275,8.3072,8.2358,8.2789,8.426,8.4434,8.5999,8.8635,8.6487,8.4925,8.4437,8.1407,7.9407,7.8532,7.7653,7.7116,7.6821,7.6042,7.5456,7.5261,7.414,7.3165,7.238,7.2185,7.2715,7.4025,7.3927,7.4556,7.6022,7.6867,7.6618,7.5119,7.5916,7.6612,7.7013,7.9655,7.9653,7.5891,7.6585,7.6623,7.4862,7.4786,7.4407,7.233,7.0686,6.9676,6.9141,6.7489,6.6629,6.7413,6.7435,6.7677,6.8202,6.8484,6.8363,6.8404,6.802,6.7698,6.7698,6.7416,6.6611,6.6414,6.5053,6.4307,6.4546,6.38,6.329,6.3697,6.3682,6.3802,6.3754,6.3762,6.3674,6.3505,6.3273,6.212,5.955,5.8925,5.8509,5.8053,5.7689,5.7236,5.6675,5.6389,5.4653,5.0098,4.8862,4.7495,9.7159,9.8381,9.7536,9.7984,9.9235,9.864,9.8539,9.8607,9.4898,0.0,0.0,9.3821,9.38,9.4649,9.3456,9.207,9.0744,9.2194,9.0615,8.6679,8.6634,8.5744,8.3962,8.2079,8.1219,8.1424,8.1999,8.1809,8.0903,8.165,8.173,8.1238,8.1118,8.2334,8.4535,8.4974,8.3852,8.1163,7.8922,7.7604,7.7458,7.7263,7.6576,7.5303,7.511,7.4528,7.3559,7.2494,7.2006,7.2284,7.1501,7.1156,7.1395,7.0521,7.0403,7.1139,7.0496,7.0873,7.2718,7.3017,7.3915,7.5617,7.7163,7.4869,6.7458,6.8474,6.9341,6.8934,6.8057,6.7366,6.6918,6.6278,6.5914,6.5841,6.6075,6.6329,6.649,6.653,6.6571,6.6691,6.6852,6.7014,6.7779,6.7698,6.7859,6.8323,6.772,6.7376,6.7178,6.5581,6.433,6.4407,6.3881,6.3881,6.4094,6.39,6.4423,6.4323,6.4189,6.396,6.3321,6.2355,6.1068,5.8863,5.7709,5.6677,5.6353,5.5128,5.4121,5.3478,5.2882,5.1427,4.8172,4.7152,4.6256,9.4186,9.4679,9.3245,9.2979,0.0,9.364,9.2975,9.1592,9.0179,9.029,9.1448,9.0635,9.0327,9.0486,8.9455,8.8361,8.7407,8.8014,8.6997,8.4664,8.4671,8.3603,8.1673,8.0713,8.0279,8.0279,8.0886,8.0845,8.0301,8.0304,8.0595,8.1014,8.0595,8.0822,8.1948,8.351,8.2485,7.8724,7.7165,7.6385,7.6385,7.56,7.4722,7.3993,7.37,0.0,0.0,0.0,0.0,0.0,0.0,0.0,0.0,6.8672,0.0,6.7104,6.5405,6.4523,6.4723,6.5139,6.6239,6.821,6.8717,6.6775,6.1931,6.278,6.3415,6.3053,6.2884,6.2667,6.2647,6.3153,6.352,6.3615,6.438,6.5104,6.5523,6.5604,6.5765,6.6208,6.6691,6.7094,6.7577,6.7618,6.7819,6.8082,6.7202,6.6426,6.6348,6.5644,6.4683,6.3942,6.2828,6.1906,6.212,6.1255,6.023,6.055,6.0137,5.9621,5.9171,5.8036,5.6433,5.4317,5.2809,5.1786,5.1475,5.0785,5.0399,5.1212,5.1259,4.9729,4.5901,4.4736,4.4071,9.1323,9.1343,8.9425,8.8342,8.7809,8.7529,8.6054,8.3876,8.4918,8.5868,8.6841,8.6834,8.6616,8.6359,8.5861,8.5039,8.4172,8.4118,8.3368,8.2034,8.2408,8.1521,7.9667,7.9619,7.9667,7.9667,7.9667,7.9623,7.9632,7.8802,7.9256,8.0888,8.0114,7.9797,8.009,0.0,0.0,0.0,7.6238,7.5847,7.5748,7.448,7.3557,7.3072,7.2681,0.0,7.2152,7.2206,7.1774,7.081,7.0111,0.0,0.0,0.0,0.0,0.0,0.0,0.0,0.0,0.0,0.0,0.0,5.8894,5.7761,5.6629,5.7789,5.8204,5.7483,5.821,5.8653,5.8467,5.9954,6.1027,6.1228,6.2193,6.3213,6.4074,6.4299,6.4742,6.5685,6.6571,6.7134,6.7295,6.7537,6.7618,6.7441,6.6489,6.5681,6.5328,6.5388,6.5085,6.3872,6.215,6.0744,6.0897,5.8903,5.766,5.6681,5.6017,5.5289,5.5127,5.3999,5.1824,4.9762,4.8072,4.7461,4.7129,4.6606,4.7191,4.894,4.9225,4.799,4.3877,4.2667,4.2354,8.7581,8.8504,8.7014,8.6895,8.7422,8.1506,7.9339,7.9859,8.0165,8.0352,8.0545,8.1528,8.2532,8.3379,8.3724,8.267,8.0764,8.2597,8.1387,7.7988,7.9545,7.927,7.7431,7.738,7.7384,7.7431,7.7431,7.7416,7.7407,7.7312,7.7372,7.7758,7.7606,7.7993,7.8871,7.8288,7.7313,7.5848,7.658,7.6721,7.6319,7.6074,7.509,7.3232,7.3035,7.2559,7.1661,7.0006,6.8725,6.814,6.6623,6.5391,6.4467,6.1006,5.7908,0.0,5.1486,0.0,0.0,0.0,0.0,0.0,0.0,0.0,0.0,5.2314,5.3418,5.2666,5.3414,5.397,5.3932,5.5447,5.6725,5.758,5.9149,6.057,6.1456,6.2167,6.2917,6.3801,6.4702,6.5604,6.6248,6.7175,6.7382,6.6829,6.6712,6.6077,6.5085,6.4592,6.4428,6.4816,6.4411,6.2513,6.2043,6.0519,5.881,5.8605,5.6293,5.4888,5.3897,5.2324,5.0751,4.9615,4.7409,4.616,4.6789,4.5804,4.5091,4.4926,4.4956,4.44,4.2868,4.2638,4.2979,8.1564,8.1459,8.0315,7.95,7.8708,7.5559,7.4568,7.5114,7.5341,7.589,7.6684,7.7325,7.7615,7.7629,7.8311,7.7437,7.5687,7.723,7.6969,7.519,7.6044,7.6308,7.5963,7.5963,7.6364,7.6974,7.7025,7.6853,7.6499,7.6261,7.633,7.6732,7.6485,7.609,7.5696,7.5259,7.5552,7.6433,7.6335,7.5698,7.4573,7.398,7.3244,7.2273,7.1928,7.1591,7.1122,7.0002,6.9296,6.9057,6.7694,6.555,6.2496,5.8643,5.4371,0.0,0.0,0.0,0.0,0.0,0.0,0.0,0.0,0.0,0.0,0.0,4.7669,4.8301,5.0755,5.1871,5.09,5.2389,5.3395,5.3274,5.4489,5.5616,5.6502,5.7969,5.9147,5.9861,6.1695,6.2931,6.2891,6.4449,6.5376,6.4836,6.3127,6.1562,6.0392,5.9649,5.9274,5.9274,5.8797,5.7759,5.5794,5.338,5.1615,5.1356,5.0043,4.868,4.8073,4.6593,4.5339,4.462,4.3313,4.2283,4.2544,4.2382,4.2268,4.1984,4.2126,4.2496,4.2667,4.2638,4.2866,7.6585,7.5653,7.3357,7.1558,7.0143,7.0154,7.0447,7.0928,7.0873,7.1456,7.2524,7.3284,7.2937,7.1742,7.2186,7.1412,7.0013,7.1385,7.2198,7.2503,7.2706,7.3265,7.4027,7.4027,7.4688,7.5704,7.5363,7.5295,7.5585,7.4567,7.4501,7.5209,7.3944,7.2639,7.139,7.1677,7.3172,7.5697,7.5359,7.4481,7.3124,7.2103,7.1466,7.1368,7.0974,7.0636,7.0402,6.9903,6.9389,6.887,6.705,6.4023,5.9816,5.5271,0.0,0.0,0.0,0.0,0.0,0.0,0.0,0.0,0.0,3.6509,3.7334,0.0,4.2355,0.0,4.7444,4.9492,4.8765,4.9532,0.0,0.0,4.9687,5.0329,5.1074,5.2893,5.4366,5.5162,5.7607,5.918,5.9049,6.0944,6.1975,6.0771,5.7974,5.5869,5.5417,5.4651,5.4168,5.4203,5.3534,5.1901,5.0242,4.7708,4.6491,4.5477,4.4564,4.3634,4.3207,4.2211,4.1358,4.1017,4.028,3.9939,4.0363,4.028,4.0393,3.9993,4.0422,4.1301,4.224,4.2325,4.2439,7.4501,7.3855,6.7487,6.5062,6.5463,6.5445,6.6472,6.806,6.7001,6.6644,6.6888,6.9048,6.8836,6.6813,6.6038,0.0,6.4323,6.6457,6.7981,6.9048,7.0013,7.0471,7.0572,7.0572,7.1182,7.235,7.0844,7.147,7.3727,7.1477,7.0844,7.1911,6.8508,6.6298,6.5711,6.7108,6.9048,7.1439,7.3074,7.3703,7.3075,7.2054,7.1319,7.0779,7.0776,7.0309,6.9326,6.8345,6.7037,6.5164,6.1197,5.756,5.4453,0.0,0.0,0.0,0.0,0.0,0.0,0.0,0.0,0.0,0.0,0.0,0.0,0.0,0.0,3.8647,4.2176,0.0,4.7518,4.6474,0.0,0.0,0.0,4.5188,4.5525,4.6992,4.8579,5.0311,0.0,0.0,5.5706,5.7058,5.6819,5.3909,5.2714,5.2061,5.1932,5.1958,5.2313,5.198,5.1665,5.1273,5.0183,4.9756,4.8537,4.6349,4.4718,4.3094,4.2952,4.2354,4.2325,4.2496,4.1842,4.1273,4.2553,4.1529,4.0619,3.8964,3.9509,4.0308,4.0535,4.1358,4.2069,6.7542,6.2931,5.8793,5.7461,5.8128,5.8288,6.0266,6.3333,6.2572,6.2633,6.3312,6.3044,6.1707,5.9518,5.7814,0.0,0.0,0.0,6.2456,6.365,6.5379,6.6914,6.8184,6.8896,6.981,7.0783,6.9992,7.0322,7.1734,7.0441,6.6989,6.1459,0.0,5.7288,5.871,6.0906,6.4018,6.7879,6.8475,6.9553,7.115,6.8945,6.8136,6.8858,6.8251,6.7737,6.7317,6.5775,6.3539,6.0497,5.715,5.2473,0.0,0.0,0.0,0.0,0.0,0.0,0.0,0.0,0.0,0.0,0.0,2.9293,2.8837,0.0,0.0,0.0,3.5063,3.6731,4.0348,4.194,0.0,0.0,0.0,0.0,0.0,0.0,0.0,4.404,4.8055,5.1057,5.1804,4.9635,4.7446,4.6101,4.564,4.541,4.5214,0.0,4.4621,4.5297,4.4026,4.3246,4.3886,4.3333,4.2593,4.1892,4.1163,4.0704,4.0417,4.0132,3.9933,3.9762,3.9363,3.9111,3.9676,3.9363,3.877,3.8537,3.8566,3.8855,3.9541,4.0107,4.0704,5.9225,0.0,0.0,0.0,0.0,5.1492,5.3577,5.6605,5.6531,5.6806,5.7249,5.5821,0.0,0.0,0.0,0.0,0.0,0.0,5.7987,5.8973,6.2748,6.4831,6.5452,6.6609,6.7524,6.8194,6.7091,6.7087,6.792,6.5419,5.9917,5.1807,0.0,0.0,0.0,0.0,5.8468,6.3061,6.4799,6.625,6.7708,6.6154,6.579,6.6696,6.629,6.5545,6.4437,6.2622,6.003,5.6675,5.2353,0.0,0.0,0.0,0.0,0.0,0.0,0.0,0.0,0.0,0.0,0.0,0.0,0.0,0.0,0.0,0.0,0.0,0.0,0.0,3.4767,3.769,3.8455,0.0,0.0,0.0,0.0,0.0,0.0,0.0,0.0,0.0,4.5525,4.2849,4.0983,0.0,0.0,4.0185,3.9928,3.9135,3.8743,3.9581,3.8147,0.0,3.7837,3.7376,3.7148,3.7825,3.84,3.8713,3.8509,3.8167,3.7825,3.7626,3.7512,3.7255,3.6608,3.638,3.66,3.6942,3.6743,3.6722,3.7467,3.7837,3.8234,0.0,0.0,0.0,0.0,0.0,0.0,0.0,0.0,4.8524,4.8506,0.0,4.764,0.0,0.0,0.0,0.0,4.5596,5.2085,0.0,0.0,6.2951,6.4995,6.2164,6.3154,6.3713,6.3573,6.083,6.0312,6.1424,5.4312,0.0,0.0,0.0,0.0,0.0,0.0,5.2394,5.6598,6.2665,6.4827,6.2682,6.425,6.5069,6.4637,6.5494,6.4207,6.0613,5.8598,5.6542,5.4105,4.6137,0.0,0.0,0.0,0.0,0.0,0.0,0.0,0.0,0.0,0.0,0.0,0.0,0.0,0.0,0.0,0.0,0.0,0.0,0.0,0.0,3.406,0.0,0.0,0.0,0.0,0.0,0.0,0.0,0.0,0.0,3.6707,3.6219,3.7713,3.9204,3.9735,0.0,0.0,0.0,0.0,3.6568,3.6584,3.5977,3.5442,3.4882,3.5271,3.584,3.6466,0.0,0.0,3.8389,3.7426,3.6743,3.7369,3.7341,3.6743,3.4172,3.3746,3.3775,3.3803,3.3803,3.3775,3.386,3.4428,3.4968,0.0,0.0,0.0,0.0,0.0,0.0,0.0,0.0,0.0,4.339,0.0,4.2213,0.0,0.0,0.0,0.0,0.0,0.0,0.0,0.0,5.4205,5.6758,5.7286,5.7499,5.7701,0.0,5.541,5.2085,0.0,0.0,0.0,0.0,0.0,0.0,0.0,0.0,4.8876,5.2957,5.7174,6.0151,6.1553,6.0465,6.0414,6.1583,6.1484,5.9525,5.5479,5.2729,4.9257,0.0,0.0,0.0,0.0,0.0,0.0,0.0,0.0,0.0,0.0,0.0,0.0,0.0,0.0,0.0,0.0,0.0,0.0,0.0,0.0,0.0,0.0,0.0,3.2857,0.0,0.0,0.0,0.0,0.0,0.0,0.0,0.0,0.0,3.0179,3.2023,3.3788,3.4563,3.4692,3.4777,3.4842,0.0,0.0,0.0,0.0,0.0,0.0,0.0,3.3866,3.4065,3.4293,3.4568,3.4796,3.4065,3.3724,3.435,0.0,0.0,3.1076,3.0934,3.1204,3.1218,3.1218,3.1318,3.1758,3.2013,3.2398,0.0,0.0,0.0,0.0,0.0,0.0,0.0,0.0,0.0,3.7653,3.7148,0.0,0.0,0.0,0.0,0.0,0.0,0.0,0.0,0.0,0.0,0.0,5.1098,5.1192,0.0,0.0,0.0,0.0,0.0,0.0,0.0,0.0,0.0,0.0,0.0,0.0,4.5567,4.9149,5.3493,5.6586,5.8345,5.718,5.715,5.8521,5.7111,5.5301,5.3024,0.0,0.0,0.0,0.0,0.0,0.0,0.0,0.0,0.0,0.0,0.0,0.0,0.0,0.0,0.0,0.0,0.0,0.0,0.0,0.0,0.0,0.0,0.0,0.0,0.0,3.0532,0.0,0.0,0.0,0.0,0.0,0.0,0.0,0.0,0.0,0.0,0.0,2.9635,3.0733,3.2058,3.2991,3.3353,3.3491,3.3917,0.0,0.0,0.0,0.0,0.0,0.0,0.0,0.0,0.0,0.0,0.0,0.0,0.0,0.0,2.9155,2.7658,2.7781,2.8027,2.7913,0.0,0.0,0.0,0.0,0.0,0.0,0.0,0.0,0.0,0.0,0.0,0.0,0.0,0.0,0.0,2.9987,0.0,0.0,2.7769,0.0,0.0,0.0,0.0,0.0,0.0,0.0,0.0,0.0,0.0,0.0,0.0,0.0,0.0,0.0,0.0,0.0,0.0,0.0,0.0,0.0,0.0,4.2522,4.5027,5.1892,5.4585,5.2743,5.4497,5.5439,5.5487,5.2761,5.1939,5.3119,0.0,0.0,0.0,0.0,0.0,0.0,0.0,0.0,0.0,0.0,0.0,0.0,0.0,0.0,0.0,0.0,0.0,0.0,0.0,0.0,0.0,0.0,0.0,0.0,0.0,0.0,2.8938,2.8336,2.6987,0.0,0.0,0.0,0.0,0.0,0.0,0.0,0.0,0.0,2.8708,3.0565,3.2043,3.267,3.3251,3.3502,3.3559,3.3223,3.2755,3.217,3.2087,3.2087,0.0,0.0,0.0,0.0,0.0,0.0,0.0,0.0,0.0,0.0,0.0,0.0,0.0,0.0,0.0,0.0,0.0,0.0,0.0,0.0,0.0,0.0,0.0,0.0,0.0,0.0,0.0,0.0,0.0,0.0,0.0,0.0,0.0,0.0,0.0,0.0,0.0,0.0,0.0,0.0,0.0,0.0,0.0,0.0,0.0,0.0,0.0,0.0,0.0,0.0,0.0,0.0,0.0,0.0,4.2443,4.4904,5.0537,5.3101,5.2506,5.2573,5.2567,5.2528,4.9987,4.7864,0.0,0.0,0.0,0.0,0.0,0.0,0.0,0.0,0.0,0.0,0.0,0.0,0.0,0.0,0.0,0.0,0.0,0.0,0.0,0.0,0.0,0.0,0.0,0.0,0.0,0.0,0.0,0.0,2.9065,2.8438,2.4828,0.0,0.0,0.0,0.0,0.0,0.0,0.0,0.0,0.0,0.0,2.9815,3.0555,3.1308,3.1757,3.1494,3.1748,3.1741,3.1093,3.1296,3.1252,3.0446,0.0,0.0,0.0,0.0,0.0,0.0,0.0,0.0,0.0,0.0,0.0,0.0,0.0,0.0,0.0,0.0,0.0,0.0,0.0,0.0,0.0,0.0,0.0,0.0,0.0,0.0,0.0,0.0,0.0,0.0,0.0,0.0,0.0,0.0,0.0,0.0,0.0,0.0,0.0,0.0,0.0,0.0,0.0,0.0,0.0,0.0,0.0,0.0,0.0,0.0,0.0,0.0,0.0,4.1837,4.404,4.8967,5.1509,5.1509,5.1016,5.0646,5.0352,4.8482,4.5726,0.0,0.0,0.0,0.0,0.0,0.0,0.0,0.0,0.0,0.0,0.0,0.0,0.0,0.0,0.0,0.0,0.0,0.0,0.0,0.0,0.0,0.0,0.0,0.0,0.0,0.0,0.0,0.0,2.7004,2.6957,2.4758,0.0,0.0,0.0,0.0,0.0,0.0,0.0,0.0,0.0,0.0,2.8327,2.9227,3.023,0.0,0.0,3.0661,3.0682,3.026,3.0702,3.0594,2.9165,2.8489,0.0,0.0,0.0,0.0,0.0,0.0,0.0,0.0,0.0,0.0,0.0,0.0,0.0,0.0,0.0,0.0,0.0,0.0,0.0,0.0,0.0,0.0,0.0,0.0,0.0,0.0,0.0,0.0,0.0,0.0,0.0,0.0,0.0,0.0,0.0,0.0,0.0,0.0,0.0,0.0,0.0,0.0,0.0,0.0,0.0,0.0,0.0,0.0,0.0,0.0,0.0,0.0,4.0814,4.2676,4.7374,4.9916,4.9878,4.9916,4.946,4.8718,4.7723,4.4913,0.0,0.0,0.0,0.0,0.0,0.0,0.0,0.0,0.0,0.0,0.0,0.0,0.0,0.0,0.0,0.0,0.0,0.0,0.0,0.0,0.0,0.0,0.0,0.0,0.0,0.0,0.0,0.0,0.0,0.0,0.0,0.0,0.0,0.0,0.0,0.0,0.0,0.0,0.0,0.0,0.0,2.7289,2.8381,2.9566,3.0259,0.0,2.9855,2.9623,2.9623,3.0128,2.9969,2.8214,0.0,0.0,0.0,0.0,0.0,0.0,0.0,0.0,0.0,0.0,0.0,0.0,0.0,0.0,0.0,0.0,0.0,0.0,0.0,0.0,0.0,0.0,0.0,0.0,0.0,0.0,0.0,0.0,0.0,0.0,0.0,0.0,0.0,0.0,0.0,0.0,0.0,0.0,0.0,0.0,0.0,0.0,0.0,0.0,0.0,0.0,0.0,0.0,0.0,0.0,0.0,0.0,0.0,0.0,4.2559,4.6894,4.9098,4.9052,4.9098,4.868,4.7761,4.5743,0.0,0.0,0.0,0.0,0.0,0.0,0.0,0.0,0.0,0.0,0.0,0.0,0.0,0.0,0.0,0.0,0.0,0.0,0.0,0.0,0.0,0.0,0.0,0.0,0.0,0.0,0.0,1.9779,0.0,0.0,0.0,0.0,0.0,0.0,0.0,0.0,0.0,0.0,0.0,0.0,0.0,0.0,2.5543,2.6332,2.7376,2.791,0.0,0.0,2.7954,2.7996,2.8451,2.8372,0.0,0.0,0.0,0.0,0.0,0.0,0.0,0.0,0.0,0.0,0.0,0.0,0.0,0.0,0.0,0.0,0.0,0.0,0.0,0.0,0.0,0.0,0.0,0.0,0.0,0.0,0.0,0.0,0.0,0.0,0.0,0.0,0.0,0.0,0.0,0.0,0.0,0.0,0.0,0.0,0.0,0.0,0.0,0.0,0.0,0.0,0.0,0.0,0.0,0.0,0.0,0.0,0.0,0.0,3.9446,4.2028,4.5754,4.7882,4.814,4.8224,4.7761,4.6963,4.4875,4.1988,0.0,0.0,0.0,0.0,0.0,0.0,0.0,0.0,0.0,0.0,0.0,0.0,0.0,0.0,0.0,0.0,0.0,0.0,0.0,0.0,0.0,0.0,0.0,0.0,0.0,0.0,0.0,0.0,0.0,0.0,0.0,0.0,0.0,0.0,0.0,0.0,0.0,0.0,0.0,0.0,0.0,0.0,2.524,2.6032,0.0,0.0,0.0,2.7009,2.6968,0.0,0.0,0.0,0.0,0.0,0.0,0.0,0.0,0.0,0.0,0.0,0.0,0.0,0.0,0.0,0.0,0.0,0.0,0.0,0.0,0.0,0.0,0.0,0.0,0.0,0.0,0.0,0.0,0.0,0.0,0.0,0.0,0.0,0.0,0.0,0.0,0.0,0.0,0.0,0.0,0.0,0.0,0.0,0.0,0.0,0.0,0.0,0.0,0.0,0.0,0.0,0.0,0.0,0.0,0.0,0.0,0.0,4.123,4.4458,4.6508,4.7223,4.7343,4.6919,4.6242,4.4724,4.1912,0.0,0.0,0.0,0.0,0.0,0.0,0.0,0.0,0.0,0.0,0.0,0.0,0.0,0.0,0.0,0.0,0.0,0.0,0.0,0.0,0.0,0.0,0.0,0.0,0.0,0.0,0.0,0.0,0.0,0.0,0.0,0.0,0.0,0.0,0.0,0.0,0.0,0.0,0.0,0.0,0.0,2.4058,2.4667,2.5177,2.5451,0.0,0.0,2.619,2.6151,2.6125,0.0,0.0,0.0,0.0,0.0,0.0,0.0,0.0,0.0,0.0,0.0,0.0,0.0,0.0,0.0,0.0,0.0,0.0,0.0,0.0,0.0,0.0,0.0,0.0,0.0,0.0,0.0,0.0,0.0,0.0,0.0,0.0,0.0,0.0,0.0,0.0,0.0,0.0,0.0,0.0,0.0,0.0,0.0,0.0,0.0,0.0,0.0,0.0,0.0,0.0,0.0,0.0,0.0,0.0,0.0,0.0,4.1153,4.3888,4.5716,4.6432,4.6508,4.6432,4.6242,4.5336,4.2787,0.0,0.0,0.0,0.0,0.0,0.0,0.0,0.0,0.0,0.0,0.0,0.0,0.0,0.0,0.0,0.0,0.0,0.0,0.0,0.0,0.0,0.0,0.0,0.0,0.0,0.0,0.0,0.0,0.0,0.0,0.0,0.0,0.0,0.0,0.0,0.0,0.0,0.0,0.0,0.0,0.0,2.3486,2.4022,2.424,0.0,0.0,0.0,0.0,2.4401,2.4438,0.0,0.0,0.0,0.0,0.0,0.0,0.0,0.0,0.0,0.0,0.0,0.0,0.0,0.0,0.0,0.0,0.0,0.0,0.0,0.0,0.0,0.0,0.0,0.0,0.0,0.0,0.0,0.0,0.0,0.0,0.0,0.0,0.0,0.0,0.0,0.0,0.0,0.0,0.0,0.0,0.0,0.0,0.0,0.0,0.0,0.0,0.0,0.0,0.0,0.0,0.0,0.0,0.0,0.0,0.0,0.0,4.1077,4.2977,4.4652,4.6166,4.5862,4.5781,4.6204,4.4728,4.2218,0.0,0.0,0.0,0.0,0.0,0.0,0.0,0.0,0.0,0.0,0.0,0.0,0.0,0.0,0.0,0.0,0.0,0.0,0.0,0.0,0.0,0.0,0.0,0.0,0.0,0.0,0.0,0.0,0.0,0.0,0.0,0.0,0.0,0.0,0.0,0.0,0.0,0.0,0.0,0.0,2.2275,2.2776,2.3001,0.0,0.0,0.0,0.0,0.0,0.0,2.3416,2.3087,0.0,0.0,0.0,0.0,0.0,0.0,0.0,0.0,0.0,0.0,0.0,0.0,0.0,0.0,0.0,0.0,0.0,0.0,0.0,0.0,0.0,0.0,0.0,0.0,0.0,0.0,0.0,0.0,0.0,0.0,0.0,0.0,0.0,0.0,0.0,0.0,0.0,0.0,0.0,0.0,0.0,0.0,0.0,0.0,0.0,0.0,0.0,0.0,0.0,0.0,0.0,0.0,0.0,0.0,0.0,4.0509,4.1914,4.3702,4.5976,4.5554,4.5667,4.6356,4.4306,4.1762,3.8764,0.0,0.0,0.0,0.0,0.0,0.0,0.0,0.0,0.0,0.0,0.0,0.0,0.0,0.0,0.0,0.0,0.0,0.0,0.0,0.0,0.0,0.0,0.0,0.0,0.0,0.0,0.0,0.0,0.0,0.0,0.0,0.0,0.0,0.0,0.0,0.0,0.0,0.0,0.0,2.1607,2.2041,0.0,0.0,0.0,0.0,0.0,0.0,0.0,0.0,2.2197,0.0,0.0,0.0,0.0,0.0,0.0,0.0,0.0,0.0,0.0,0.0,0.0,0.0,0.0,0.0,0.0,0.0,0.0,0.0,0.0,0.0,0.0,0.0,0.0,0.0,0.0,0.0,0.0,0.0,0.0,0.0,0.0,0.0,0.0,0.0,0.0,0.0,0.0,0.0,0.0,0.0,0.0,0.0,0.0,0.0,0.0,0.0,0.0,0.0,0.0,0.0,0.0,0.0,0.0,0.0,0.0,4.108,4.3395,4.5098,4.6388,4.7109,4.7185,4.6242,4.3471,3.8802,0.0,0.0,0.0,0.0,0.0,0.0,0.0,0.0,0.0,0.0,0.0,0.0,0.0,0.0,0.0,0.0,0.0,0.0,0.0,0.0,0.0,0.0,0.0,0.0,0.0,0.0,0.0,0.0,0.0,0.0,0.0,0.0,0.0,0.0,0.0,0.0,0.0,0.0,1.9221,2.0573,0.0,0.0,0.0,0.0,0.0,0.0,0.0,0.0,2.1607,0.0,0.0,0.0,0.0,0.0,0.0,0.0,0.0,0.0,0.0,0.0,0.0,0.0,0.0,0.0,0.0,0.0,0.0,0.0,0.0,0.0,0.0,0.0,0.0,0.0,0.0,0.0,0.0,0.0,0.0,0.0,0.0,0.0,0.0,0.0,0.0,0.0,0.0,0.0,0.0,0.0,0.0,0.0,0.0,0.0,0.0,0.0,0.0,0.0,0.0,0.0,0.0,0.0,0.0,0.0,0.0,0.0,0.0,4.2901,4.4951,4.5705,4.6312,4.6736,4.5222,4.2332,0.0,0.0,0.0,0.0,0.0,0.0,0.0,0.0,0.0,0.0,0.0,0.0,0.0,0.0,0.0,0.0,0.0,0.0,0.0,0.0,0.0,0.0,0.0,0.0,0.0,0.0,0.0,0.0,0.0,0.0,0.0,0.0,0.0,0.0,0.0,0.0,0.0,0.0,0.0,0.0,0.0,0.0,0.0,0.0,0.0,0.0,0.0,0.0,0.0,0.0,0.0,0.0,0.0,0.0,0.0,0.0,0.0,0.0,0.0,0.0,0.0,0.0,0.0,0.0,0.0,0.0,0.0,0.0,0.0,0.0,0.0,0.0,0.0,0.0,0.0,0.0,0.0,0.0,0.0,0.0,0.0,0.0,0.0,0.0,0.0,0.0,0.0,0.0,0.0,0.0,0.0,0.0,0.0,0.0,0.0,0.0,0.0,0.0,0.0,0.0,0.0,0.0,0.0,0.0,0.0,0.0,0.0,0.0,4.2368,4.4728,4.5212,4.5705,4.6248,4.3512,4.051,0.0,0.0,0.0,0.0,0.0,0.0,0.0,0.0,0.0,0.0,0.0,0.0,0.0,0.0,0.0,0.0,0.0,0.0,0.0,0.0,0.0,0.0,0.0,0.0,0.0,0.0,0.0,0.0,0.0,0.0,0.0,0.0,0.0,0.0,0.0,0.0,0.0,0.0,0.0,0.0,0.0,0.0,0.0,0.0,0.0,0.0,0.0,0.0,2.1145,0.0,0.0,0.0,0.0,0.0,0.0,0.0,0.0,0.0,0.0,0.0,0.0,0.0,0.0,0.0,0.0,0.0,0.0,0.0,0.0,0.0,0.0,0.0,0.0,0.0,0.0,0.0,0.0,0.0,0.0,0.0,0.0,0.0,0.0,0.0,0.0,0.0,0.0,0.0,0.0,0.0,0.0,0.0,0.0,0.0,0.0,0.0,0.0,0.0,0.0,0.0,0.0,0.0,0.0,0.0,0.0,0.0,0.0,0.0,4.2064,4.3809,4.6052,4.6888,4.621,4.2372,3.9066,0.0,0.0,0.0,0.0,0.0,0.0,0.0,0.0,0.0,0.0,0.0,0.0,0.0,0.0,0.0,0.0,0.0,0.0,0.0,0.0,0.0,0.0,0.0,0.0,0.0,0.0,0.0,0.0,0.0,0.0,0.0,0.0,0.0,0.0,0.0,0.0,0.0,0.0,0.0,0.0,0.0,0.0,0.0,0.0,0.0,0.0,0.0,0.0,0.0,0.0,0.0,0.0,0.0,0.0,0.0,0.0,0.0,0.0,0.0,0.0,0.0,0.0,0.0,0.0,0.0,0.0,0.0,0.0,0.0,0.0,0.0,0.0,0.0,0.0,0.0,0.0,0.0,0.0,0.0,0.0,0.0,0.0,0.0,0.0,0.0,0.0,0.0,0.0,0.0,0.0,0.0,0.0,0.0,0.0,0.0,0.0,0.0,0.0,0.0,0.0,0.0,0.0,0.0,0.0,0.0,0.0,0.0,0.0,4.0092,4.2254,4.4264,4.4686,4.3354,4.0244,3.7358,0.0,0.0,0.0,0.0,0.0,0.0,0.0,0.0,0.0,0.0,0.0,0.0,0.0,0.0,0.0,0.0,0.0,0.0,0.0,0.0,0.0,0.0,0.0,0.0,0.0,0.0,0.0,0.0,0.0,0.0,0.0,0.0,0.0,0.0,0.0,0.0,0.0,0.0,0.0,0.0,0.0,0.0,0.0,0.0,0.0,0.0,0.0,0.0,0.0,0.0,0.0,0.0,0.0,0.0,0.0,0.0,0.0,0.0,0.0,0.0,0.0,0.0,0.0,0.0,0.0,0.0,0.0,0.0,0.0,0.0,0.0,0.0,0.0,0.0,0.0,0.0,0.0,0.0,0.0,0.0,0.0,0.0,0.0,0.0,0.0,0.0,0.0,0.0,0.0,0.0,0.0,0.0,0.0,0.0,0.0,0.0,0.0,0.0,0.0,0.0,0.0,0.0,0.0,0.0,0.0,0.0,0.0,0.0,0.0,4.0471,4.1761,4.1799,4.0585,3.8383,3.5991,0.0,0.0,0.0,0.0,0.0,0.0,0.0,0.0,0.0,0.0,0.0,0.0,0.0,0.0,0.0,0.0,0.0,0.0,0.0,0.0,0.0,0.0,0.0,0.0,0.0,0.0,0.0,0.0,0.0,0.0,0.0,0.0,0.0,0.0,0.0,0.0,0.0,0.0,0.0,0.0,0.0,0.0,0.0,0.0,0.0,0.0,0.0,0.0,0.0,0.0,0.0,0.0,0.0,0.0,0.0,0.0,0.0,0.0,0.0,0.0,0.0,0.0,0.0,0.0,0.0,0.0,0.0,0.0,0.0,0.0,0.0,0.0,0.0,0.0,0.0,0.0,0.0,0.0,0.0,0.0,0.0,0.0,0.0,0.0,0.0,0.0,0.0,0.0,0.0,0.0,0.0,0.0,0.0,0.0,0.0,0.0,0.0,0.0,0.0,0.0,0.0,0.0,0.0,0.0,0.0,0.0,0.0,0.0,0.0,3.8764,3.8953,3.8916,3.8802,3.7098,3.5085,0.0,0.0,0.0,0.0,0.0,0.0,0.0,0.0,0.0,0.0,0.0,0.0,0.0,0.0,0.0,0.0,0.0,0.0,0.0,0.0,0.0,0.0,0.0,0.0,0.0,0.0,0.0,0.0,0.0,0.0,0.0,0.0,0.0,0.0,0.0,0.0,0.0,0.0,0.0,0.0,0.0,0.0,0.0,0.0,0.0,0.0,0.0,0.0,0.0,0.0,0.0,0.0,0.0,0.0,0.0,0.0,0.0,0.0,0.0,0.0,0.0,0.0,0.0,0.0,0.0,0.0,0.0,0.0,0.0,0.0,0.0,0.0,0.0,0.0,0.0,0.0,0.0,0.0,0.0,0.0,0.0,0.0,0.0,0.0,0.0,0.0,0.0,0.0,0.0,0.0,0.0,0.0,0.0,0.0,0.0,0.0,0.0,0.0,0.0,0.0,0.0,0.0,0.0,0.0,0.0,0.0,0.0,0.0,0.0,3.6371,3.6868,3.7133,3.706,3.554,3.3524,3.0959,0.0,0.0,0.0,0.0,0.0,0.0,0.0,0.0,0.0,0.0,0.0,0.0,0.0,0.0,0.0,0.0,0.0,0.0,0.0,0.0,0.0,0.0,0.0,0.0,0.0,0.0,0.0,0.0,0.0,0.0,0.0,0.0,0.0,0.0,0.0,0.0,0.0,0.0,0.0,0.0,0.0,0.0,0.0,0.0,0.0,0.0,0.0,0.0,0.0,0.0,0.0,0.0,0.0,0.0,0.0,0.0,0.0,0.0,0.0,0.0,0.0,0.0,0.0,0.0,0.0,0.0,0.0,0.0,0.0,0.0,0.0,0.0,0.0,0.0,0.0,0.0,0.0,0.0,0.0,0.0,0.0,0.0,0.0,0.0,0.0,0.0,0.0,0.0,0.0,0.0,0.0,0.0,0.0,0.0,0.0,0.0,0.0,0.0,0.0,0.0,0.0,0.0,0.0,0.0,0.0,0.0,0.0,0.0,3.4625,3.5355,3.5806,3.5768,3.4213,3.2278,0.0,0.0,0.0,0.0,0.0,0.0,0.0,0.0,0.0,0.0,0.0,0.0,0.0,0.0,0.0,0.0,0.0,0.0,0.0,0.0,0.0,0.0,0.0,0.0,0.0,0.0,0.0,0.0,0.0,0.0,0.0,0.0,0.0,0.0,0.0,0.0,0.0,0.0,0.0,0.0,0.0,0.0,0.0,0.0,0.0,0.0,0.0,0.0,0.0,0.0,0.0,0.0,0.0,0.0,0.0,0.0,0.0,0.0,0.0,0.0,0.0,0.0,0.0,0.0,0.0,0.0,0.0,0.0,0.0,0.0,0.0,0.0,0.0,0.0,0.0,0.0,0.0,0.0,0.0,0.0,0.0,0.0,0.0,0.0,0.0,0.0,0.0,0.0,0.0,0.0,0.0,0.0,0.0,0.0,0.0,0.0,0.0,0.0,0.0,0.0,0.0,0.0,0.0,0.0,0.0,0.0,0.0,0.0,3.3827,3.3897,3.4625,3.5047,3.4971,3.3385,3.1597,0.0,0.0,0.0,0.0,0.0,0.0,0.0,0.0,0.0,0.0,0.0,0.0,0.0,0.0,0.0,0.0,0.0,0.0,0.0,0.0,0.0,0.0,0.0,0.0,0.0,0.0,0.0,0.0,0.0,0.0,0.0,0.0,0.0,0.0,0.0,0.0,0.0,0.0,0.0,0.0,0.0,0.0,0.0,0.0,0.0,0.0,0.0,0.0,0.0,0.0,0.0,0.0,0.0,0.0,0.0,0.0,0.0,0.0,0.0,0.0,0.0,0.0,0.0,0.0,0.0,0.0,0.0,0.0,0.0,0.0,0.0,0.0,0.0,0.0,0.0,0.0,0.0,0.0,0.0,0.0,0.0,0.0,0.0,0.0,0.0,0.0,0.0,0.0,0.0,0.0,0.0,0.0,0.0,0.0,0.0,0.0,0.0,0.0,0.0,0.0,0.0,0.0,0.0,0.0,0.0,0.0,0.0,0.0,0.0,3.4625,0.0,3.5004,0.0,3.3679,3.2044,0.0,0.0,0.0,0.0,0.0,0.0,0.0,0.0,0.0,0.0,0.0,0.0,0.0,0.0,0.0,0.0,0.0,0.0,0.0,0.0,0.0,0.0,0.0,0.0,0.0,0.0,0.0,0.0,0.0,0.0,0.0,0.0,0.0,0.0,0.0,0.0,0.0,0.0,0.0,0.0,0.0,0.0,0.0,0.0,0.0,0.0,0.0,0.0,0.0,0.0,0.0,0.0,0.0,0.0,0.0,0.0,0.0,0.0,0.0,0.0,0.0,0.0,0.0,0.0,0.0,0.0,0.0,0.0,0.0,0.0,0.0,0.0,0.0,0.0,0.0,0.0,0.0,0.0,0.0,0.0,0.0,0.0,0.0,0.0,0.0,0.0,0.0,0.0,0.0,0.0,0.0,0.0,0.0,0.0,0.0,0.0,0.0,0.0,0.0,0.0,0.0,0.0,0.0,0.0,0.0,0.0,0.0,0.0,0.0,3.464,3.4607,3.4574,3.4403,3.2998,3.144,0.0,0.0,0.0,0.0,0.0,0.0,0.0,0.0,0.0,0.0,0.0,0.0,0.0,0.0,0.0,0.0,0.0,0.0,0.0,0.0,0.0,0.0,0.0,0.0,0.0,0.0,0.0,0.0,0.0,0.0,0.0,0.0,0.0,0.0,0.0,0.0,0.0,0.0,0.0,0.0,0.0,0.0,0.0,0.0,0.0,0.0,0.0,0.0,0.0,0.0,0.0,0.0,0.0,0.0,0.0,0.0,0.0,0.0,0.0,0.0,0.0,0.0,0.0,0.0,0.0,0.0,0.0,0.0,0.0,0.0,0.0,0.0,0.0,0.0,0.0,0.0,0.0,0.0,0.0,0.0,0.0,0.0,0.0,0.0,0.0,0.0,0.0,0.0,0.0,0.0,0.0,0.0,0.0,0.0,0.0,0.0,0.0,0.0,0.0,0.0,0.0,0.0,0.0,0.0,0.0,0.0,0.0,0.0,0.0,3.3874,3.3907,3.374,3.3366,3.1463,2.9852,0.0,0.0,0.0,0.0,0.0,0.0,0.0,0.0,0.0,0.0,0.0,0.0,0.0,0.0,0.0,0.0,0.0,0.0,0.0,0.0,0.0,0.0,0.0,0.0,0.0,0.0,0.0,0.0,0.0,0.0,0.0,0.0,0.0,0.0,0.0,0.0,0.0,0.0,0.0,0.0,0.0,0.0,0.0,0.0,0.0,0.0,0.0,0.0,0.0,0.0,0.0,0.0,0.0,0.0,0.0,0.0,0.0,0.0,0.0,0.0,0.0,0.0,0.0,0.0,0.0,0.0,0.0,0.0,0.0,0.0,0.0,0.0,0.0,0.0,0.0,0.0,0.0,0.0,0.0,0.0,0.0,0.0,0.0,0.0,0.0,0.0,0.0,0.0,0.0,0.0,0.0,0.0,0.0,0.0,0.0,0.0,0.0,0.0,0.0,0.0,0.0,0.0,0.0,0.0,0.0,0.0,0.0,0.0,0.0,0.0,3.2324,3.2256,3.2085,3.0915,2.9569,2.8129,0.0,0.0,0.0,0.0,0.0,0.0,0.0,0.0,0.0,0.0,0.0,0.0,0.0,0.0,0.0,0.0,0.0,0.0,0.0,0.0,0.0,0.0,0.0,0.0,0.0,0.0,0.0,0.0,0.0,0.0,0.0,0.0,0.0,0.0,0.0,0.0,0.0,0.0,0.0,0.0,0.0,0.0,0.0,0.0,0.0,0.0,0.0,0.0,0.0,0.0,0.0,0.0,0.0,0.0,0.0,0.0,0.0,0.0,0.0,0.0,0.0,0.0,0.0,0.0,0.0,0.0,0.0,0.0,0.0,0.0,0.0,0.0,0.0,0.0,0.0,0.0,0.0,0.0,0.0,0.0,0.0,0.0,0.0,0.0,0.0,0.0,0.0,0.0,0.0,0.0,0.0,0.0,0.0,0.0,0.0,0.0,0.0,0.0,0.0,0.0,0.0,0.0,0.0,0.0,0.0,0.0,0.0,0.0,0.0,0.0,3.0899,3.0662,2.9758,2.8505,0.0,0.0,0.0,0.0,0.0,0.0,0.0,0.0,0.0,0.0,0.0,0.0,0.0,0.0,0.0,0.0,0.0,0.0,0.0,0.0,0.0,0.0,0.0,0.0,0.0,0.0,0.0,0.0,0.0,0.0,0.0,0.0,0.0,0.0,0.0,0.0,0.0,0.0,0.0,0.0,0.0,0.0,0.0,0.0,0.0,0.0,0.0,0.0,0.0,0.0,0.0,0.0,0.0,0.0,0.0,0.0,0.0,0.0,0.0,0.0,0.0,0.0,0.0,0.0,0.0,0.0,0.0,0.0,0.0,0.0,0.0,0.0,0.0,0.0,0.0,0.0,0.0,0.0,0.0,0.0,0.0,0.0,0.0,0.0,0.0,0.0,0.0,0.0,0.0,0.0,0.0,0.0,0.0,0.0,0.0,0.0,0.0,0.0,0.0,0.0,0.0,0.0,0.0,0.0,0.0,0.0,0.0,0.0,0.0,0.0,0.0,2.9644,2.8994,2.8297,0.0,2.5165,0.0,0.0,0.0,0.0,0.0,0.0,0.0,0.0,0.0,0.0,0.0,0.0,0.0,0.0,0.0,0.0,0.0,0.0,0.0,0.0,0.0,0.0,0.0,0.0,0.0,0.0,0.0,0.0,0.0,0.0,0.0,0.0,0.0,0.0,0.0,0.0,0.0,0.0,0.0,0.0,0.0,0.0,0.0,0.0,0.0,0.0,0.0,0.0,0.0,0.0,0.0,0.0,0.0,0.0,0.0,0.0,0.0,0.0,0.0,0.0,0.0,0.0,0.0,0.0,0.0,0.0,0.0,0.0,0.0,0.0,0.0,0.0,0.0,0.0,0.0,0.0,0.0,0.0,0.0,0.0,0.0,0.0,0.0,0.0,0.0,0.0,0.0,0.0,0.0,0.0,0.0,0.0,0.0,0.0,0.0,0.0,0.0,0.0,0.0,0.0,0.0,0.0,0.0,0.0,0.0,0.0,0.0,0.0,0.0,0.0,0.0,0.0,2.7626,2.6709,2.4979,0.0,0.0,0.0,0.0,0.0,0.0,0.0,0.0,0.0,0.0,0.0,0.0,0.0,0.0,0.0,0.0,0.0,0.0,0.0,0.0,0.0,0.0,0.0,0.0,0.0,0.0,0.0,0.0,0.0,0.0,0.0,0.0,0.0,0.0,0.0,0.0,0.0,0.0,0.0,0.0,0.0,0.0,0.0,0.0,0.0,0.0,0.0,0.0,0.0,0.0,0.0,0.0,0.0,0.0,0.0,0.0,0.0,0.0,0.0,0.0,0.0,0.0,0.0,0.0,0.0,0.0,0.0,0.0,0.0,0.0,0.0,0.0,0.0,0.0,0.0,0.0,0.0,0.0,0.0,0.0,0.0,0.0,0.0,0.0,0.0,0.0,0.0,0.0,0.0,0.0,0.0,0.0,0.0,0.0,0.0,0.0,0.0,0.0,0.0,0.0,0.0,0.0,0.0,0.0,0.0,0.0,0.0,0.0,0.0,0.0,2.7741,2.6792,2.6628,2.5729,2.4093,0.0,0.0,0.0,0.0,0.0,0.0,0.0,0.0,0.0,0.0,0.0,0.0,0.0,0.0,0.0,0.0,0.0,0.0,0.0,0.0,0.0,0.0,0.0,0.0,0.0,0.0,0.0,0.0,0.0,0.0,0.0,0.0,0.0,0.0,0.0,0.0,0.0,0.0,0.0,0.0,0.0,0.0,0.0,0.0,0.0,0.0,0.0,0.0,0.0,0.0,0.0,0.0,0.0,0.0,0.0,0.0,0.0,0.0,0.0,0.0,0.0,0.0,0.0,0.0,0.0,0.0,0.0,0.0,0.0,0.0,0.0,0.0,0.0,0.0,0.0,0.0,0.0,0.0,0.0,0.0,0.0,0.0,0.0,0.0,0.0,0.0,0.0,0.0,0.0,0.0,0.0,0.0,0.0,0.0,0.0,0.0,0.0,0.0,0.0,0.0,0.0,0.0,0.0,0.0,0.0,0.0,0.0,0.0,0.0,0.0,0.0,0.0,0.0,0.0,2.3105,0.0,0.0,0.0,0.0,0.0,0.0,0.0,0.0,0.0,0.0,0.0,0.0,0.0,0.0,0.0,0.0,0.0,0.0,0.0,0.0,0.0,0.0,0.0,0.0,0.0,0.0,0.0,0.0,0.0,0.0,0.0,0.0,0.0,0.0,0.0,0.0,0.0,0.0,0.0,0.0,0.0,0.0,0.0,0.0,0.0,0.0,0.0,0.0,0.0,0.0,0.0,0.0,0.0,0.0,0.0,0.0,0.0,0.0,0.0,0.0,0.0,0.0,0.0,0.0,0.0,0.0,0.0,0.0,0.0,0.0,0.0,0.0,0.0,0.0,0.0,0.0,0.0,0.0,0.0,0.0,0.0,0.0,0.0,0.0,0.0,0.0,0.0,0.0,0.0,0.0,0.0,0.0,0.0,0.0,0.0,0.0,0.0,0.0,0.0,0.0,0.0,0.0,0.0,0.0,0.0,0.0,0.0,0.0,0.0,0.0,0.0,0.0,0.0,0.0,0.0,0.0,0.0,0.0,0.0,0.0,0.0,0.0,0.0,0.0,0.0,0.0,0.0,0.0,0.0,0.0,0.0,0.0,0.0,0.0,0.0,0.0,0.0,0.0,0.0,0.0,0.0,0.0,0.0,0.0,0.0,0.0,0.0,0.0,0.0,0.0,0.0,0.0,0.0,0.0,0.0,0.0,0.0,0.0,0.0,0.0,0.0,0.0,0.0,0.0,0.0,0.0,0.0,0.0,0.0,0.0,0.0,0.0,0.0,0.0,0.0,0.0,0.0,0.0,0.0,0.0,0.0,0.0,0.0,0.0,0.0,0.0,0.0,0.0,0.0,0.0,0.0,0.0,0.0,0.0,0.0,0.0,0.0,0.0,0.0,0.0,0.0,0.0,0.0,0.0,0.0,0.0,0.0,0.0,0.0,0.0,0.0,0.0,0.0,0.0,0.0,0.0,0.0,0.0,0.0,0.0,0.0,0.0,0.0,0.0,0.0,0.0,0.0,0.0,0.0,0.0,0.0,0.0,0.0,0.0,0.0,0.0,0.0,0.0,0.0,0.0,0.0,0.0,0.0,0.0,0.0,0.0,0.0,0.0,0.0,0.0,0.0,0.0,0.0,0.0,0.0,0.0,0.0,0.0,0.0,0.0,0.0,0.0,0.0,0.0,0.0,0.0,0.0,0.0,0.0,0.0,0.0,0.0,0.0,0.0,0.0,0.0,0.0,0.0,0.0,0.0,0.0,0.0,0.0,0.0,0.0,0.0,0.0,0.0,0.0,0.0,0.0,0.0,0.0,0.0,0.0,0.0,0.0,0.0,0.0,0.0,0.0,0.0,0.0,0.0,0.0,0.0,0.0,0.0,0.0,0.0,0.0,0.0,0.0,0.0,0.0,0.0,0.0,0.0,0.0,0.0,0.0,0.0,0.0,0.0,0.0,0.0,0.0,0.0,0.0,0.0,0.0,0.0,0.0,0.0,0.0,0.0,0.0,0.0,0.0,0.0,0.0,0.0,0.0,0.0,0.0,0.0,0.0,0.0,0.0,0.0,0.0,0.0,0.0,0.0,0.0,0.0,0.0,0.0,0.0,0.0,0.0,0.0,0.0,0.0,0.0,0.0,0.0,0.0,0.0,0.0,0.0,0.0,0.0,0.0,0.0,0.0,0.0,0.0,0.0,0.0,0.0,0.0,0.0,0.0,0.0,0.0,0.0,0.0,0.0,0.0,0.0,0.0,0.0,0.0,0.0,0.0,0.0,0.0,0.0,0.0,0.0,0.0,0.0,0.0,0.0,0.0,0.0,0.0,0.0,0.0,0.0,0.0,0.0,0.0,0.0,0.0,0.0,0.0,0.0,0.0,0.0,0.0,0.0,0.0,0.0,0.0,0.0,0.0,0.0,0.0,0.0,0.0,0.0,0.0,0.0,0.0,0.0,0.0,0.0,0.0,0.0,0.0,0.0,0.0,0.0,0.0,0.0,0.0,0.0,0.0,0.0,0.0,0.0,0.0,0.0,0.0,0.0,0.0,0.0,0.0,0.0,0.0,0.0,0.0,0.0,0.0,0.0,0.0,0.0,0.0,0.0,0.0,0.0,0.0,0.0,0.0,0.0,0.0,0.0,0.0,0.0,0.0,0.0,0.0,0.0,0.0,0.0,0.0,0.0,0.0,0.0,0.0,0.0,0.0,0.0,0.0,0.0,0.0,0.0,0.0,0.0,0.0,0.0,0.0,0.0,0.0,0.0,0.0,0.0,0.0,0.0,0.0,0.0,0.0,0.0,0.0,0.0,0.0,0.0,0.0,0.0,0.0,0.0,0.0,0.0,0.0,0.0,0.0,0.0,0.0,0.0,0.0,0.0,0.0,0.0,0.0,0.0,0.0,0.0,0.0,0.0,0.0,0.0,0.0,0.0,0.0,0.0,0.0,0.0,0.0,0.0,0.0,0.0,0.0,0.0,0.0,0.0,0.0,0.0,0.0,0.0,0.0,0.0,0.0,0.0,0.0,0.0,0.0,0.0,0.0,0.0,0.0,0.0,0.0,0.0,0.0,0.0,0.0,0.0,0.0,0.0,0.0,0.0,0.0,0.0,0.0,0.0,0.0,0.0,0.0,0.0,0.0,0.0,0.0,0.0,0.0,0.0,0.0,0.0,0.0,0.0,0.0,0.0,0.0,0.0,0.0,0.0,0.0,0.0,0.0,0.0,0.0,0.0,0.0,0.0,0.0,0.0,0.0,0.0,0.0,0.0,0.0,0.0,0.0,0.0,0.0,0.0,0.0,0.0,0.0,0.0,0.0,0.0,0.0,0.0,0.0,0.0,0.0,0.0,0.0,0.0,0.0,0.0,0.0,0.0,0.0,0.0,0.0,0.0,0.0,0.0,0.0,0.0,0.0,0.0,0.0,0.0,0.0,0.0,0.0,0.0,0.0,0.0,0.0,0.0,0.0,0.0,0.0,0.0,0.0,0.0,0.0,0.0,0.0,0.0,0.0,0.0,0.0,0.0,0.0,0.0,0.0,0.0,0.0,0.0,0.0,0.0,0.0,0.0,0.0,0.0,0.0,0.0,0.0,0.0,0.0,0.0,0.0,0.0,0.0,0.0,0.0,0.0,0.0,0.0,0.0,0.0,0.0,0.0,0.0,0.0,0.0,0.0,0.0,0.0,0.0,0.0,0.0,0.0,0.0,0.0,0.0,0.0,0.0,0.0,0.0,0.0,0.0,0.0,0.0,0.0,0.0,0.0,0.0,0.0,0.0,0.0,0.0,0.0,0.0,0.0,0.0,0.0,0.0,0.0,0.0,0.0,0.0,0.0,0.0,0.0,0.0,0.0,0.0,0.0,0.0,0.0,0.0,0.0,0.0,0.0,0.0,0.0,0.0,0.0,0.0,0.0,0.0,0.0,0.0,0.0,0.0,0.0,0.0,0.0,0.0,0.0,0.0,0.0,0.0,0.0,0.0,0.0,0.0,0.0,0.0,0.0,0.0,0.0,0.0,0.0,0.0,0.0,0.0,0.0,0.0,0.0,0.0,0.0,0.0,0.0,0.0,0.0,0.0,0.0,0.0,0.0,0.0,0.0,0.0,0.0,0.0,0.0,0.0,0.0,0.0,0.0,0.0,0.0,0.0,0.0,0.0,0.0,0.0,0.0,0.0,0.0,0.0,0.0,0.0,0.0,0.0,0.0,0.0,0.0,0.0,0.0,0.0,0.0,0.0,0.0,0.0,0.0,0.0,0.0,0.0,0.0,0.0,0.0,0.0,0.0,0.0,0.0,0.0,0.0,0.0,0.0,0.0,0.0,0.0,0.0,0.0,0.0,0.0,0.0,0.0,0.0,0.0,0.0,0.0,0.0,0.0,0.0,0.0,0.0,0.0,0.0,0.0,0.0,0.0,0.0,0.0,0.0,0.0,0.0,0.0,0.0,0.0,0.0,0.0,0.0,0.0,0.0,0.0,0.0,0.0,0.0,0.0,0.0,0.0,0.0,0.0,0.0,0.0,0.0,0.0,0.0,0.0,0.0,0.0,0.0,0.0,0.0,0.0,0.0,0.0,0.0,0.0,0.0,0.0,0.0,0.0,0.0,0.0,0.0,0.0,0.0,0.0,0.0,0.0,0.0,0.0,0.0,0.0,0.0,0.0,0.0,0.0,0.0,0.0,0.0,0.0,0.0,0.0,0.0,0.0,0.0,0.0,0.0,0.0,0.0,0.0,0.0,0.0,0.0,0.0,0.0,0.0,0.0,0.0,0.0,0.0,0.0,0.0,0.0,0.0,0.0,0.0,0.0,0.0,0.0,0.0,0.0,0.0,0.0,0.0,0.0,0.0,0.0,0.0,0.0,0.0,0.0,0.0,0.0,0.0,0.0,0.0]}]]]